GFSFLT1_prec_precacc_024.txt.gz
Total_Precipitation_Accumulation
0.04 0.00 0.00 0.00 0.00 0.00 0.00 0.00 0.00 0.00 0.00 0.00 0.00 0.01 0.01 0.00 0.00 0.00 0.00 0.00 0.01 0.00 0.00 0.00 0.01 0.01 0.00 0.00 0.00 0.01 0.02 0.03 0.05
0.08 0.03 0.00 0.00 0.00 0.00 0.00 0.00 0.00 0.00 0.00 0.00 0.00 0.00 0.00 0.00 0.00 0.00 0.00 0.00 0.00 0.00 0.00 0.02 0.04 0.05 0.07 0.07 0.05 0.04 0.02 0.01 0.01
0.07 0.04 0.00 0.00 0.00 0.00 0.00 0.00 0.00 0.01 0.01 0.00 0.00 0.00 0.00 0.00 0.00 0.00 0.00 0.00 0.00 0.00 0.02 0.03 0.03 0.03 0.05 0.07 0.06 0.06 0.10 0.09 0.04
0.05 0.03 0.00 0.00 0.00 0.00 0.00 0.01 0.01 0.01 0.00 0.00 0.00 0.00 0.00 0.00 0.00 0.00 0.00 0.00 0.00 0.01 0.02 0.05 0.06 0.08 0.11 0.11 0.09 0.09 0.10 0.11 0.11
0.01 0.00 0.00 0.00 0.00 0.00 0.00 0.01 0.01 0.01 0.00 0.00 0.00 0.00 0.00 0.00 0.00 0.00 0.00 0.00 0.00 0.02 0.05 0.05 0.07 0.10 0.11 0.11 0.13 0.13 0.15 0.15 0.14
0.00 0.00 0.00 0.00 0.00 0.00 0.00 0.01 0.02 0.01 0.00 0.00 0.00 0.00 0.00 0.00 0.00 0.00 0.00 0.00 0.00 0.02 0.03 0.03 0.05 0.07 0.09 0.12 0.11 0.11 0.13 0.16 0.14
0.00 0.00 0.00 0.00 0.00 0.00 0.00 0.01 0.01 0.00 0.00 0.00 0.00 0.00 0.00 0.00 0.00 0.00 0.00 0.00 0.00 0.01 0.02 0.04 0.04 0.04 0.05 0.05 0.05 0.05 0.08 0.12 0.16
0.00 0.00 0.00 0.00 0.00 0.00 0.00 0.00 0.00 0.00 0.00 0.00 0.00 0.00 0.00 0.00 0.00 0.00 0.00 0.00 0.00 0.00 0.01 0.01 0.01 0.01 0.02 0.01 0.01 0.06 0.07 0.11 0.15
0.00 0.00 0.00 0.00 0.00 0.00 0.00 0.00 0.00 0.00 0.00 0.00 0.00 0.00 0.00 0.00 0.00 0.00 0.00 0.00 0.00 0.00 0.00 0.00 0.00 0.00 0.01 0.00 0.03 0.08 0.11 0.11 0.10
0.00 0.00 0.00 0.00 0.00 0.00 0.00 0.00 0.00 0.00 0.00 0.00 0.00 0.00 0.00 0.00 0.00 0.00 0.00 0.00 0.00 0.00 0.00 0.00 0.00 0.00 0.00 0.01 0.04 0.04 0.03 0.02 0.03
0.00 0.00 0.00 0.00 0.00 0.00 0.00 0.00 0.00 0.00 0.00 0.00 0.00 0.00 0.00 0.00 0.00 0.00 0.00 0.00 0.00 0.00 0.00 0.00 0.00 0.00 0.00 0.00 0.00 0.00 0.00 0.00 0.01
0.00 0.00 0.00 0.00 0.00 0.00 0.00 0.00 0.00 0.00 0.00 0.00 0.00 0.00 0.00 0.00 0.00 0.00 0.00 0.00 0.00 0.00 0.00 0.00 0.00 0.00 0.00 0.00 0.00 0.00 0.00 0.00 0.00
0.00 0.00 0.00 0.00 0.00 0.00 0.00 0.00 0.00 0.00 0.00 0.00 0.00 0.00 0.00 0.00 0.00 0.00 0.00 0.00 0.00 0.00 0.00 0.00 0.00 0.00 0.00 0.00 0.00 0.00 0.00 0.00 0.00
0.00 0.00 0.00 0.00 0.00 0.00 0.00 0.00 0.00 0.00 0.00 0.00 0.00 0.00 0.00 0.00 0.00 0.00 0.00 0.00 0.00 0.00 0.00 0.00 0.00 0.00 0.00 0.00 0.00 0.00 0.00 0.00 0.00
0.00 0.00 0.00 0.00 0.00 0.00 0.00 0.00 0.00 0.00 0.00 0.00 0.00 0.00 0.00 0.00 0.00 0.00 0.00 0.00 0.00 0.00 0.00 0.00 0.00 0.00 0.00 0.00 0.00 0.00 0.00 0.00 0.00
0.00 0.00 0.00 0.00 0.00 0.00 0.00 0.00 0.00 0.00 0.00 0.00 0.00 0.00 0.00 0.00 0.00 0.00 0.00 0.00 0.00 0.00 0.00 0.00 0.00 0.00 0.00 0.00 0.00 0.00 0.00 0.00 0.00
0.00 0.00 0.00 0.00 0.00 0.00 0.00 0.00 0.00 0.00 0.00 0.00 0.00 0.00 0.00 0.00 0.00 0.00 0.00 0.00 0.00 0.00 0.00 0.00 0.00 0.00 0.00 0.00 0.00 0.00 0.00 0.00 0.00
0.00 0.00 0.00 0.00 0.00 0.00 0.00 0.00 0.00 0.00 0.00 0.00 0.00 0.00 0.00 0.00 0.00 0.00 0.00 0.00 0.00 0.00 0.00 0.00 0.00 0.00 0.00 0.00 0.00 0.00 0.00 0.00 0.00
0.00 0.00 0.00 0.00 0.00 0.00 0.00 0.00 0.00 0.00 0.00 0.00 0.00 0.00 0.00 0.00 0.00 0.00 0.00 0.00 0.00 0.00 0.00 0.00 0.00 0.00 0.00 0.00 0.00 0.00 0.00 0.00 0.00
0.00 0.00 0.00 0.00 0.00 0.00 0.00 0.00 0.00 0.00 0.00 0.00 0.00 0.00 0.00 0.00 0.00 0.00 0.00 0.00 0.00 0.00 0.00 0.00 0.00 0.00 0.00 0.00 0.00 0.00 0.00 0.00 0.00

GFSFLT1_prec_precacc_027.txt.gz
Total_Precipitation_Accumulation
0.04 0.00 0.00 0.00 0.00 0.00 0.00 0.00 0.00 0.00 0.00 0.00 0.00 0.01 0.01 0.00 0.00 0.00 0.00 0.00 0.02 0.00 0.00 0.01 0.04 0.04 0.01 0.01 0.01 0.01 0.02 0.03 0.05
0.08 0.03 0.00 0.00 0.00 0.00 0.00 0.00 0.00 0.00 0.00 0.00 0.00 0.00 0.00 0.00 0.00 0.00 0.00 0.01 0.01 0.00 0.01 0.04 0.05 0.06 0.09 0.12 0.10 0.09 0.06 0.02 0.01
0.07 0.04 0.00 0.00 0.00 0.00 0.00 0.00 0.00 0.01 0.01 0.00 0.00 0.00 0.00 0.00 0.00 0.00 0.00 0.00 0.00 0.00 0.02 0.03 0.03 0.04 0.06 0.08 0.07 0.07 0.13 0.17 0.10
0.05 0.03 0.00 0.00 0.00 0.00 0.01 0.02 0.01 0.01 0.00 0.00 0.00 0.00 0.00 0.00 0.00 0.00 0.00 0.00 0.00 0.01 0.02 0.05 0.07 0.08 0.11 0.11 0.10 0.09 0.11 0.12 0.12
0.01 0.00 0.00 0.00 0.00 0.01 0.00 0.01 0.01 0.01 0.00 0.00 0.00 0.00 0.00 0.00 0.00 0.00 0.00 0.00 0.00 0.02 0.05 0.07 0.09 0.10 0.11 0.11 0.13 0.13 0.15 0.15 0.14
0.00 0.00 0.00 0.00 0.00 0.00 0.00 0.01 0.02 0.01 0.00 0.00 0.00 0.00 0.00 0.00 0.00 0.00 0.00 0.00 0.01 0.03 0.04 0.04 0.06 0.07 0.09 0.12 0.11 0.11 0.13 0.16 0.14
0.00 0.00 0.00 0.00 0.00 0.00 0.00 0.01 0.01 0.00 0.00 0.00 0.00 0.00 0.00 0.00 0.00 0.00 0.00 0.00 0.01 0.02 0.03 0.05 0.04 0.04 0.05 0.05 0.05 0.05 0.08 0.12 0.16
0.00 0.00 0.00 0.00 0.00 0.00 0.00 0.00 0.00 0.00 0.00 0.00 0.00 0.00 0.00 0.00 0.00 0.00 0.00 0.00 0.01 0.00 0.01 0.01 0.01 0.01 0.02 0.01 0.01 0.06 0.07 0.11 0.15
0.00 0.00 0.00 0.00 0.00 0.00 0.00 0.00 0.00 0.00 0.00 0.00 0.00 0.00 0.00 0.00 0.00 0.00 0.00 0.00 0.00 0.00 0.00 0.00 0.00 0.00 0.01 0.00 0.03 0.08 0.11 0.11 0.10
0.00 0.00 0.00 0.00 0.00 0.00 0.00 0.00 0.00 0.00 0.00 0.00 0.00 0.00 0.00 0.00 0.00 0.00 0.00 0.00 0.00 0.00 0.00 0.00 0.00 0.00 0.00 0.01 0.04 0.04 0.03 0.02 0.03
0.00 0.00 0.00 0.00 0.00 0.00 0.00 0.00 0.00 0.00 0.00 0.00 0.00 0.00 0.00 0.00 0.00 0.00 0.00 0.00 0.00 0.00 0.00 0.00 0.00 0.00 0.00 0.00 0.00 0.00 0.00 0.00 0.01
0.00 0.00 0.00 0.00 0.00 0.00 0.00 0.00 0.00 0.00 0.00 0.00 0.00 0.00 0.00 0.00 0.00 0.00 0.00 0.00 0.00 0.00 0.00 0.00 0.00 0.00 0.00 0.00 0.00 0.00 0.00 0.00 0.00
0.00 0.00 0.00 0.00 0.00 0.00 0.00 0.00 0.00 0.00 0.00 0.00 0.00 0.00 0.00 0.00 0.00 0.00 0.00 0.00 0.00 0.00 0.00 0.00 0.00 0.00 0.00 0.00 0.00 0.00 0.00 0.00 0.00
0.00 0.00 0.00 0.00 0.00 0.00 0.00 0.00 0.00 0.00 0.00 0.00 0.00 0.00 0.00 0.00 0.00 0.00 0.00 0.00 0.00 0.00 0.00 0.00 0.00 0.00 0.00 0.00 0.00 0.00 0.00 0.00 0.00
0.00 0.00 0.00 0.00 0.00 0.00 0.00 0.00 0.00 0.00 0.00 0.00 0.00 0.00 0.00 0.00 0.00 0.00 0.00 0.00 0.00 0.00 0.00 0.00 0.00 0.00 0.00 0.00 0.00 0.00 0.00 0.00 0.00
0.00 0.00 0.00 0.00 0.00 0.00 0.00 0.00 0.00 0.00 0.00 0.00 0.00 0.00 0.00 0.00 0.00 0.00 0.00 0.00 0.00 0.00 0.00 0.00 0.00 0.00 0.00 0.00 0.00 0.00 0.00 0.00 0.00
0.00 0.00 0.00 0.00 0.00 0.00 0.00 0.00 0.00 0.00 0.00 0.00 0.00 0.00 0.00 0.00 0.00 0.00 0.00 0.00 0.00 0.00 0.00 0.00 0.00 0.00 0.00 0.00 0.00 0.00 0.00 0.00 0.00
0.00 0.00 0.00 0.00 0.00 0.00 0.00 0.00 0.00 0.00 0.00 0.00 0.00 0.00 0.00 0.00 0.00 0.00 0.00 0.00 0.00 0.00 0.00 0.00 0.00 0.00 0.00 0.00 0.00 0.00 0.00 0.00 0.00
0.01 0.00 0.00 0.00 0.00 0.00 0.00 0.00 0.00 0.00 0.00 0.00 0.00 0.00 0.00 0.00 0.00 0.00 0.00 0.00 0.00 0.00 0.00 0.00 0.00 0.00 0.00 0.00 0.00 0.00 0.00 0.00 0.00
0.03 0.03 0.01 0.00 0.00 0.00 0.00 0.00 0.00 0.00 0.00 0.00 0.00 0.00 0.00 0.00 0.00 0.00 0.00 0.00 0.00 0.00 0.00 0.00 0.00 0.00 0.00 0.00 0.00 0.00 0.00 0.00 0.00

GFSFLT1_prec_precacc_030.txt.gz
Total_Precipitation_Accumulation
0.04 0.00 0.00 0.00 0.00 0.00 0.00 0.00 0.00 0.00 0.00 0.00 0.00 0.01 0.01 0.00 0.00 0.00 0.00 0.00 0.03 0.00 0.00 0.02 0.06 0.07 0.03 0.03 0.03 0.02 0.02 0.03 0.05
0.08 0.03 0.00 0.00 0.00 0.00 0.00 0.00 0.00 0.00 0.00 0.00 0.00 0.00 0.00 0.00 0.00 0.00 0.00 0.01 0.02 0.00 0.01 0.04 0.06 0.07 0.12 0.16 0.14 0.13 0.10 0.08 0.03
0.07 0.04 0.00 0.00 0.00 0.00 0.00 0.00 0.00 0.01 0.01 0.00 0.00 0.00 0.00 0.00 0.00 0.00 0.00 0.00 0.00 0.00 0.02 0.03 0.04 0.05 0.06 0.08 0.07 0.08 0.14 0.20 0.17
0.05 0.03 0.00 0.00 0.00 0.00 0.01 0.03 0.01 0.01 0.00 0.00 0.00 0.00 0.00 0.00 0.00 0.00 0.00 0.00 0.00 0.01 0.02 0.06 0.08 0.08 0.11 0.11 0.10 0.09 0.11 0.12 0.13
0.01 0.00 0.00 0.00 0.00 0.01 0.01 0.01 0.01 0.01 0.00 0.00 0.00 0.00 0.00 0.00 0.00 0.00 0.00 0.00 0.00 0.03 0.07 0.09 0.10 0.11 0.11 0.11 0.13 0.13 0.15 0.15 0.14
0.00 0.00 0.00 0.00 0.01 0.00 0.00 0.01 0.02 0.01 0.00 0.00 0.00 0.00 0.00 0.00 0.00 0.00 0.00 0.00 0.02 0.05 0.05 0.05 0.07 0.07 0.09 0.12 0.11 0.11 0.13 0.16 0.14
0.00 0.00 0.00 0.00 0.00 0.00 0.00 0.01 0.01 0.00 0.00 0.00 0.00 0.00 0.00 0.00 0.00 0.00 0.00 0.01 0.02 0.03 0.03 0.05 0.04 0.04 0.05 0.05 0.05 0.05 0.08 0.12 0.16
0.00 0.00 0.00 0.00 0.00 0.00 0.00 0.00 0.00 0.00 0.00 0.00 0.00 0.00 0.00 0.00 0.00 0.00 0.01 0.01 0.01 0.01 0.01 0.01 0.01 0.01 0.02 0.01 0.01 0.06 0.07 0.11 0.15
0.00 0.00 0.00 0.00 0.00 0.00 0.00 0.00 0.00 0.00 0.00 0.00 0.00 0.00 0.00 0.00 0.00 0.00 0.00 0.00 0.00 0.00 0.00 0.00 0.00 0.00 0.01 0.00 0.03 0.08 0.11 0.11 0.10
0.00 0.00 0.00 0.00 0.00 0.00 0.00 0.00 0.00 0.00 0.00 0.00 0.00 0.00 0.00 0.00 0.00 0.00 0.00 0.00 0.00 0.00 0.00 0.00 0.00 0.00 0.00 0.01 0.04 0.04 0.03 0.02 0.03
0.00 0.00 0.00 0.00 0.00 0.00 0.00 0.00 0.00 0.00 0.00 0.00 0.00 0.00 0.00 0.00 0.00 0.00 0.00 0.00 0.00 0.00 0.00 0.00 0.00 0.00 0.00 0.00 0.00 0.00 0.00 0.00 0.01
0.00 0.00 0.00 0.00 0.00 0.00 0.00 0.00 0.00 0.00 0.00 0.00 0.00 0.00 0.00 0.00 0.00 0.00 0.00 0.00 0.00 0.00 0.00 0.00 0.00 0.00 0.00 0.00 0.00 0.00 0.00 0.00 0.00
0.00 0.00 0.00 0.00 0.00 0.00 0.00 0.00 0.00 0.00 0.00 0.00 0.00 0.00 0.00 0.00 0.00 0.00 0.00 0.00 0.00 0.00 0.00 0.00 0.00 0.00 0.00 0.00 0.00 0.00 0.00 0.00 0.00
0.00 0.00 0.00 0.00 0.00 0.00 0.00 0.00 0.00 0.00 0.00 0.00 0.00 0.00 0.00 0.00 0.00 0.00 0.00 0.00 0.00 0.00 0.00 0.00 0.00 0.00 0.00 0.00 0.00 0.00 0.00 0.00 0.00
0.00 0.00 0.00 0.00 0.00 0.00 0.00 0.00 0.00 0.00 0.00 0.00 0.00 0.00 0.00 0.00 0.00 0.00 0.00 0.00 0.00 0.00 0.00 0.00 0.00 0.00 0.00 0.00 0.00 0.00 0.00 0.00 0.00
0.03 0.02 0.00 0.00 0.00 0.00 0.00 0.00 0.00 0.00 0.00 0.00 0.00 0.00 0.00 0.00 0.00 0.00 0.00 0.00 0.00 0.00 0.00 0.00 0.00 0.00 0.00 0.00 0.00 0.00 0.00 0.00 0.00
0.01 0.00 0.00 0.00 0.00 0.00 0.00 0.00 0.00 0.00 0.00 0.00 0.00 0.00 0.00 0.00 0.00 0.00 0.00 0.00 0.00 0.00 0.00 0.00 0.00 0.00 0.00 0.00 0.00 0.00 0.00 0.00 0.00
0.00 0.01 0.00 0.00 0.00 0.00 0.00 0.00 0.00 0.00 0.00 0.00 0.00 0.00 0.00 0.00 0.00 0.00 0.00 0.00 0.00 0.00 0.00 0.00 0.00 0.00 0.00 0.00 0.00 0.00 0.00 0.00 0.00
0.05 0.05 0.04 0.00 0.00 0.00 0.00 0.00 0.00 0.00 0.00 0.00 0.00 0.00 0.00 0.00 0.00 0.00 0.00 0.00 0.00 0.00 0.00 0.00 0.00 0.00 0.00 0.00 0.00 0.00 0.00 0.00 0.00
0.12 0.11 0.09 0.05 0.04 0.01 0.01 0.00 0.00 0.00 0.00 0.00 0.00 0.00 0.00 0.00 0.00 0.00 0.00 0.00 0.00 0.00 0.00 0.00 0.00 0.00 0.00 0.00 0.00 0.00 0.00 0.00 0.00

GFSFLT1_prec_precacc_033.txt.gz
Total_Precipitation_Accumulation
0.04 0.00 0.00 0.00 0.00 0.00 0.00 0.00 0.00 0.00 0.00 0.00 0.00 0.01 0.01 0.00 0.00 0.00 0.00 0.00 0.04 0.00 0.00 0.03 0.08 0.09 0.05 0.06 0.04 0.04 0.02 0.03 0.05
0.08 0.03 0.00 0.00 0.00 0.00 0.00 0.00 0.00 0.00 0.00 0.00 0.00 0.00 0.00 0.00 0.00 0.00 0.00 0.01 0.02 0.00 0.01 0.04 0.06 0.08 0.14 0.19 0.17 0.17 0.13 0.15 0.06
0.07 0.04 0.00 0.00 0.00 0.00 0.00 0.01 0.01 0.01 0.01 0.00 0.00 0.00 0.00 0.00 0.00 0.00 0.00 0.00 0.00 0.00 0.02 0.04 0.04 0.05 0.07 0.08 0.07 0.08 0.14 0.21 0.20
0.05 0.03 0.00 0.00 0.00 0.00 0.02 0.04 0.01 0.01 0.00 0.00 0.00 0.00 0.00 0.00 0.00 0.00 0.00 0.00 0.00 0.01 0.03 0.07 0.08 0.08 0.11 0.11 0.10 0.09 0.11 0.12 0.13
0.01 0.00 0.00 0.00 0.00 0.02 0.03 0.01 0.01 0.01 0.00 0.00 0.00 0.00 0.00 0.00 0.00 0.00 0.00 0.00 0.01 0.04 0.09 0.10 0.10 0.11 0.11 0.11 0.13 0.13 0.15 0.15 0.14
0.00 0.00 0.00 0.00 0.02 0.01 0.00 0.01 0.02 0.01 0.00 0.00 0.00 0.00 0.00 0.00 0.00 0.00 0.00 0.01 0.04 0.06 0.06 0.05 0.07 0.07 0.09 0.12 0.11 0.11 0.13 0.16 0.14
0.00 0.00 0.00 0.00 0.01 0.00 0.00 0.01 0.01 0.00 0.00 0.00 0.00 0.00 0.00 0.00 0.00 0.00 0.01 0.02 0.03 0.03 0.03 0.05 0.04 0.04 0.05 0.05 0.05 0.05 0.08 0.12 0.16
0.00 0.00 0.00 0.00 0.00 0.00 0.00 0.00 0.00 0.00 0.00 0.00 0.00 0.00 0.00 0.00 0.00 0.00 0.02 0.01 0.01 0.01 0.01 0.01 0.01 0.01 0.02 0.01 0.01 0.06 0.07 0.11 0.15
0.00 0.00 0.00 0.00 0.00 0.00 0.00 0.00 0.00 0.00 0.00 0.00 0.00 0.00 0.00 0.00 0.00 0.00 0.00 0.00 0.00 0.00 0.00 0.00 0.00 0.00 0.01 0.00 0.03 0.08 0.11 0.11 0.10
0.00 0.00 0.00 0.00 0.00 0.00 0.00 0.00 0.00 0.00 0.00 0.00 0.00 0.00 0.00 0.00 0.00 0.00 0.00 0.00 0.00 0.00 0.00 0.00 0.00 0.00 0.00 0.01 0.04 0.04 0.03 0.02 0.03
0.00 0.00 0.00 0.00 0.00 0.00 0.00 0.00 0.00 0.00 0.00 0.00 0.00 0.00 0.00 0.00 0.00 0.00 0.00 0.00 0.00 0.00 0.00 0.00 0.00 0.00 0.00 0.00 0.00 0.00 0.00 0.00 0.01
0.00 0.00 0.00 0.00 0.00 0.00 0.00 0.00 0.00 0.00 0.00 0.00 0.00 0.00 0.00 0.00 0.00 0.00 0.00 0.00 0.00 0.00 0.00 0.00 0.00 0.00 0.00 0.00 0.00 0.00 0.00 0.00 0.00
0.00 0.00 0.00 0.00 0.00 0.00 0.00 0.00 0.00 0.00 0.00 0.00 0.00 0.00 0.00 0.00 0.00 0.00 0.00 0.00 0.00 0.00 0.00 0.00 0.00 0.00 0.00 0.00 0.00 0.00 0.00 0.00 0.00
0.00 0.00 0.00 0.00 0.00 0.00 0.00 0.00 0.00 0.00 0.00 0.00 0.00 0.00 0.00 0.00 0.00 0.00 0.00 0.00 0.00 0.00 0.00 0.00 0.00 0.00 0.00 0.00 0.00 0.00 0.00 0.00 0.00
0.00 0.00 0.00 0.00 0.00 0.00 0.00 0.00 0.00 0.00 0.00 0.00 0.00 0.00 0.00 0.00 0.00 0.00 0.00 0.00 0.00 0.00 0.00 0.00 0.00 0.00 0.00 0.00 0.00 0.00 0.00 0.00 0.00
0.04 0.03 0.00 0.00 0.00 0.00 0.00 0.00 0.00 0.00 0.00 0.00 0.00 0.00 0.00 0.00 0.00 0.00 0.00 0.00 0.00 0.00 0.00 0.00 0.00 0.00 0.00 0.00 0.00 0.00 0.00 0.00 0.00
0.03 0.02 0.02 0.00 0.00 0.00 0.00 0.00 0.00 0.00 0.00 0.00 0.00 0.00 0.00 0.00 0.00 0.00 0.00 0.00 0.00 0.00 0.00 0.00 0.00 0.00 0.00 0.00 0.00 0.00 0.00 0.00 0.00
0.02 0.05 0.05 0.04 0.01 0.00 0.00 0.00 0.00 0.00 0.00 0.00 0.00 0.00 0.00 0.00 0.00 0.00 0.00 0.00 0.00 0.00 0.00 0.00 0.00 0.00 0.00 0.00 0.00 0.00 0.00 0.00 0.00
0.10 0.08 0.12 0.13 0.04 0.00 0.00 0.00 0.00 0.00 0.00 0.00 0.00 0.00 0.00 0.00 0.00 0.00 0.00 0.00 0.00 0.00 0.00 0.00 0.00 0.00 0.00 0.00 0.00 0.00 0.00 0.00 0.00
0.18 0.14 0.16 0.14 0.11 0.07 0.05 0.01 0.01 0.00 0.00 0.00 0.00 0.00 0.00 0.00 0.00 0.00 0.00 0.00 0.00 0.00 0.00 0.00 0.00 0.00 0.00 0.00 0.00 0.00 0.00 0.00 0.00

GFSFLT1_prec_precacc_036.txt.gz
Total_Precipitation_Accumulation
0.04 0.00 0.00 0.00 0.00 0.00 0.00 0.00 0.00 0.00 0.00 0.00 0.00 0.01 0.01 0.00 0.00 0.00 0.00 0.01 0.04 0.00 0.01 0.04 0.10 0.11 0.10 0.09 0.06 0.08 0.04 0.04 0.05
0.08 0.03 0.00 0.00 0.00 0.00 0.00 0.00 0.00 0.00 0.00 0.00 0.00 0.00 0.00 0.00 0.00 0.00 0.00 0.01 0.02 0.00 0.01 0.05 0.07 0.09 0.15 0.20 0.21 0.20 0.17 0.20 0.11
0.07 0.04 0.00 0.00 0.00 0.00 0.00 0.01 0.01 0.01 0.01 0.00 0.00 0.00 0.00 0.00 0.00 0.00 0.00 0.00 0.00 0.00 0.02 0.04 0.05 0.05 0.07 0.08 0.07 0.08 0.15 0.21 0.23
0.05 0.03 0.00 0.00 0.01 0.00 0.03 0.04 0.01 0.01 0.00 0.00 0.00 0.00 0.00 0.00 0.00 0.00 0.00 0.00 0.00 0.01 0.04 0.07 0.08 0.08 0.11 0.11 0.10 0.10 0.11 0.12 0.13
0.01 0.00 0.00 0.00 0.01 0.03 0.04 0.01 0.01 0.01 0.00 0.00 0.00 0.00 0.00 0.00 0.00 0.00 0.00 0.00 0.01 0.07 0.11 0.11 0.10 0.11 0.11 0.11 0.13 0.13 0.15 0.15 0.14
0.00 0.00 0.00 0.00 0.02 0.02 0.00 0.01 0.02 0.01 0.00 0.00 0.00 0.00 0.00 0.00 0.00 0.00 0.00 0.03 0.06 0.08 0.06 0.05 0.07 0.07 0.09 0.12 0.11 0.11 0.13 0.16 0.14
0.00 0.00 0.00 0.00 0.01 0.00 0.00 0.01 0.01 0.00 0.00 0.00 0.00 0.00 0.00 0.00 0.00 0.00 0.01 0.03 0.03 0.03 0.03 0.05 0.04 0.04 0.05 0.05 0.05 0.05 0.08 0.12 0.16
0.00 0.00 0.00 0.00 0.00 0.00 0.00 0.00 0.00 0.00 0.00 0.00 0.00 0.00 0.00 0.00 0.00 0.00 0.03 0.02 0.01 0.01 0.01 0.01 0.01 0.01 0.02 0.01 0.01 0.06 0.07 0.11 0.15
0.00 0.00 0.00 0.00 0.00 0.00 0.00 0.00 0.00 0.00 0.00 0.00 0.00 0.00 0.00 0.00 0.00 0.00 0.00 0.00 0.00 0.00 0.00 0.00 0.00 0.00 0.01 0.00 0.03 0.08 0.11 0.11 0.10
0.00 0.00 0.00 0.00 0.00 0.00 0.00 0.00 0.00 0.00 0.00 0.00 0.00 0.00 0.00 0.00 0.00 0.00 0.00 0.00 0.00 0.00 0.00 0.00 0.00 0.00 0.00 0.01 0.04 0.04 0.03 0.02 0.03
0.00 0.00 0.00 0.00 0.00 0.00 0.00 0.00 0.00 0.00 0.00 0.00 0.00 0.00 0.00 0.00 0.00 0.00 0.00 0.00 0.00 0.00 0.00 0.00 0.00 0.00 0.00 0.00 0.00 0.00 0.00 0.00 0.01
0.00 0.00 0.00 0.00 0.00 0.00 0.00 0.00 0.00 0.00 0.00 0.00 0.00 0.00 0.00 0.00 0.00 0.00 0.00 0.00 0.00 0.00 0.00 0.00 0.00 0.00 0.00 0.00 0.00 0.00 0.00 0.00 0.00
0.00 0.00 0.00 0.00 0.00 0.00 0.00 0.00 0.00 0.00 0.00 0.00 0.00 0.00 0.00 0.00 0.00 0.00 0.00 0.00 0.00 0.00 0.00 0.00 0.00 0.00 0.00 0.00 0.00 0.00 0.00 0.00 0.00
0.00 0.00 0.00 0.00 0.00 0.00 0.00 0.00 0.00 0.00 0.00 0.00 0.00 0.00 0.00 0.00 0.00 0.00 0.00 0.00 0.00 0.00 0.00 0.00 0.00 0.00 0.00 0.00 0.00 0.00 0.00 0.00 0.00
0.00 0.00 0.00 0.00 0.00 0.00 0.00 0.00 0.00 0.00 0.00 0.00 0.00 0.00 0.00 0.00 0.00 0.00 0.00 0.00 0.00 0.00 0.00 0.00 0.00 0.00 0.00 0.00 0.00 0.00 0.00 0.00 0.00
0.06 0.03 0.00 0.00 0.00 0.00 0.00 0.00 0.00 0.00 0.00 0.00 0.00 0.00 0.00 0.00 0.00 0.00 0.00 0.00 0.00 0.00 0.00 0.00 0.00 0.00 0.00 0.00 0.00 0.00 0.00 0.00 0.00
0.03 0.03 0.05 0.01 0.00 0.00 0.00 0.00 0.00 0.00 0.00 0.00 0.00 0.00 0.00 0.00 0.00 0.00 0.00 0.00 0.00 0.00 0.00 0.00 0.00 0.00 0.00 0.00 0.00 0.00 0.00 0.00 0.00
0.03 0.08 0.10 0.07 0.03 0.01 0.01 0.00 0.00 0.00 0.00 0.00 0.00 0.00 0.00 0.00 0.00 0.00 0.00 0.00 0.00 0.00 0.00 0.00 0.00 0.00 0.00 0.00 0.00 0.00 0.00 0.00 0.00
0.13 0.11 0.15 0.17 0.06 0.02 0.01 0.01 0.00 0.00 0.00 0.00 0.00 0.00 0.00 0.00 0.00 0.00 0.00 0.00 0.00 0.00 0.00 0.00 0.00 0.00 0.00 0.00 0.00 0.00 0.00 0.00 0.00
0.21 0.19 0.22 0.16 0.14 0.10 0.08 0.03 0.01 0.00 0.00 0.00 0.00 0.00 0.00 0.00 0.00 0.00 0.00 0.00 0.00 0.00 0.00 0.00 0.00 0.00 0.00 0.00 0.00 0.00 0.00 0.00 0.00

GFSFLT1_prec_precacc_039.txt.gz
Total_Precipitation_Accumulation
0.04 0.00 0.00 0.00 0.00 0.00 0.00 0.00 0.00 0.00 0.00 0.00 0.00 0.01 0.01 0.00 0.00 0.00 0.00 0.01 0.04 0.00 0.01 0.04 0.12 0.14 0.14 0.12 0.12 0.13 0.09 0.06 0.05
0.08 0.03 0.00 0.00 0.00 0.00 0.00 0.00 0.00 0.00 0.00 0.00 0.00 0.00 0.00 0.00 0.00 0.00 0.00 0.01 0.02 0.00 0.01 0.06 0.08 0.09 0.16 0.21 0.22 0.21 0.20 0.22 0.17
0.07 0.04 0.00 0.00 0.00 0.00 0.00 0.01 0.01 0.01 0.01 0.00 0.00 0.00 0.00 0.00 0.00 0.00 0.00 0.00 0.00 0.00 0.02 0.04 0.05 0.05 0.07 0.08 0.07 0.08 0.15 0.21 0.23
0.05 0.03 0.00 0.00 0.01 0.00 0.03 0.04 0.01 0.01 0.00 0.00 0.00 0.00 0.00 0.00 0.00 0.00 0.00 0.00 0.00 0.01 0.05 0.08 0.08 0.08 0.11 0.11 0.10 0.10 0.11 0.12 0.13
0.01 0.00 0.00 0.00 0.01 0.03 0.04 0.01 0.01 0.01 0.00 0.00 0.00 0.00 0.00 0.00 0.00 0.00 0.00 0.00 0.02 0.11 0.13 0.12 0.10 0.11 0.11 0.11 0.13 0.13 0.15 0.15 0.14
0.00 0.00 0.00 0.00 0.02 0.02 0.00 0.01 0.02 0.01 0.00 0.00 0.00 0.00 0.00 0.00 0.00 0.00 0.01 0.04 0.08 0.09 0.06 0.05 0.07 0.07 0.09 0.12 0.11 0.11 0.13 0.16 0.14
0.00 0.00 0.00 0.00 0.02 0.00 0.00 0.01 0.01 0.00 0.00 0.00 0.00 0.00 0.00 0.00 0.00 0.00 0.02 0.03 0.03 0.03 0.03 0.05 0.04 0.04 0.05 0.05 0.05 0.05 0.08 0.12 0.16
0.00 0.00 0.00 0.00 0.00 0.00 0.00 0.00 0.00 0.00 0.00 0.00 0.00 0.00 0.00 0.00 0.00 0.00 0.04 0.02 0.01 0.01 0.01 0.01 0.01 0.01 0.02 0.01 0.01 0.06 0.07 0.11 0.15
0.00 0.00 0.00 0.00 0.00 0.00 0.00 0.00 0.00 0.00 0.00 0.00 0.00 0.00 0.00 0.00 0.00 0.00 0.00 0.00 0.00 0.00 0.00 0.00 0.00 0.00 0.01 0.00 0.03 0.08 0.11 0.11 0.10
0.00 0.00 0.00 0.00 0.00 0.00 0.00 0.00 0.00 0.00 0.00 0.00 0.00 0.00 0.00 0.00 0.00 0.00 0.00 0.00 0.00 0.00 0.00 0.00 0.00 0.00 0.00 0.01 0.04 0.04 0.03 0.02 0.03
0.00 0.00 0.00 0.00 0.00 0.00 0.00 0.00 0.00 0.00 0.00 0.00 0.00 0.00 0.00 0.00 0.00 0.00 0.00 0.00 0.00 0.00 0.00 0.00 0.00 0.00 0.00 0.00 0.00 0.00 0.00 0.00 0.01
0.00 0.00 0.00 0.00 0.00 0.00 0.00 0.00 0.00 0.00 0.00 0.00 0.00 0.00 0.00 0.00 0.00 0.00 0.00 0.00 0.00 0.00 0.00 0.00 0.00 0.00 0.00 0.00 0.00 0.00 0.00 0.00 0.00
0.00 0.00 0.00 0.00 0.00 0.00 0.00 0.00 0.00 0.00 0.00 0.00 0.00 0.00 0.00 0.00 0.00 0.00 0.00 0.00 0.00 0.00 0.00 0.00 0.00 0.00 0.00 0.00 0.00 0.00 0.00 0.00 0.00
0.00 0.00 0.00 0.00 0.00 0.00 0.00 0.00 0.00 0.00 0.00 0.00 0.00 0.00 0.00 0.00 0.00 0.00 0.00 0.00 0.00 0.00 0.00 0.00 0.00 0.00 0.00 0.00 0.00 0.00 0.00 0.00 0.00
0.01 0.00 0.00 0.00 0.00 0.00 0.00 0.00 0.00 0.00 0.00 0.00 0.00 0.00 0.00 0.00 0.00 0.00 0.00 0.00 0.00 0.00 0.00 0.00 0.00 0.00 0.00 0.00 0.00 0.00 0.00 0.00 0.00
0.06 0.03 0.00 0.00 0.00 0.00 0.00 0.00 0.00 0.00 0.00 0.00 0.00 0.00 0.00 0.00 0.00 0.00 0.00 0.00 0.00 0.00 0.00 0.00 0.00 0.00 0.00 0.00 0.00 0.00 0.00 0.00 0.00
0.03 0.03 0.05 0.01 0.00 0.00 0.00 0.00 0.00 0.00 0.00 0.00 0.00 0.00 0.00 0.00 0.00 0.00 0.00 0.00 0.00 0.00 0.00 0.00 0.00 0.00 0.00 0.00 0.00 0.00 0.00 0.00 0.00
0.03 0.09 0.10 0.08 0.03 0.01 0.01 0.00 0.00 0.00 0.00 0.00 0.00 0.00 0.00 0.00 0.00 0.00 0.00 0.00 0.00 0.00 0.00 0.00 0.00 0.00 0.00 0.00 0.00 0.00 0.00 0.00 0.00
0.15 0.12 0.17 0.19 0.07 0.02 0.02 0.02 0.02 0.01 0.01 0.00 0.00 0.00 0.00 0.00 0.00 0.00 0.00 0.00 0.00 0.00 0.00 0.00 0.00 0.00 0.00 0.00 0.00 0.00 0.00 0.00 0.00
0.22 0.19 0.24 0.19 0.16 0.15 0.11 0.04 0.05 0.03 0.01 0.01 0.00 0.00 0.00 0.00 0.00 0.00 0.00 0.00 0.00 0.00 0.00 0.00 0.00 0.00 0.00 0.00 0.00 0.00 0.00 0.00 0.00

GFSFLT1_prec_precacc_042.txt.gz
Total_Precipitation_Accumulation
0.04 0.00 0.00 0.00 0.00 0.00 0.00 0.00 0.00 0.00 0.00 0.00 0.00 0.01 0.01 0.00 0.00 0.00 0.00 0.01 0.04 0.01 0.01 0.06 0.13 0.15 0.16 0.16 0.16 0.17 0.12 0.07 0.06
0.08 0.03 0.00 0.00 0.00 0.00 0.00 0.00 0.00 0.00 0.00 0.00 0.00 0.00 0.00 0.00 0.00 0.00 0.00 0.01 0.02 0.00 0.02 0.06 0.08 0.09 0.16 0.21 0.22 0.22 0.21 0.25 0.22
0.07 0.04 0.00 0.00 0.00 0.00 0.00 0.01 0.01 0.01 0.01 0.00 0.00 0.00 0.00 0.00 0.00 0.00 0.00 0.00 0.00 0.00 0.02 0.04 0.05 0.05 0.07 0.08 0.07 0.08 0.15 0.22 0.23
0.05 0.03 0.00 0.00 0.01 0.00 0.03 0.04 0.01 0.01 0.00 0.00 0.00 0.00 0.00 0.00 0.00 0.00 0.00 0.00 0.00 0.02 0.06 0.08 0.08 0.08 0.11 0.11 0.10 0.10 0.11 0.12 0.13
0.01 0.00 0.00 0.01 0.01 0.03 0.04 0.01 0.01 0.01 0.00 0.00 0.00 0.00 0.00 0.00 0.00 0.00 0.00 0.00 0.03 0.12 0.13 0.12 0.10 0.11 0.11 0.11 0.13 0.13 0.15 0.15 0.14
0.00 0.00 0.00 0.00 0.02 0.03 0.00 0.01 0.02 0.01 0.00 0.00 0.00 0.00 0.00 0.00 0.00 0.00 0.01 0.05 0.09 0.09 0.06 0.05 0.07 0.07 0.09 0.12 0.11 0.11 0.13 0.16 0.14
0.00 0.00 0.00 0.00 0.02 0.00 0.00 0.01 0.01 0.00 0.00 0.00 0.00 0.00 0.00 0.00 0.00 0.00 0.02 0.03 0.03 0.03 0.03 0.05 0.04 0.04 0.05 0.05 0.05 0.05 0.08 0.12 0.16
0.00 0.00 0.00 0.00 0.00 0.00 0.00 0.00 0.00 0.00 0.00 0.00 0.00 0.00 0.00 0.00 0.00 0.00 0.04 0.02 0.01 0.01 0.01 0.01 0.01 0.01 0.02 0.01 0.01 0.06 0.07 0.11 0.15
0.00 0.00 0.00 0.00 0.00 0.00 0.00 0.00 0.00 0.00 0.00 0.00 0.00 0.00 0.00 0.00 0.00 0.00 0.00 0.00 0.00 0.00 0.00 0.00 0.00 0.00 0.01 0.00 0.03 0.08 0.11 0.11 0.10
0.00 0.00 0.00 0.00 0.00 0.00 0.00 0.00 0.00 0.00 0.00 0.00 0.00 0.00 0.00 0.00 0.00 0.00 0.00 0.00 0.00 0.00 0.00 0.00 0.00 0.00 0.00 0.01 0.04 0.04 0.03 0.02 0.03
0.00 0.00 0.00 0.00 0.00 0.00 0.00 0.00 0.00 0.00 0.00 0.00 0.00 0.00 0.00 0.00 0.00 0.00 0.00 0.00 0.00 0.00 0.00 0.00 0.00 0.00 0.00 0.00 0.00 0.00 0.00 0.00 0.01
0.00 0.00 0.00 0.00 0.00 0.00 0.00 0.00 0.00 0.00 0.00 0.00 0.00 0.00 0.00 0.00 0.00 0.00 0.00 0.00 0.00 0.00 0.00 0.00 0.00 0.00 0.00 0.00 0.00 0.00 0.00 0.00 0.00
0.00 0.00 0.00 0.00 0.00 0.00 0.00 0.00 0.00 0.00 0.00 0.00 0.00 0.00 0.00 0.00 0.00 0.00 0.00 0.00 0.00 0.00 0.00 0.00 0.00 0.00 0.00 0.00 0.00 0.00 0.00 0.00 0.00
0.00 0.00 0.00 0.00 0.00 0.00 0.00 0.00 0.00 0.00 0.00 0.00 0.00 0.00 0.00 0.00 0.00 0.00 0.00 0.00 0.00 0.00 0.00 0.00 0.00 0.00 0.00 0.00 0.00 0.00 0.00 0.00 0.00
0.01 0.00 0.00 0.00 0.00 0.00 0.00 0.00 0.00 0.00 0.00 0.00 0.00 0.00 0.00 0.00 0.00 0.00 0.00 0.00 0.00 0.00 0.00 0.00 0.00 0.00 0.00 0.00 0.00 0.00 0.00 0.00 0.00
0.08 0.04 0.01 0.00 0.00 0.00 0.00 0.00 0.00 0.00 0.00 0.00 0.00 0.00 0.00 0.00 0.00 0.00 0.00 0.00 0.00 0.00 0.00 0.00 0.00 0.00 0.00 0.00 0.00 0.00 0.00 0.00 0.00
0.05 0.07 0.09 0.02 0.00 0.00 0.00 0.00 0.00 0.00 0.00 0.00 0.00 0.00 0.00 0.00 0.00 0.00 0.00 0.00 0.00 0.00 0.00 0.00 0.00 0.00 0.00 0.00 0.00 0.00 0.00 0.00 0.00
0.05 0.11 0.15 0.15 0.06 0.02 0.03 0.02 0.01 0.01 0.00 0.00 0.00 0.00 0.00 0.00 0.00 0.00 0.00 0.00 0.00 0.00 0.00 0.00 0.00 0.00 0.00 0.00 0.00 0.00 0.00 0.00 0.00
0.16 0.15 0.20 0.24 0.16 0.08 0.05 0.07 0.05 0.01 0.01 0.01 0.00 0.00 0.00 0.00 0.00 0.00 0.00 0.00 0.00 0.00 0.00 0.00 0.00 0.00 0.00 0.00 0.00 0.00 0.00 0.00 0.00
0.22 0.20 0.26 0.21 0.19 0.23 0.20 0.11 0.08 0.05 0.02 0.04 0.03 0.01 0.00 0.00 0.00 0.00 0.00 0.00 0.00 0.00 0.00 0.00 0.00 0.00 0.00 0.00 0.00 0.00 0.00 0.00 0.00

GFSFLT1_prec_precacc_045.txt.gz
Total_Precipitation_Accumulation
0.04 0.01 0.00 0.00 0.00 0.00 0.00 0.00 0.00 0.00 0.00 0.00 0.00 0.01 0.01 0.00 0.00 0.00 0.00 0.01 0.05 0.02 0.03 0.07 0.14 0.17 0.19 0.17 0.18 0.19 0.14 0.10 0.10
0.08 0.03 0.00 0.00 0.00 0.00 0.00 0.00 0.00 0.00 0.00 0.00 0.00 0.00 0.00 0.00 0.00 0.00 0.00 0.01 0.02 0.01 0.02 0.06 0.08 0.09 0.16 0.21 0.22 0.22 0.23 0.29 0.28
0.07 0.04 0.00 0.00 0.00 0.00 0.00 0.01 0.01 0.01 0.01 0.00 0.00 0.00 0.00 0.00 0.00 0.00 0.00 0.00 0.00 0.01 0.02 0.04 0.05 0.05 0.07 0.08 0.07 0.08 0.15 0.22 0.23
0.05 0.03 0.00 0.00 0.01 0.00 0.03 0.04 0.01 0.01 0.00 0.00 0.00 0.00 0.00 0.00 0.00 0.00 0.00 0.00 0.00 0.03 0.06 0.08 0.08 0.08 0.11 0.11 0.10 0.10 0.11 0.12 0.13
0.01 0.00 0.00 0.01 0.01 0.03 0.04 0.01 0.01 0.01 0.00 0.00 0.00 0.00 0.00 0.00 0.00 0.00 0.00 0.00 0.04 0.13 0.13 0.12 0.10 0.11 0.11 0.11 0.13 0.13 0.15 0.15 0.14
0.00 0.00 0.00 0.00 0.02 0.03 0.00 0.01 0.02 0.01 0.00 0.00 0.00 0.00 0.00 0.00 0.00 0.00 0.01 0.05 0.11 0.09 0.06 0.05 0.07 0.07 0.09 0.12 0.11 0.11 0.13 0.16 0.14
0.00 0.00 0.00 0.00 0.02 0.00 0.00 0.01 0.01 0.00 0.00 0.00 0.00 0.00 0.00 0.00 0.00 0.00 0.02 0.04 0.03 0.03 0.03 0.05 0.04 0.04 0.05 0.05 0.05 0.05 0.08 0.12 0.16
0.00 0.00 0.00 0.00 0.00 0.00 0.00 0.00 0.00 0.00 0.00 0.00 0.00 0.00 0.00 0.00 0.00 0.00 0.04 0.02 0.01 0.01 0.01 0.01 0.01 0.01 0.02 0.01 0.01 0.06 0.07 0.11 0.15
0.00 0.00 0.00 0.00 0.00 0.00 0.00 0.00 0.00 0.00 0.00 0.00 0.00 0.00 0.00 0.00 0.00 0.00 0.00 0.00 0.00 0.00 0.00 0.00 0.00 0.00 0.01 0.00 0.03 0.08 0.11 0.11 0.10
0.00 0.00 0.00 0.00 0.00 0.00 0.00 0.00 0.00 0.00 0.00 0.00 0.00 0.00 0.00 0.00 0.00 0.00 0.00 0.00 0.00 0.00 0.00 0.00 0.00 0.00 0.00 0.01 0.04 0.04 0.03 0.02 0.03
0.00 0.00 0.00 0.00 0.00 0.00 0.00 0.00 0.00 0.00 0.00 0.00 0.00 0.00 0.00 0.00 0.00 0.00 0.00 0.00 0.00 0.00 0.00 0.00 0.00 0.00 0.00 0.00 0.00 0.00 0.00 0.00 0.01
0.00 0.00 0.00 0.00 0.00 0.00 0.00 0.00 0.00 0.00 0.00 0.00 0.00 0.00 0.00 0.00 0.00 0.00 0.00 0.00 0.00 0.00 0.00 0.00 0.00 0.00 0.00 0.00 0.00 0.00 0.00 0.00 0.00
0.00 0.00 0.00 0.00 0.00 0.00 0.00 0.00 0.00 0.00 0.00 0.00 0.00 0.00 0.00 0.00 0.00 0.00 0.00 0.00 0.00 0.00 0.00 0.00 0.00 0.00 0.00 0.00 0.00 0.00 0.00 0.00 0.00
0.00 0.00 0.00 0.00 0.00 0.00 0.00 0.00 0.00 0.00 0.00 0.00 0.00 0.00 0.00 0.00 0.00 0.00 0.00 0.00 0.00 0.00 0.00 0.00 0.00 0.00 0.00 0.00 0.00 0.00 0.00 0.00 0.00
0.01 0.00 0.00 0.00 0.00 0.00 0.00 0.00 0.00 0.00 0.00 0.00 0.00 0.00 0.00 0.00 0.00 0.00 0.00 0.00 0.00 0.00 0.00 0.00 0.00 0.00 0.00 0.00 0.00 0.00 0.00 0.00 0.00
0.09 0.05 0.02 0.00 0.00 0.00 0.00 0.00 0.00 0.00 0.00 0.00 0.00 0.00 0.00 0.00 0.00 0.00 0.00 0.00 0.00 0.00 0.00 0.00 0.00 0.00 0.00 0.00 0.00 0.00 0.00 0.00 0.00
0.08 0.08 0.10 0.04 0.01 0.00 0.00 0.01 0.01 0.00 0.01 0.01 0.00 0.00 0.00 0.00 0.00 0.00 0.00 0.00 0.00 0.00 0.00 0.00 0.00 0.00 0.00 0.00 0.00 0.00 0.00 0.00 0.00
0.11 0.16 0.18 0.19 0.11 0.04 0.05 0.09 0.08 0.05 0.04 0.02 0.01 0.00 0.00 0.00 0.00 0.00 0.00 0.00 0.00 0.00 0.00 0.00 0.00 0.00 0.00 0.00 0.00 0.00 0.00 0.00 0.00
0.17 0.17 0.25 0.29 0.21 0.14 0.09 0.14 0.12 0.07 0.05 0.04 0.01 0.01 0.00 0.00 0.00 0.00 0.00 0.00 0.00 0.00 0.00 0.00 0.00 0.00 0.00 0.00 0.00 0.00 0.00 0.00 0.00
0.22 0.20 0.27 0.26 0.24 0.26 0.28 0.20 0.16 0.10 0.08 0.09 0.07 0.04 0.02 0.00 0.00 0.01 0.02 0.01 0.01 0.00 0.00 0.00 0.00 0.00 0.00 0.00 0.00 0.00 0.00 0.00 0.00

GFSFLT1_prec_precacc_048.txt.gz
Total_Precipitation_Accumulation
0.05 0.01 0.00 0.00 0.00 0.00 0.00 0.00 0.00 0.00 0.00 0.00 0.00 0.01 0.01 0.00 0.00 0.00 0.00 0.01 0.06 0.03 0.04 0.08 0.15 0.19 0.19 0.17 0.20 0.22 0.17 0.16 0.14
0.08 0.03 0.00 0.00 0.00 0.00 0.00 0.00 0.00 0.00 0.00 0.00 0.00 0.00 0.00 0.00 0.00 0.00 0.00 0.01 0.03 0.02 0.03 0.06 0.08 0.09 0.16 0.21 0.22 0.23 0.25 0.31 0.30
0.07 0.04 0.00 0.00 0.00 0.00 0.00 0.01 0.01 0.01 0.01 0.00 0.00 0.00 0.00 0.00 0.00 0.00 0.00 0.00 0.00 0.01 0.02 0.04 0.05 0.05 0.07 0.08 0.07 0.08 0.15 0.22 0.24
0.05 0.03 0.00 0.00 0.01 0.00 0.03 0.04 0.01 0.01 0.00 0.00 0.00 0.00 0.00 0.00 0.00 0.00 0.00 0.00 0.00 0.03 0.06 0.08 0.08 0.08 0.11 0.11 0.10 0.10 0.11 0.12 0.13
0.01 0.00 0.00 0.01 0.01 0.03 0.04 0.01 0.01 0.01 0.00 0.00 0.00 0.00 0.00 0.00 0.00 0.00 0.00 0.00 0.05 0.13 0.13 0.12 0.10 0.11 0.11 0.11 0.13 0.13 0.15 0.15 0.14
0.00 0.00 0.00 0.00 0.03 0.03 0.00 0.01 0.02 0.01 0.00 0.00 0.00 0.00 0.00 0.00 0.00 0.00 0.01 0.06 0.11 0.09 0.06 0.05 0.07 0.07 0.09 0.12 0.11 0.11 0.13 0.16 0.14
0.00 0.00 0.00 0.00 0.02 0.00 0.00 0.01 0.01 0.00 0.00 0.00 0.00 0.00 0.00 0.00 0.00 0.00 0.02 0.05 0.03 0.03 0.03 0.05 0.04 0.04 0.05 0.05 0.05 0.05 0.08 0.12 0.16
0.00 0.00 0.00 0.00 0.00 0.00 0.00 0.00 0.00 0.00 0.00 0.00 0.00 0.00 0.00 0.00 0.00 0.00 0.04 0.02 0.01 0.01 0.01 0.01 0.01 0.01 0.02 0.01 0.01 0.06 0.07 0.11 0.15
0.00 0.00 0.00 0.00 0.00 0.00 0.00 0.00 0.00 0.00 0.00 0.00 0.00 0.00 0.00 0.00 0.00 0.00 0.00 0.00 0.00 0.00 0.00 0.00 0.00 0.00 0.01 0.00 0.03 0.08 0.11 0.11 0.10
0.00 0.00 0.00 0.00 0.00 0.00 0.00 0.00 0.00 0.00 0.00 0.00 0.00 0.00 0.00 0.00 0.00 0.00 0.00 0.00 0.00 0.00 0.00 0.00 0.00 0.00 0.00 0.01 0.04 0.04 0.03 0.02 0.03
0.00 0.00 0.00 0.00 0.00 0.00 0.00 0.00 0.00 0.00 0.00 0.00 0.00 0.00 0.00 0.00 0.00 0.00 0.00 0.00 0.00 0.00 0.00 0.00 0.00 0.00 0.00 0.00 0.00 0.00 0.00 0.00 0.01
0.00 0.00 0.00 0.00 0.00 0.00 0.00 0.00 0.00 0.00 0.00 0.00 0.00 0.00 0.00 0.00 0.00 0.00 0.00 0.00 0.00 0.00 0.00 0.00 0.00 0.00 0.00 0.00 0.00 0.00 0.00 0.00 0.00
0.00 0.00 0.00 0.00 0.00 0.00 0.00 0.00 0.00 0.00 0.00 0.00 0.00 0.00 0.00 0.00 0.00 0.00 0.00 0.00 0.00 0.00 0.00 0.00 0.00 0.00 0.00 0.00 0.00 0.00 0.00 0.00 0.00
0.00 0.00 0.00 0.00 0.00 0.00 0.00 0.00 0.00 0.00 0.00 0.00 0.00 0.00 0.00 0.00 0.00 0.00 0.00 0.00 0.00 0.00 0.00 0.00 0.00 0.00 0.00 0.00 0.00 0.00 0.00 0.00 0.00
0.02 0.01 0.00 0.00 0.00 0.00 0.00 0.00 0.00 0.00 0.00 0.00 0.00 0.00 0.00 0.00 0.00 0.00 0.00 0.00 0.00 0.00 0.00 0.00 0.00 0.00 0.00 0.00 0.00 0.00 0.00 0.00 0.00
0.10 0.05 0.03 0.01 0.00 0.00 0.00 0.00 0.00 0.00 0.01 0.00 0.00 0.00 0.00 0.00 0.00 0.00 0.00 0.00 0.00 0.00 0.00 0.00 0.00 0.00 0.00 0.00 0.00 0.00 0.00 0.00 0.00
0.10 0.09 0.10 0.05 0.02 0.01 0.02 0.03 0.05 0.04 0.06 0.05 0.01 0.00 0.00 0.00 0.00 0.00 0.00 0.00 0.00 0.00 0.00 0.00 0.00 0.00 0.00 0.00 0.00 0.00 0.00 0.00 0.00
0.13 0.17 0.19 0.20 0.12 0.06 0.08 0.13 0.13 0.11 0.11 0.08 0.05 0.00 0.00 0.00 0.00 0.00 0.00 0.00 0.00 0.00 0.01 0.00 0.00 0.00 0.00 0.00 0.00 0.00 0.00 0.00 0.00
0.17 0.17 0.26 0.30 0.21 0.15 0.10 0.16 0.16 0.15 0.10 0.09 0.06 0.04 0.01 0.00 0.00 0.00 0.01 0.00 0.00 0.00 0.01 0.01 0.00 0.00 0.00 0.00 0.00 0.00 0.00 0.00 0.00
0.22 0.20 0.27 0.28 0.26 0.27 0.29 0.22 0.19 0.15 0.15 0.15 0.16 0.11 0.06 0.03 0.01 0.01 0.04 0.03 0.02 0.01 0.00 0.00 0.00 0.00 0.00 0.00 0.00 0.00 0.00 0.00 0.00

GFSFLT1_prec_precacc_051.txt.gz
Total_Precipitation_Accumulation
0.06 0.01 0.00 0.00 0.00 0.00 0.00 0.00 0.00 0.00 0.00 0.00 0.00 0.01 0.01 0.00 0.00 0.00 0.00 0.01 0.07 0.04 0.05 0.10 0.16 0.19 0.20 0.19 0.22 0.26 0.23 0.20 0.15
0.09 0.03 0.00 0.00 0.00 0.00 0.00 0.00 0.00 0.00 0.00 0.00 0.00 0.00 0.00 0.00 0.00 0.00 0.00 0.01 0.03 0.02 0.03 0.06 0.08 0.09 0.16 0.21 0.23 0.25 0.26 0.33 0.31
0.07 0.04 0.00 0.00 0.00 0.00 0.00 0.01 0.01 0.01 0.01 0.00 0.00 0.00 0.00 0.00 0.00 0.00 0.00 0.00 0.00 0.01 0.02 0.04 0.05 0.05 0.07 0.08 0.07 0.09 0.16 0.23 0.24
0.05 0.03 0.00 0.00 0.01 0.00 0.03 0.04 0.01 0.01 0.00 0.00 0.00 0.00 0.00 0.00 0.00 0.00 0.00 0.00 0.00 0.03 0.06 0.08 0.08 0.08 0.11 0.11 0.10 0.10 0.12 0.12 0.13
0.01 0.00 0.00 0.01 0.01 0.03 0.04 0.01 0.01 0.01 0.00 0.00 0.00 0.00 0.00 0.00 0.00 0.00 0.00 0.00 0.06 0.14 0.14 0.12 0.10 0.11 0.11 0.11 0.13 0.13 0.15 0.15 0.14
0.00 0.00 0.00 0.00 0.03 0.03 0.00 0.01 0.02 0.01 0.00 0.00 0.00 0.00 0.00 0.00 0.00 0.00 0.01 0.07 0.12 0.09 0.06 0.05 0.07 0.07 0.09 0.12 0.11 0.11 0.13 0.16 0.14
0.00 0.00 0.00 0.00 0.03 0.00 0.00 0.01 0.01 0.00 0.00 0.00 0.00 0.00 0.00 0.00 0.00 0.00 0.02 0.05 0.04 0.03 0.03 0.05 0.04 0.04 0.05 0.05 0.05 0.05 0.08 0.12 0.16
0.00 0.00 0.00 0.00 0.00 0.00 0.00 0.00 0.00 0.00 0.00 0.00 0.00 0.00 0.00 0.00 0.00 0.00 0.04 0.03 0.01 0.01 0.01 0.01 0.01 0.01 0.02 0.01 0.01 0.06 0.07 0.11 0.15
0.00 0.00 0.00 0.00 0.00 0.00 0.00 0.00 0.00 0.00 0.00 0.00 0.00 0.00 0.00 0.00 0.00 0.00 0.00 0.00 0.00 0.00 0.00 0.00 0.00 0.00 0.01 0.00 0.03 0.08 0.11 0.11 0.10
0.00 0.00 0.00 0.00 0.00 0.00 0.00 0.00 0.00 0.00 0.00 0.00 0.00 0.00 0.00 0.00 0.00 0.00 0.00 0.00 0.00 0.00 0.00 0.00 0.00 0.00 0.00 0.01 0.04 0.04 0.03 0.02 0.03
0.00 0.00 0.00 0.00 0.00 0.00 0.00 0.00 0.00 0.00 0.00 0.00 0.00 0.00 0.00 0.00 0.00 0.00 0.00 0.00 0.00 0.00 0.00 0.00 0.00 0.00 0.00 0.00 0.00 0.00 0.00 0.00 0.01
0.00 0.00 0.00 0.00 0.00 0.00 0.00 0.00 0.00 0.00 0.00 0.00 0.00 0.00 0.00 0.00 0.00 0.00 0.00 0.00 0.00 0.00 0.00 0.00 0.00 0.00 0.00 0.00 0.00 0.00 0.00 0.00 0.00
0.00 0.00 0.00 0.00 0.00 0.00 0.00 0.00 0.00 0.00 0.00 0.00 0.00 0.00 0.00 0.00 0.00 0.00 0.00 0.00 0.00 0.00 0.00 0.00 0.00 0.00 0.00 0.00 0.00 0.00 0.00 0.00 0.00
0.00 0.00 0.00 0.00 0.00 0.00 0.00 0.00 0.00 0.00 0.00 0.00 0.00 0.00 0.00 0.00 0.00 0.00 0.00 0.00 0.00 0.00 0.00 0.00 0.00 0.00 0.00 0.00 0.00 0.00 0.00 0.00 0.00
0.02 0.01 0.00 0.00 0.00 0.00 0.00 0.00 0.00 0.00 0.00 0.00 0.00 0.00 0.00 0.00 0.00 0.00 0.00 0.00 0.00 0.00 0.00 0.00 0.00 0.00 0.00 0.00 0.00 0.00 0.00 0.00 0.00
0.11 0.06 0.03 0.01 0.00 0.00 0.00 0.00 0.00 0.00 0.03 0.02 0.00 0.00 0.00 0.00 0.00 0.00 0.00 0.00 0.00 0.00 0.00 0.00 0.00 0.00 0.00 0.00 0.00 0.00 0.00 0.00 0.00
0.12 0.10 0.11 0.05 0.02 0.01 0.02 0.04 0.07 0.07 0.12 0.14 0.04 0.00 0.00 0.00 0.00 0.00 0.00 0.00 0.00 0.00 0.00 0.00 0.00 0.00 0.00 0.00 0.00 0.00 0.00 0.00 0.00
0.14 0.19 0.20 0.20 0.12 0.06 0.08 0.13 0.14 0.13 0.16 0.14 0.12 0.02 0.00 0.00 0.00 0.00 0.00 0.00 0.00 0.00 0.01 0.01 0.01 0.01 0.00 0.00 0.00 0.00 0.00 0.00 0.00
0.17 0.17 0.26 0.30 0.21 0.15 0.10 0.17 0.16 0.17 0.11 0.12 0.09 0.07 0.03 0.02 0.01 0.01 0.01 0.01 0.00 0.00 0.01 0.01 0.01 0.01 0.00 0.00 0.00 0.00 0.00 0.00 0.00
0.22 0.20 0.27 0.28 0.26 0.28 0.29 0.22 0.20 0.15 0.16 0.16 0.17 0.13 0.11 0.06 0.04 0.02 0.04 0.04 0.04 0.02 0.00 0.00 0.00 0.00 0.00 0.00 0.01 0.03 0.03 0.02 0.00

GFSFLT1_prec_precacc_054.txt.gz
Total_Precipitation_Accumulation
0.07 0.02 0.00 0.00 0.00 0.00 0.00 0.00 0.00 0.00 0.00 0.00 0.00 0.01 0.01 0.00 0.00 0.00 0.00 0.01 0.08 0.05 0.07 0.11 0.16 0.19 0.21 0.22 0.26 0.32 0.29 0.21 0.15
0.09 0.03 0.00 0.00 0.00 0.00 0.00 0.00 0.00 0.00 0.00 0.00 0.00 0.00 0.00 0.00 0.00 0.00 0.00 0.01 0.04 0.02 0.03 0.06 0.08 0.09 0.16 0.22 0.24 0.25 0.28 0.36 0.32
0.08 0.04 0.00 0.00 0.00 0.00 0.00 0.01 0.01 0.01 0.01 0.00 0.00 0.00 0.00 0.00 0.00 0.00 0.00 0.00 0.00 0.01 0.02 0.04 0.05 0.05 0.07 0.09 0.08 0.09 0.16 0.24 0.26
0.06 0.03 0.00 0.00 0.01 0.00 0.03 0.04 0.01 0.01 0.00 0.00 0.00 0.00 0.00 0.00 0.00 0.00 0.00 0.00 0.01 0.03 0.06 0.08 0.08 0.08 0.11 0.11 0.10 0.10 0.12 0.12 0.14
0.01 0.00 0.00 0.01 0.01 0.03 0.04 0.01 0.01 0.01 0.00 0.00 0.00 0.00 0.00 0.00 0.00 0.00 0.00 0.00 0.07 0.14 0.14 0.12 0.10 0.11 0.11 0.11 0.13 0.13 0.15 0.16 0.14
0.00 0.00 0.00 0.00 0.03 0.03 0.00 0.01 0.02 0.01 0.00 0.00 0.00 0.00 0.00 0.00 0.00 0.00 0.01 0.07 0.13 0.09 0.06 0.05 0.07 0.07 0.09 0.12 0.11 0.11 0.13 0.17 0.15
0.00 0.00 0.00 0.00 0.03 0.00 0.00 0.01 0.01 0.00 0.00 0.00 0.00 0.00 0.00 0.00 0.00 0.00 0.02 0.06 0.06 0.03 0.03 0.05 0.04 0.04 0.05 0.05 0.05 0.05 0.08 0.12 0.16
0.00 0.00 0.00 0.00 0.00 0.00 0.00 0.00 0.00 0.00 0.00 0.00 0.00 0.00 0.00 0.00 0.00 0.00 0.04 0.04 0.02 0.01 0.01 0.01 0.01 0.01 0.02 0.01 0.01 0.06 0.07 0.11 0.15
0.00 0.00 0.00 0.00 0.00 0.00 0.00 0.00 0.00 0.00 0.00 0.00 0.00 0.00 0.00 0.00 0.00 0.00 0.00 0.00 0.00 0.00 0.00 0.00 0.00 0.00 0.01 0.00 0.03 0.08 0.11 0.11 0.10
0.00 0.00 0.00 0.00 0.00 0.00 0.00 0.00 0.00 0.00 0.00 0.00 0.00 0.00 0.00 0.00 0.00 0.00 0.00 0.00 0.00 0.00 0.00 0.00 0.00 0.00 0.00 0.01 0.04 0.04 0.03 0.02 0.03
0.00 0.00 0.00 0.00 0.00 0.00 0.00 0.00 0.00 0.00 0.00 0.00 0.00 0.00 0.00 0.00 0.00 0.00 0.00 0.00 0.00 0.00 0.00 0.00 0.00 0.00 0.00 0.00 0.00 0.00 0.00 0.00 0.01
0.00 0.00 0.00 0.00 0.00 0.00 0.00 0.00 0.00 0.00 0.00 0.00 0.00 0.00 0.00 0.00 0.00 0.00 0.00 0.00 0.00 0.00 0.00 0.00 0.00 0.00 0.00 0.00 0.00 0.00 0.00 0.00 0.00
0.00 0.00 0.00 0.00 0.00 0.00 0.00 0.00 0.00 0.00 0.00 0.00 0.00 0.00 0.00 0.00 0.00 0.00 0.00 0.00 0.00 0.00 0.00 0.00 0.00 0.00 0.00 0.00 0.00 0.00 0.00 0.00 0.00
0.00 0.00 0.00 0.00 0.00 0.00 0.00 0.00 0.00 0.00 0.00 0.00 0.00 0.00 0.00 0.00 0.00 0.00 0.00 0.00 0.00 0.00 0.00 0.00 0.00 0.00 0.00 0.00 0.00 0.00 0.00 0.00 0.00
0.02 0.01 0.00 0.00 0.00 0.00 0.00 0.00 0.00 0.00 0.00 0.00 0.00 0.00 0.00 0.00 0.00 0.00 0.00 0.00 0.00 0.00 0.00 0.00 0.00 0.00 0.00 0.00 0.00 0.00 0.00 0.00 0.00
0.11 0.06 0.03 0.01 0.00 0.00 0.00 0.00 0.00 0.00 0.03 0.02 0.00 0.00 0.00 0.00 0.00 0.00 0.00 0.00 0.00 0.00 0.00 0.00 0.00 0.00 0.00 0.00 0.00 0.00 0.00 0.00 0.00
0.12 0.10 0.11 0.05 0.02 0.01 0.02 0.04 0.07 0.07 0.13 0.16 0.04 0.00 0.00 0.00 0.00 0.00 0.00 0.00 0.00 0.00 0.00 0.00 0.00 0.00 0.00 0.00 0.00 0.00 0.00 0.00 0.00
0.14 0.19 0.21 0.21 0.12 0.06 0.08 0.13 0.14 0.14 0.16 0.15 0.14 0.02 0.00 0.00 0.00 0.00 0.00 0.00 0.00 0.00 0.01 0.01 0.01 0.01 0.00 0.00 0.00 0.00 0.00 0.00 0.00
0.17 0.17 0.26 0.30 0.21 0.15 0.10 0.17 0.17 0.17 0.11 0.12 0.09 0.08 0.03 0.03 0.02 0.01 0.01 0.01 0.00 0.00 0.01 0.01 0.01 0.01 0.00 0.00 0.00 0.00 0.01 0.02 0.03
0.22 0.20 0.27 0.28 0.26 0.28 0.29 0.22 0.20 0.15 0.17 0.16 0.17 0.13 0.11 0.07 0.05 0.02 0.04 0.05 0.04 0.02 0.01 0.00 0.00 0.00 0.00 0.00 0.01 0.05 0.07 0.09 0.08

GFSFLT1_prec_precacc_057.txt.gz
Total_Precipitation_Accumulation
0.08 0.02 0.00 0.00 0.00 0.00 0.00 0.00 0.00 0.00 0.00 0.00 0.00 0.01 0.01 0.00 0.00 0.00 0.00 0.02 0.10 0.07 0.08 0.11 0.17 0.20 0.24 0.25 0.31 0.36 0.32 0.21 0.15
0.10 0.03 0.00 0.00 0.00 0.00 0.00 0.00 0.00 0.00 0.00 0.00 0.00 0.00 0.00 0.00 0.00 0.00 0.00 0.01 0.05 0.03 0.03 0.06 0.08 0.09 0.16 0.22 0.24 0.26 0.30 0.38 0.33
0.09 0.04 0.00 0.00 0.00 0.00 0.00 0.01 0.01 0.01 0.01 0.00 0.00 0.00 0.00 0.00 0.00 0.00 0.00 0.00 0.00 0.01 0.02 0.04 0.05 0.05 0.07 0.09 0.08 0.09 0.16 0.26 0.29
0.07 0.04 0.00 0.00 0.01 0.00 0.03 0.04 0.01 0.01 0.00 0.00 0.00 0.00 0.00 0.00 0.00 0.00 0.00 0.00 0.01 0.03 0.06 0.08 0.08 0.08 0.11 0.11 0.10 0.10 0.12 0.12 0.14
0.01 0.00 0.00 0.01 0.01 0.03 0.04 0.01 0.01 0.01 0.00 0.00 0.00 0.00 0.00 0.00 0.00 0.00 0.00 0.00 0.07 0.14 0.14 0.12 0.10 0.11 0.11 0.11 0.13 0.13 0.15 0.16 0.14
0.00 0.00 0.00 0.00 0.03 0.03 0.00 0.01 0.02 0.01 0.00 0.00 0.00 0.00 0.00 0.00 0.00 0.00 0.01 0.07 0.14 0.10 0.06 0.05 0.07 0.07 0.09 0.12 0.11 0.11 0.13 0.17 0.15
0.00 0.00 0.00 0.00 0.03 0.00 0.00 0.01 0.01 0.00 0.00 0.00 0.00 0.00 0.00 0.00 0.00 0.00 0.02 0.06 0.08 0.03 0.03 0.05 0.04 0.04 0.05 0.05 0.05 0.05 0.08 0.12 0.16
0.00 0.00 0.00 0.00 0.00 0.00 0.00 0.00 0.00 0.00 0.00 0.00 0.00 0.00 0.00 0.00 0.00 0.00 0.04 0.04 0.05 0.01 0.01 0.01 0.01 0.01 0.02 0.01 0.01 0.06 0.07 0.11 0.15
0.00 0.00 0.00 0.00 0.00 0.00 0.00 0.00 0.00 0.00 0.00 0.00 0.00 0.00 0.00 0.00 0.00 0.00 0.00 0.00 0.01 0.00 0.00 0.00 0.00 0.00 0.01 0.00 0.03 0.08 0.11 0.11 0.10
0.00 0.00 0.00 0.00 0.00 0.00 0.00 0.00 0.00 0.00 0.00 0.00 0.00 0.00 0.00 0.00 0.00 0.00 0.00 0.00 0.00 0.00 0.00 0.00 0.00 0.00 0.00 0.01 0.04 0.04 0.03 0.02 0.03
0.00 0.00 0.00 0.00 0.00 0.00 0.00 0.00 0.00 0.00 0.00 0.00 0.00 0.00 0.00 0.00 0.00 0.00 0.00 0.00 0.00 0.00 0.00 0.00 0.00 0.00 0.00 0.00 0.00 0.00 0.00 0.00 0.01
0.00 0.00 0.00 0.00 0.00 0.00 0.00 0.00 0.00 0.00 0.00 0.00 0.00 0.00 0.00 0.00 0.00 0.00 0.00 0.00 0.00 0.00 0.00 0.00 0.00 0.00 0.00 0.00 0.00 0.00 0.00 0.00 0.00
0.00 0.00 0.00 0.00 0.00 0.00 0.00 0.00 0.00 0.00 0.00 0.00 0.00 0.00 0.00 0.00 0.00 0.00 0.00 0.00 0.00 0.00 0.00 0.00 0.00 0.00 0.00 0.00 0.00 0.00 0.00 0.00 0.00
0.00 0.00 0.00 0.00 0.00 0.00 0.00 0.00 0.00 0.00 0.00 0.00 0.00 0.00 0.00 0.00 0.00 0.00 0.00 0.00 0.00 0.00 0.00 0.00 0.00 0.00 0.00 0.00 0.00 0.00 0.00 0.00 0.00
0.02 0.01 0.00 0.00 0.00 0.00 0.00 0.00 0.00 0.00 0.00 0.00 0.00 0.00 0.00 0.00 0.00 0.00 0.01 0.01 0.00 0.00 0.00 0.00 0.00 0.00 0.00 0.00 0.00 0.00 0.00 0.00 0.00
0.11 0.06 0.03 0.01 0.00 0.00 0.00 0.00 0.00 0.00 0.03 0.02 0.00 0.00 0.00 0.00 0.00 0.00 0.02 0.01 0.01 0.00 0.00 0.00 0.00 0.00 0.00 0.00 0.00 0.00 0.00 0.00 0.00
0.12 0.10 0.11 0.06 0.02 0.01 0.02 0.04 0.07 0.07 0.13 0.16 0.04 0.00 0.00 0.00 0.00 0.00 0.00 0.00 0.00 0.00 0.00 0.00 0.00 0.00 0.00 0.00 0.00 0.00 0.00 0.01 0.02
0.15 0.20 0.21 0.21 0.13 0.06 0.08 0.13 0.14 0.14 0.16 0.15 0.14 0.02 0.00 0.00 0.00 0.00 0.00 0.00 0.00 0.00 0.01 0.01 0.01 0.01 0.00 0.00 0.00 0.00 0.00 0.00 0.01
0.17 0.17 0.26 0.30 0.21 0.15 0.10 0.17 0.17 0.17 0.11 0.12 0.09 0.08 0.04 0.04 0.02 0.01 0.01 0.01 0.00 0.00 0.01 0.01 0.01 0.01 0.00 0.00 0.00 0.00 0.01 0.02 0.05
0.22 0.20 0.27 0.28 0.26 0.28 0.29 0.22 0.20 0.15 0.17 0.16 0.17 0.13 0.12 0.07 0.06 0.03 0.04 0.05 0.04 0.02 0.01 0.00 0.00 0.00 0.00 0.00 0.01 0.05 0.07 0.09 0.12

GFSFLT1_prec_precacc_060.txt.gz
Total_Precipitation_Accumulation
0.08 0.02 0.00 0.00 0.00 0.00 0.00 0.00 0.00 0.00 0.00 0.00 0.00 0.01 0.01 0.00 0.00 0.00 0.01 0.03 0.11 0.07 0.08 0.11 0.17 0.20 0.25 0.27 0.32 0.37 0.34 0.21 0.15
0.10 0.03 0.00 0.00 0.00 0.00 0.00 0.00 0.00 0.00 0.00 0.00 0.00 0.00 0.00 0.00 0.00 0.00 0.00 0.01 0.05 0.03 0.03 0.06 0.08 0.09 0.16 0.22 0.24 0.26 0.31 0.39 0.34
0.09 0.04 0.00 0.00 0.00 0.00 0.00 0.01 0.01 0.01 0.01 0.00 0.00 0.00 0.00 0.00 0.00 0.00 0.00 0.00 0.00 0.01 0.02 0.04 0.05 0.05 0.07 0.09 0.08 0.09 0.16 0.26 0.30
0.08 0.04 0.00 0.00 0.01 0.00 0.03 0.04 0.01 0.01 0.00 0.00 0.00 0.00 0.00 0.00 0.00 0.00 0.00 0.00 0.01 0.03 0.06 0.08 0.08 0.08 0.11 0.11 0.10 0.10 0.12 0.12 0.14
0.01 0.00 0.00 0.01 0.01 0.03 0.04 0.01 0.01 0.01 0.00 0.00 0.00 0.00 0.00 0.00 0.00 0.00 0.00 0.00 0.07 0.14 0.14 0.12 0.10 0.11 0.11 0.11 0.13 0.13 0.15 0.16 0.14
0.00 0.00 0.00 0.00 0.03 0.03 0.00 0.01 0.02 0.01 0.00 0.00 0.00 0.00 0.00 0.00 0.00 0.00 0.01 0.07 0.15 0.10 0.06 0.05 0.07 0.07 0.09 0.12 0.11 0.11 0.13 0.17 0.15
0.00 0.00 0.00 0.00 0.03 0.00 0.00 0.01 0.01 0.00 0.00 0.00 0.00 0.00 0.00 0.00 0.00 0.00 0.02 0.06 0.08 0.05 0.03 0.05 0.04 0.04 0.05 0.05 0.05 0.05 0.08 0.12 0.16
0.00 0.00 0.00 0.00 0.00 0.00 0.00 0.00 0.00 0.00 0.00 0.00 0.00 0.00 0.00 0.00 0.00 0.00 0.04 0.04 0.05 0.01 0.01 0.01 0.01 0.01 0.02 0.01 0.01 0.06 0.07 0.11 0.15
0.00 0.00 0.00 0.00 0.00 0.00 0.00 0.00 0.00 0.00 0.00 0.00 0.00 0.00 0.00 0.00 0.00 0.00 0.00 0.00 0.01 0.00 0.00 0.00 0.00 0.00 0.01 0.00 0.03 0.08 0.11 0.11 0.10
0.00 0.00 0.00 0.00 0.00 0.00 0.00 0.00 0.00 0.00 0.00 0.00 0.00 0.00 0.00 0.00 0.00 0.00 0.00 0.00 0.00 0.00 0.00 0.00 0.00 0.00 0.00 0.01 0.04 0.04 0.03 0.02 0.03
0.00 0.00 0.00 0.00 0.00 0.00 0.00 0.00 0.00 0.00 0.00 0.00 0.00 0.00 0.00 0.00 0.00 0.00 0.00 0.00 0.00 0.00 0.00 0.00 0.00 0.00 0.00 0.00 0.00 0.00 0.00 0.00 0.01
0.00 0.00 0.00 0.00 0.00 0.00 0.00 0.00 0.00 0.00 0.00 0.00 0.00 0.00 0.00 0.00 0.00 0.00 0.00 0.00 0.00 0.00 0.00 0.00 0.00 0.00 0.00 0.00 0.00 0.00 0.00 0.00 0.00
0.00 0.00 0.00 0.00 0.00 0.00 0.00 0.00 0.00 0.00 0.00 0.00 0.00 0.00 0.00 0.00 0.00 0.00 0.00 0.00 0.00 0.00 0.00 0.00 0.00 0.00 0.00 0.00 0.00 0.00 0.00 0.00 0.00
0.00 0.00 0.00 0.00 0.00 0.00 0.00 0.00 0.00 0.00 0.00 0.00 0.00 0.00 0.00 0.00 0.00 0.00 0.00 0.00 0.00 0.00 0.00 0.00 0.00 0.00 0.00 0.01 0.01 0.00 0.00 0.00 0.00
0.02 0.01 0.00 0.00 0.00 0.00 0.00 0.00 0.00 0.00 0.00 0.00 0.00 0.00 0.00 0.00 0.00 0.00 0.01 0.01 0.01 0.00 0.00 0.00 0.00 0.00 0.00 0.00 0.00 0.01 0.01 0.00 0.00
0.11 0.06 0.03 0.01 0.00 0.01 0.00 0.00 0.00 0.00 0.03 0.02 0.00 0.00 0.00 0.00 0.00 0.00 0.02 0.01 0.01 0.00 0.00 0.00 0.00 0.00 0.00 0.00 0.00 0.00 0.01 0.03 0.02
0.12 0.10 0.11 0.06 0.02 0.02 0.02 0.05 0.07 0.07 0.13 0.16 0.04 0.00 0.00 0.00 0.00 0.00 0.00 0.00 0.00 0.00 0.00 0.00 0.00 0.00 0.00 0.00 0.00 0.00 0.01 0.03 0.07
0.15 0.20 0.21 0.21 0.13 0.06 0.08 0.14 0.15 0.15 0.16 0.15 0.14 0.02 0.00 0.00 0.00 0.00 0.00 0.00 0.00 0.00 0.01 0.01 0.01 0.01 0.00 0.00 0.00 0.00 0.01 0.02 0.03
0.17 0.17 0.26 0.30 0.22 0.15 0.10 0.17 0.17 0.18 0.12 0.12 0.09 0.08 0.04 0.04 0.03 0.01 0.01 0.01 0.00 0.00 0.01 0.01 0.01 0.01 0.00 0.00 0.00 0.00 0.01 0.03 0.06
0.22 0.20 0.27 0.28 0.26 0.28 0.29 0.22 0.20 0.15 0.18 0.17 0.18 0.14 0.12 0.07 0.06 0.03 0.05 0.05 0.04 0.02 0.01 0.00 0.00 0.00 0.00 0.00 0.01 0.05 0.07 0.09 0.13

GFSFLT1_prec_precacc_063.txt.gz
Total_Precipitation_Accumulation
0.08 0.02 0.00 0.00 0.00 0.00 0.00 0.00 0.00 0.00 0.00 0.00 0.00 0.01 0.01 0.00 0.00 0.00 0.01 0.03 0.11 0.07 0.08 0.11 0.17 0.20 0.25 0.27 0.33 0.37 0.34 0.22 0.15
0.10 0.03 0.00 0.00 0.00 0.00 0.00 0.00 0.00 0.00 0.00 0.00 0.00 0.00 0.00 0.00 0.00 0.00 0.00 0.01 0.05 0.03 0.03 0.06 0.08 0.09 0.16 0.22 0.24 0.26 0.31 0.40 0.35
0.09 0.04 0.00 0.00 0.00 0.00 0.00 0.01 0.01 0.01 0.01 0.00 0.00 0.00 0.00 0.00 0.00 0.00 0.00 0.00 0.00 0.01 0.02 0.04 0.05 0.05 0.07 0.09 0.08 0.09 0.16 0.26 0.31
0.08 0.04 0.00 0.00 0.01 0.00 0.03 0.04 0.01 0.01 0.00 0.00 0.00 0.00 0.00 0.00 0.00 0.00 0.00 0.00 0.01 0.03 0.06 0.08 0.08 0.08 0.11 0.11 0.10 0.10 0.12 0.12 0.14
0.01 0.00 0.00 0.01 0.01 0.03 0.04 0.01 0.01 0.01 0.00 0.00 0.00 0.00 0.00 0.00 0.00 0.00 0.00 0.00 0.07 0.14 0.14 0.12 0.10 0.11 0.11 0.11 0.13 0.13 0.15 0.16 0.14
0.00 0.00 0.00 0.00 0.03 0.03 0.00 0.01 0.02 0.01 0.00 0.00 0.00 0.00 0.00 0.00 0.00 0.00 0.01 0.07 0.15 0.10 0.06 0.05 0.07 0.07 0.09 0.12 0.11 0.11 0.13 0.17 0.15
0.00 0.00 0.00 0.00 0.03 0.00 0.00 0.01 0.01 0.00 0.00 0.00 0.00 0.00 0.00 0.00 0.00 0.00 0.02 0.06 0.08 0.05 0.03 0.05 0.04 0.04 0.05 0.05 0.05 0.05 0.08 0.12 0.16
0.00 0.00 0.00 0.00 0.00 0.00 0.00 0.00 0.00 0.00 0.00 0.00 0.00 0.00 0.00 0.00 0.00 0.00 0.04 0.04 0.05 0.01 0.01 0.01 0.01 0.01 0.02 0.01 0.01 0.06 0.07 0.11 0.15
0.00 0.00 0.00 0.00 0.00 0.00 0.00 0.00 0.00 0.00 0.00 0.00 0.00 0.00 0.00 0.00 0.00 0.00 0.00 0.00 0.01 0.00 0.00 0.00 0.00 0.00 0.01 0.00 0.03 0.08 0.11 0.11 0.10
0.00 0.00 0.00 0.00 0.00 0.00 0.00 0.00 0.00 0.00 0.00 0.00 0.00 0.00 0.00 0.00 0.00 0.00 0.00 0.00 0.00 0.00 0.01 0.00 0.00 0.00 0.00 0.01 0.04 0.04 0.03 0.02 0.03
0.00 0.00 0.00 0.00 0.00 0.00 0.00 0.00 0.00 0.00 0.00 0.00 0.00 0.00 0.00 0.00 0.00 0.00 0.00 0.00 0.00 0.00 0.00 0.00 0.00 0.00 0.00 0.00 0.00 0.00 0.00 0.00 0.01
0.00 0.00 0.00 0.00 0.00 0.00 0.00 0.00 0.00 0.00 0.00 0.00 0.00 0.00 0.00 0.00 0.00 0.00 0.00 0.00 0.00 0.00 0.00 0.00 0.00 0.00 0.00 0.00 0.00 0.00 0.00 0.00 0.00
0.00 0.00 0.00 0.00 0.00 0.00 0.00 0.00 0.00 0.00 0.00 0.00 0.00 0.00 0.00 0.00 0.00 0.00 0.00 0.00 0.00 0.00 0.00 0.00 0.00 0.00 0.01 0.01 0.01 0.00 0.00 0.00 0.00
0.00 0.00 0.00 0.00 0.00 0.00 0.00 0.00 0.00 0.00 0.00 0.00 0.00 0.00 0.00 0.00 0.00 0.00 0.00 0.00 0.00 0.00 0.00 0.00 0.00 0.01 0.00 0.01 0.02 0.03 0.01 0.00 0.00
0.02 0.01 0.00 0.00 0.00 0.00 0.00 0.00 0.00 0.00 0.00 0.00 0.00 0.00 0.00 0.00 0.00 0.00 0.01 0.01 0.01 0.00 0.00 0.00 0.00 0.00 0.00 0.00 0.00 0.02 0.05 0.04 0.00
0.11 0.06 0.03 0.01 0.00 0.01 0.01 0.01 0.01 0.01 0.05 0.03 0.00 0.00 0.00 0.00 0.00 0.00 0.02 0.01 0.01 0.00 0.00 0.00 0.00 0.00 0.00 0.00 0.00 0.00 0.03 0.07 0.06
0.12 0.10 0.11 0.06 0.02 0.02 0.02 0.05 0.07 0.07 0.13 0.16 0.05 0.00 0.00 0.00 0.00 0.00 0.00 0.00 0.00 0.00 0.00 0.00 0.00 0.00 0.00 0.00 0.00 0.00 0.03 0.07 0.14
0.15 0.20 0.21 0.21 0.13 0.07 0.09 0.15 0.17 0.16 0.17 0.16 0.16 0.04 0.00 0.00 0.00 0.00 0.00 0.00 0.00 0.00 0.01 0.01 0.01 0.01 0.00 0.00 0.00 0.00 0.01 0.04 0.08
0.17 0.17 0.26 0.30 0.22 0.16 0.11 0.18 0.18 0.19 0.13 0.12 0.09 0.09 0.04 0.04 0.03 0.01 0.01 0.01 0.00 0.00 0.01 0.01 0.01 0.01 0.00 0.00 0.00 0.00 0.01 0.03 0.06
0.22 0.20 0.27 0.28 0.26 0.28 0.29 0.22 0.20 0.16 0.18 0.17 0.18 0.14 0.12 0.08 0.07 0.04 0.05 0.05 0.04 0.02 0.01 0.00 0.00 0.00 0.00 0.00 0.01 0.05 0.07 0.09 0.13

GFSFLT1_prec_precacc_066.txt.gz
Total_Precipitation_Accumulation
0.08 0.02 0.00 0.00 0.00 0.00 0.00 0.00 0.00 0.00 0.00 0.00 0.00 0.01 0.01 0.00 0.00 0.00 0.01 0.03 0.11 0.07 0.08 0.11 0.17 0.20 0.25 0.27 0.33 0.38 0.35 0.23 0.16
0.10 0.03 0.00 0.00 0.00 0.00 0.00 0.00 0.00 0.00 0.00 0.00 0.00 0.00 0.00 0.00 0.00 0.00 0.00 0.01 0.05 0.03 0.03 0.06 0.08 0.09 0.16 0.22 0.24 0.26 0.31 0.41 0.36
0.09 0.04 0.00 0.00 0.00 0.00 0.00 0.01 0.01 0.01 0.01 0.00 0.00 0.00 0.00 0.00 0.00 0.00 0.00 0.00 0.00 0.01 0.02 0.04 0.05 0.05 0.07 0.09 0.08 0.09 0.16 0.26 0.31
0.08 0.04 0.00 0.00 0.01 0.00 0.03 0.04 0.01 0.01 0.00 0.00 0.00 0.00 0.00 0.00 0.00 0.00 0.00 0.00 0.01 0.03 0.06 0.08 0.08 0.08 0.11 0.11 0.10 0.10 0.12 0.12 0.14
0.01 0.00 0.00 0.01 0.01 0.03 0.04 0.01 0.01 0.01 0.00 0.00 0.00 0.00 0.00 0.00 0.00 0.00 0.00 0.00 0.07 0.14 0.14 0.12 0.10 0.11 0.11 0.11 0.13 0.13 0.15 0.16 0.14
0.00 0.00 0.00 0.00 0.03 0.03 0.00 0.01 0.02 0.01 0.00 0.00 0.00 0.00 0.00 0.00 0.00 0.00 0.01 0.07 0.15 0.10 0.06 0.05 0.07 0.07 0.09 0.12 0.11 0.11 0.13 0.17 0.15
0.00 0.00 0.00 0.00 0.03 0.00 0.00 0.01 0.01 0.00 0.00 0.00 0.00 0.00 0.00 0.00 0.00 0.00 0.02 0.06 0.08 0.05 0.03 0.05 0.04 0.04 0.05 0.05 0.05 0.05 0.08 0.12 0.16
0.00 0.00 0.00 0.00 0.00 0.00 0.00 0.00 0.00 0.00 0.00 0.00 0.00 0.00 0.00 0.00 0.00 0.00 0.04 0.04 0.05 0.01 0.01 0.01 0.01 0.01 0.02 0.01 0.01 0.06 0.07 0.11 0.15
0.00 0.00 0.00 0.00 0.00 0.00 0.00 0.00 0.00 0.00 0.00 0.00 0.00 0.00 0.00 0.00 0.00 0.00 0.00 0.00 0.01 0.00 0.00 0.00 0.00 0.00 0.01 0.00 0.03 0.08 0.11 0.11 0.10
0.00 0.00 0.00 0.00 0.00 0.00 0.00 0.00 0.00 0.00 0.00 0.00 0.00 0.00 0.00 0.00 0.00 0.00 0.00 0.00 0.00 0.00 0.01 0.01 0.00 0.00 0.00 0.01 0.04 0.04 0.03 0.02 0.03
0.00 0.00 0.00 0.00 0.00 0.00 0.00 0.00 0.00 0.00 0.00 0.00 0.00 0.00 0.00 0.00 0.00 0.00 0.00 0.00 0.00 0.00 0.00 0.00 0.01 0.00 0.00 0.00 0.00 0.00 0.00 0.00 0.01
0.00 0.00 0.00 0.00 0.00 0.00 0.00 0.00 0.00 0.00 0.00 0.00 0.00 0.00 0.00 0.00 0.00 0.00 0.00 0.00 0.00 0.00 0.00 0.00 0.00 0.00 0.00 0.01 0.00 0.00 0.00 0.00 0.00
0.00 0.00 0.00 0.00 0.00 0.00 0.00 0.00 0.00 0.00 0.00 0.00 0.00 0.00 0.00 0.00 0.00 0.00 0.00 0.00 0.00 0.00 0.00 0.00 0.00 0.00 0.01 0.01 0.01 0.01 0.00 0.00 0.00
0.00 0.00 0.00 0.00 0.00 0.00 0.00 0.00 0.00 0.00 0.00 0.00 0.00 0.00 0.00 0.00 0.00 0.00 0.00 0.00 0.00 0.00 0.00 0.00 0.00 0.01 0.00 0.01 0.03 0.07 0.06 0.02 0.00
0.02 0.01 0.00 0.00 0.00 0.00 0.00 0.00 0.00 0.00 0.01 0.01 0.00 0.00 0.00 0.00 0.00 0.00 0.01 0.01 0.01 0.00 0.00 0.00 0.00 0.00 0.00 0.00 0.00 0.02 0.09 0.13 0.06
0.11 0.06 0.03 0.01 0.00 0.01 0.01 0.01 0.01 0.01 0.05 0.04 0.00 0.00 0.00 0.00 0.00 0.00 0.02 0.01 0.01 0.00 0.00 0.00 0.00 0.00 0.00 0.00 0.00 0.00 0.03 0.12 0.15
0.12 0.10 0.11 0.06 0.03 0.02 0.02 0.06 0.08 0.07 0.14 0.18 0.07 0.01 0.00 0.00 0.00 0.00 0.00 0.00 0.00 0.00 0.00 0.00 0.00 0.00 0.00 0.00 0.00 0.00 0.03 0.09 0.21
0.15 0.20 0.21 0.21 0.14 0.07 0.09 0.15 0.17 0.17 0.18 0.16 0.17 0.05 0.01 0.00 0.00 0.00 0.00 0.00 0.00 0.00 0.01 0.01 0.01 0.01 0.00 0.00 0.00 0.00 0.01 0.04 0.08
0.17 0.17 0.26 0.30 0.22 0.16 0.11 0.18 0.18 0.20 0.14 0.12 0.11 0.10 0.06 0.05 0.03 0.01 0.01 0.01 0.00 0.00 0.01 0.01 0.01 0.01 0.00 0.00 0.00 0.00 0.01 0.03 0.06
0.22 0.20 0.27 0.28 0.26 0.28 0.29 0.22 0.20 0.16 0.18 0.17 0.19 0.14 0.13 0.09 0.08 0.04 0.05 0.05 0.04 0.02 0.01 0.00 0.00 0.00 0.00 0.00 0.01 0.05 0.07 0.09 0.13

GFSFLT1_prec_precacc_072.txt.gz
Total_Precipitation_Accumulation
0.08 0.02 0.00 0.00 0.00 0.00 0.00 0.00 0.00 0.00 0.00 0.00 0.00 0.01 0.01 0.00 0.00 0.00 0.01 0.03 0.11 0.07 0.08 0.11 0.17 0.20 0.25 0.27 0.33 0.39 0.36 0.24 0.18
0.10 0.03 0.00 0.00 0.00 0.00 0.00 0.00 0.00 0.00 0.00 0.00 0.00 0.00 0.00 0.00 0.00 0.00 0.00 0.01 0.05 0.03 0.03 0.06 0.08 0.09 0.16 0.22 0.24 0.26 0.31 0.41 0.37
0.09 0.04 0.00 0.00 0.00 0.00 0.00 0.01 0.01 0.01 0.01 0.00 0.00 0.00 0.00 0.00 0.00 0.00 0.00 0.00 0.00 0.01 0.02 0.04 0.05 0.05 0.07 0.09 0.08 0.09 0.16 0.26 0.31
0.08 0.04 0.00 0.00 0.01 0.00 0.03 0.04 0.01 0.01 0.00 0.00 0.00 0.00 0.00 0.00 0.00 0.00 0.00 0.00 0.01 0.03 0.06 0.08 0.08 0.08 0.11 0.11 0.10 0.10 0.12 0.12 0.14
0.01 0.00 0.00 0.01 0.01 0.03 0.04 0.01 0.01 0.01 0.00 0.00 0.00 0.00 0.00 0.00 0.00 0.00 0.00 0.00 0.07 0.14 0.14 0.12 0.10 0.11 0.11 0.11 0.13 0.13 0.15 0.16 0.14
0.00 0.00 0.00 0.00 0.03 0.03 0.00 0.01 0.02 0.01 0.00 0.00 0.00 0.00 0.00 0.00 0.00 0.00 0.01 0.07 0.15 0.10 0.06 0.05 0.07 0.07 0.09 0.12 0.11 0.11 0.13 0.17 0.15
0.00 0.00 0.00 0.00 0.03 0.00 0.00 0.01 0.01 0.00 0.00 0.00 0.00 0.00 0.00 0.00 0.00 0.00 0.02 0.06 0.08 0.05 0.03 0.05 0.04 0.04 0.05 0.05 0.05 0.05 0.08 0.12 0.16
0.00 0.00 0.00 0.00 0.00 0.00 0.00 0.00 0.00 0.00 0.00 0.00 0.00 0.00 0.00 0.00 0.00 0.00 0.04 0.04 0.05 0.01 0.01 0.01 0.01 0.01 0.02 0.01 0.01 0.06 0.07 0.11 0.15
0.00 0.00 0.00 0.00 0.00 0.00 0.00 0.00 0.00 0.00 0.00 0.00 0.00 0.00 0.00 0.00 0.00 0.00 0.00 0.00 0.01 0.00 0.00 0.00 0.00 0.00 0.01 0.00 0.03 0.08 0.11 0.11 0.10
0.00 0.00 0.00 0.00 0.00 0.00 0.00 0.00 0.00 0.00 0.00 0.00 0.00 0.00 0.00 0.00 0.00 0.00 0.00 0.00 0.00 0.00 0.01 0.01 0.01 0.00 0.00 0.01 0.04 0.04 0.03 0.02 0.03
0.00 0.00 0.00 0.00 0.00 0.00 0.00 0.00 0.00 0.00 0.00 0.00 0.00 0.00 0.00 0.00 0.00 0.00 0.00 0.00 0.00 0.00 0.00 0.00 0.02 0.06 0.02 0.00 0.00 0.00 0.00 0.00 0.01
0.00 0.00 0.00 0.00 0.00 0.00 0.00 0.00 0.00 0.00 0.00 0.00 0.00 0.00 0.00 0.00 0.00 0.00 0.00 0.00 0.00 0.00 0.00 0.00 0.00 0.00 0.02 0.06 0.06 0.03 0.00 0.00 0.00
0.00 0.00 0.00 0.00 0.00 0.00 0.00 0.00 0.00 0.00 0.00 0.00 0.00 0.00 0.00 0.00 0.00 0.00 0.00 0.00 0.00 0.00 0.00 0.00 0.00 0.00 0.01 0.03 0.08 0.15 0.14 0.03 0.00
0.00 0.00 0.00 0.00 0.00 0.00 0.00 0.00 0.00 0.00 0.00 0.00 0.00 0.00 0.00 0.00 0.00 0.00 0.00 0.00 0.00 0.00 0.00 0.00 0.00 0.01 0.00 0.01 0.04 0.14 0.23 0.19 0.09
0.02 0.01 0.00 0.00 0.00 0.00 0.00 0.00 0.00 0.00 0.01 0.01 0.01 0.00 0.00 0.00 0.00 0.00 0.01 0.02 0.01 0.00 0.00 0.00 0.00 0.00 0.00 0.00 0.01 0.03 0.13 0.26 0.25
0.11 0.06 0.03 0.01 0.00 0.01 0.01 0.01 0.01 0.01 0.05 0.05 0.00 0.00 0.00 0.00 0.00 0.00 0.02 0.01 0.01 0.00 0.00 0.00 0.00 0.00 0.00 0.00 0.00 0.01 0.05 0.18 0.31
0.12 0.10 0.11 0.06 0.03 0.02 0.02 0.06 0.08 0.08 0.14 0.19 0.08 0.02 0.00 0.00 0.00 0.00 0.00 0.00 0.00 0.00 0.00 0.00 0.00 0.00 0.00 0.00 0.00 0.00 0.04 0.10 0.23
0.15 0.20 0.21 0.21 0.14 0.07 0.09 0.16 0.18 0.18 0.18 0.17 0.20 0.07 0.02 0.00 0.00 0.00 0.00 0.00 0.00 0.00 0.01 0.01 0.01 0.01 0.00 0.00 0.00 0.00 0.01 0.04 0.08
0.18 0.18 0.26 0.30 0.22 0.16 0.11 0.18 0.18 0.20 0.14 0.12 0.11 0.11 0.08 0.08 0.04 0.01 0.01 0.01 0.00 0.00 0.01 0.01 0.01 0.01 0.00 0.00 0.00 0.00 0.01 0.03 0.06
0.29 0.24 0.29 0.28 0.26 0.28 0.29 0.22 0.20 0.16 0.18 0.17 0.19 0.14 0.13 0.09 0.09 0.05 0.05 0.05 0.04 0.02 0.01 0.00 0.00 0.00 0.00 0.00 0.01 0.05 0.07 0.09 0.13

GFSFLT1_prec_precacc_075.txt.gz
Total_Precipitation_Accumulation
0.08 0.02 0.00 0.00 0.00 0.00 0.00 0.00 0.00 0.00 0.00 0.00 0.00 0.01 0.01 0.00 0.00 0.00 0.01 0.03 0.11 0.07 0.08 0.11 0.17 0.20 0.25 0.27 0.33 0.39 0.37 0.25 0.19
0.10 0.03 0.00 0.00 0.00 0.00 0.00 0.00 0.00 0.00 0.00 0.00 0.00 0.00 0.00 0.00 0.00 0.00 0.00 0.01 0.05 0.03 0.03 0.06 0.08 0.09 0.16 0.22 0.24 0.26 0.31 0.42 0.38
0.09 0.04 0.00 0.00 0.00 0.00 0.00 0.01 0.01 0.01 0.01 0.00 0.00 0.00 0.00 0.00 0.00 0.00 0.00 0.00 0.00 0.01 0.02 0.04 0.05 0.05 0.07 0.09 0.08 0.09 0.16 0.26 0.31
0.08 0.04 0.00 0.00 0.01 0.00 0.03 0.04 0.01 0.01 0.00 0.00 0.00 0.00 0.00 0.00 0.00 0.00 0.00 0.00 0.01 0.03 0.06 0.08 0.08 0.08 0.11 0.11 0.10 0.10 0.12 0.12 0.14
0.01 0.00 0.00 0.01 0.01 0.03 0.04 0.01 0.01 0.01 0.00 0.00 0.00 0.00 0.00 0.00 0.00 0.00 0.00 0.00 0.07 0.14 0.14 0.12 0.10 0.11 0.11 0.11 0.13 0.13 0.15 0.16 0.14
0.00 0.00 0.00 0.00 0.03 0.03 0.00 0.01 0.02 0.01 0.00 0.00 0.00 0.00 0.00 0.00 0.00 0.00 0.01 0.07 0.15 0.10 0.06 0.05 0.07 0.07 0.09 0.12 0.11 0.11 0.13 0.17 0.15
0.00 0.00 0.00 0.00 0.03 0.00 0.00 0.01 0.01 0.00 0.00 0.00 0.00 0.00 0.00 0.00 0.00 0.00 0.02 0.06 0.08 0.05 0.03 0.05 0.04 0.04 0.05 0.05 0.05 0.05 0.08 0.12 0.16
0.00 0.00 0.00 0.00 0.00 0.00 0.00 0.00 0.00 0.00 0.00 0.00 0.00 0.00 0.00 0.00 0.00 0.00 0.04 0.04 0.05 0.01 0.01 0.01 0.01 0.01 0.02 0.01 0.01 0.06 0.07 0.11 0.15
0.00 0.00 0.00 0.00 0.00 0.00 0.00 0.00 0.00 0.00 0.00 0.00 0.00 0.00 0.00 0.00 0.00 0.00 0.00 0.00 0.01 0.00 0.00 0.00 0.00 0.00 0.01 0.00 0.03 0.08 0.11 0.11 0.10
0.00 0.00 0.00 0.00 0.00 0.00 0.00 0.00 0.00 0.00 0.00 0.00 0.00 0.00 0.00 0.00 0.00 0.00 0.00 0.00 0.00 0.00 0.01 0.01 0.01 0.01 0.00 0.01 0.04 0.04 0.03 0.02 0.03
0.00 0.00 0.00 0.00 0.00 0.00 0.00 0.00 0.00 0.00 0.00 0.00 0.00 0.00 0.00 0.00 0.00 0.00 0.00 0.00 0.00 0.00 0.00 0.00 0.02 0.08 0.04 0.01 0.01 0.00 0.00 0.00 0.01
0.00 0.00 0.00 0.00 0.00 0.00 0.00 0.00 0.00 0.00 0.00 0.00 0.00 0.00 0.00 0.00 0.00 0.00 0.00 0.00 0.00 0.00 0.00 0.00 0.00 0.01 0.03 0.07 0.10 0.06 0.03 0.00 0.00
0.00 0.00 0.00 0.00 0.00 0.00 0.00 0.00 0.00 0.00 0.00 0.00 0.00 0.00 0.00 0.00 0.00 0.00 0.00 0.00 0.00 0.00 0.00 0.00 0.00 0.00 0.01 0.03 0.10 0.21 0.24 0.08 0.02
0.00 0.00 0.00 0.00 0.00 0.00 0.00 0.00 0.00 0.00 0.00 0.00 0.00 0.00 0.00 0.00 0.00 0.00 0.00 0.00 0.00 0.00 0.00 0.00 0.00 0.01 0.00 0.01 0.04 0.14 0.25 0.23 0.15
0.02 0.01 0.00 0.00 0.00 0.00 0.00 0.00 0.00 0.00 0.01 0.01 0.01 0.00 0.00 0.00 0.00 0.00 0.01 0.02 0.01 0.00 0.00 0.00 0.00 0.00 0.00 0.00 0.01 0.03 0.13 0.27 0.26
0.11 0.06 0.03 0.01 0.00 0.01 0.01 0.01 0.01 0.01 0.05 0.05 0.00 0.00 0.00 0.00 0.00 0.00 0.02 0.01 0.01 0.00 0.00 0.00 0.00 0.00 0.00 0.00 0.00 0.01 0.05 0.19 0.31
0.12 0.10 0.11 0.06 0.03 0.02 0.02 0.06 0.08 0.08 0.14 0.19 0.08 0.02 0.00 0.00 0.00 0.00 0.00 0.00 0.00 0.00 0.00 0.00 0.00 0.00 0.00 0.00 0.00 0.00 0.04 0.10 0.23
0.16 0.21 0.22 0.22 0.15 0.07 0.09 0.16 0.18 0.19 0.18 0.17 0.20 0.07 0.02 0.00 0.00 0.00 0.00 0.00 0.00 0.00 0.01 0.01 0.01 0.01 0.00 0.00 0.00 0.00 0.01 0.04 0.08
0.20 0.22 0.31 0.33 0.24 0.16 0.11 0.18 0.18 0.20 0.14 0.12 0.11 0.11 0.08 0.08 0.04 0.01 0.01 0.01 0.00 0.00 0.01 0.01 0.01 0.01 0.00 0.00 0.00 0.00 0.01 0.03 0.06
0.49 0.48 0.50 0.46 0.38 0.36 0.34 0.24 0.21 0.16 0.18 0.17 0.19 0.14 0.13 0.09 0.09 0.05 0.05 0.05 0.04 0.02 0.01 0.00 0.00 0.00 0.00 0.00 0.01 0.05 0.07 0.09 0.13

GFSFLT1_prec_precacc_078.txt.gz
Total_Precipitation_Accumulation
0.08 0.02 0.00 0.00 0.00 0.00 0.00 0.00 0.00 0.00 0.00 0.00 0.00 0.01 0.01 0.00 0.00 0.00 0.01 0.03 0.11 0.07 0.08 0.11 0.17 0.20 0.25 0.27 0.33 0.39 0.37 0.26 0.20
0.11 0.03 0.00 0.00 0.00 0.00 0.00 0.00 0.00 0.00 0.00 0.00 0.00 0.00 0.00 0.00 0.00 0.00 0.00 0.01 0.05 0.03 0.03 0.06 0.08 0.09 0.16 0.22 0.24 0.26 0.31 0.42 0.38
0.10 0.04 0.00 0.00 0.00 0.00 0.00 0.01 0.01 0.01 0.01 0.00 0.00 0.00 0.00 0.00 0.00 0.00 0.00 0.00 0.00 0.01 0.02 0.04 0.05 0.05 0.07 0.09 0.08 0.09 0.16 0.26 0.31
0.08 0.04 0.00 0.00 0.01 0.00 0.03 0.04 0.01 0.01 0.00 0.00 0.00 0.00 0.00 0.00 0.00 0.00 0.00 0.00 0.01 0.03 0.06 0.08 0.08 0.08 0.11 0.11 0.10 0.10 0.12 0.12 0.14
0.01 0.00 0.00 0.01 0.01 0.03 0.04 0.01 0.01 0.01 0.00 0.00 0.00 0.00 0.00 0.00 0.00 0.00 0.00 0.00 0.07 0.14 0.14 0.12 0.10 0.11 0.11 0.11 0.13 0.13 0.15 0.16 0.14
0.00 0.00 0.00 0.00 0.03 0.03 0.00 0.01 0.02 0.01 0.00 0.00 0.00 0.00 0.00 0.00 0.00 0.00 0.01 0.07 0.15 0.10 0.06 0.05 0.07 0.07 0.09 0.12 0.11 0.11 0.13 0.17 0.15
0.00 0.00 0.00 0.00 0.03 0.00 0.00 0.01 0.01 0.00 0.00 0.00 0.00 0.00 0.00 0.00 0.00 0.00 0.02 0.06 0.08 0.05 0.03 0.05 0.04 0.04 0.05 0.05 0.05 0.05 0.08 0.12 0.16
0.00 0.00 0.00 0.00 0.00 0.00 0.00 0.00 0.00 0.00 0.00 0.00 0.00 0.00 0.00 0.00 0.00 0.00 0.04 0.04 0.05 0.01 0.01 0.01 0.01 0.01 0.02 0.01 0.01 0.06 0.07 0.11 0.15
0.00 0.00 0.00 0.00 0.00 0.00 0.00 0.00 0.00 0.00 0.00 0.00 0.00 0.00 0.00 0.00 0.00 0.00 0.00 0.00 0.01 0.00 0.00 0.00 0.00 0.00 0.01 0.00 0.03 0.08 0.11 0.11 0.10
0.00 0.00 0.00 0.00 0.00 0.00 0.00 0.00 0.00 0.00 0.00 0.00 0.00 0.00 0.00 0.00 0.00 0.00 0.00 0.00 0.00 0.00 0.01 0.01 0.01 0.02 0.00 0.01 0.04 0.04 0.03 0.02 0.03
0.00 0.00 0.00 0.00 0.00 0.00 0.00 0.00 0.00 0.00 0.00 0.00 0.00 0.00 0.00 0.00 0.00 0.00 0.00 0.00 0.00 0.00 0.00 0.00 0.02 0.11 0.07 0.02 0.02 0.00 0.00 0.00 0.01
0.00 0.00 0.00 0.00 0.00 0.00 0.00 0.00 0.00 0.00 0.00 0.00 0.00 0.00 0.00 0.00 0.00 0.00 0.00 0.00 0.00 0.00 0.00 0.00 0.00 0.01 0.04 0.10 0.14 0.09 0.07 0.03 0.01
0.00 0.00 0.00 0.00 0.00 0.00 0.00 0.00 0.00 0.00 0.00 0.00 0.00 0.00 0.00 0.00 0.00 0.00 0.00 0.00 0.00 0.00 0.00 0.00 0.00 0.00 0.01 0.06 0.11 0.23 0.27 0.10 0.06
0.00 0.00 0.00 0.00 0.00 0.00 0.00 0.00 0.00 0.00 0.00 0.00 0.00 0.00 0.00 0.00 0.00 0.00 0.00 0.00 0.00 0.00 0.00 0.00 0.00 0.01 0.00 0.01 0.04 0.14 0.26 0.24 0.16
0.02 0.01 0.00 0.00 0.00 0.00 0.00 0.00 0.00 0.00 0.01 0.01 0.01 0.00 0.00 0.00 0.00 0.00 0.01 0.02 0.01 0.00 0.00 0.00 0.00 0.00 0.00 0.00 0.01 0.03 0.15 0.28 0.27
0.12 0.06 0.03 0.01 0.00 0.01 0.01 0.01 0.01 0.01 0.05 0.05 0.00 0.00 0.00 0.00 0.00 0.00 0.02 0.01 0.01 0.00 0.00 0.00 0.00 0.00 0.00 0.00 0.00 0.01 0.06 0.19 0.31
0.14 0.11 0.12 0.07 0.03 0.02 0.02 0.06 0.08 0.08 0.14 0.20 0.08 0.02 0.00 0.00 0.00 0.00 0.00 0.00 0.00 0.00 0.00 0.00 0.00 0.00 0.00 0.00 0.00 0.00 0.04 0.10 0.23
0.28 0.34 0.35 0.31 0.19 0.11 0.14 0.16 0.18 0.19 0.18 0.17 0.20 0.07 0.02 0.00 0.00 0.00 0.00 0.00 0.00 0.00 0.01 0.01 0.01 0.01 0.00 0.00 0.00 0.00 0.01 0.04 0.08
0.50 0.45 0.50 0.49 0.35 0.28 0.22 0.24 0.21 0.21 0.14 0.12 0.11 0.11 0.08 0.08 0.04 0.01 0.01 0.01 0.00 0.00 0.01 0.01 0.01 0.01 0.00 0.00 0.00 0.00 0.01 0.03 0.06
0.77 0.80 0.86 0.79 0.62 0.48 0.40 0.28 0.24 0.17 0.20 0.19 0.19 0.14 0.13 0.09 0.09 0.05 0.05 0.05 0.04 0.02 0.01 0.00 0.00 0.00 0.00 0.00 0.01 0.05 0.07 0.09 0.13

GFSFLT1_prec_precacc_081.txt.gz
Total_Precipitation_Accumulation
0.08 0.02 0.00 0.00 0.00 0.00 0.00 0.00 0.00 0.00 0.00 0.00 0.00 0.01 0.01 0.00 0.00 0.00 0.01 0.03 0.11 0.07 0.08 0.11 0.17 0.20 0.25 0.27 0.33 0.39 0.37 0.26 0.20
0.11 0.03 0.00 0.00 0.00 0.00 0.00 0.00 0.00 0.00 0.00 0.00 0.00 0.00 0.00 0.00 0.00 0.00 0.00 0.01 0.05 0.03 0.03 0.06 0.08 0.09 0.16 0.22 0.24 0.26 0.31 0.42 0.38
0.10 0.04 0.00 0.00 0.00 0.00 0.00 0.01 0.01 0.01 0.01 0.00 0.00 0.00 0.00 0.00 0.00 0.00 0.00 0.00 0.00 0.01 0.02 0.04 0.05 0.05 0.07 0.09 0.08 0.09 0.16 0.26 0.31
0.08 0.04 0.00 0.00 0.01 0.00 0.03 0.04 0.01 0.01 0.00 0.00 0.00 0.00 0.00 0.00 0.00 0.00 0.00 0.00 0.01 0.03 0.06 0.08 0.08 0.08 0.11 0.11 0.10 0.10 0.12 0.12 0.14
0.01 0.00 0.00 0.01 0.01 0.03 0.04 0.01 0.01 0.01 0.00 0.00 0.00 0.00 0.00 0.00 0.00 0.00 0.00 0.00 0.07 0.14 0.14 0.12 0.10 0.11 0.11 0.11 0.13 0.13 0.15 0.16 0.14
0.00 0.00 0.00 0.00 0.03 0.03 0.00 0.01 0.02 0.01 0.00 0.00 0.00 0.00 0.00 0.00 0.00 0.00 0.01 0.07 0.15 0.10 0.06 0.05 0.07 0.07 0.09 0.12 0.11 0.11 0.13 0.17 0.15
0.00 0.00 0.00 0.00 0.03 0.00 0.00 0.01 0.01 0.00 0.00 0.00 0.00 0.00 0.00 0.00 0.00 0.00 0.02 0.06 0.08 0.05 0.03 0.05 0.04 0.04 0.05 0.05 0.05 0.05 0.08 0.12 0.16
0.00 0.00 0.00 0.00 0.00 0.00 0.00 0.00 0.00 0.00 0.00 0.00 0.00 0.00 0.00 0.00 0.00 0.00 0.04 0.04 0.05 0.01 0.01 0.01 0.01 0.01 0.02 0.01 0.01 0.06 0.07 0.11 0.15
0.00 0.00 0.00 0.00 0.00 0.00 0.00 0.00 0.00 0.00 0.00 0.00 0.00 0.00 0.00 0.00 0.00 0.00 0.00 0.00 0.01 0.00 0.00 0.00 0.00 0.00 0.01 0.00 0.03 0.08 0.11 0.11 0.10
0.00 0.00 0.00 0.00 0.00 0.00 0.00 0.00 0.00 0.00 0.00 0.00 0.00 0.00 0.00 0.00 0.00 0.00 0.00 0.00 0.00 0.00 0.01 0.01 0.02 0.03 0.02 0.02 0.04 0.04 0.03 0.02 0.03
0.00 0.00 0.00 0.00 0.00 0.00 0.00 0.00 0.00 0.00 0.00 0.00 0.00 0.00 0.00 0.00 0.00 0.00 0.00 0.00 0.00 0.00 0.00 0.00 0.03 0.13 0.10 0.05 0.03 0.02 0.00 0.00 0.01
0.00 0.00 0.00 0.00 0.00 0.00 0.00 0.00 0.00 0.00 0.00 0.00 0.00 0.00 0.00 0.00 0.00 0.00 0.00 0.00 0.00 0.00 0.00 0.00 0.00 0.01 0.04 0.13 0.17 0.12 0.10 0.05 0.03
0.00 0.00 0.00 0.00 0.00 0.00 0.00 0.00 0.00 0.00 0.00 0.00 0.00 0.00 0.00 0.00 0.00 0.00 0.00 0.00 0.00 0.00 0.00 0.00 0.00 0.00 0.01 0.07 0.14 0.25 0.28 0.10 0.07
0.00 0.00 0.00 0.00 0.00 0.00 0.00 0.00 0.00 0.00 0.00 0.00 0.00 0.00 0.00 0.00 0.00 0.00 0.00 0.00 0.00 0.00 0.00 0.00 0.00 0.01 0.00 0.01 0.06 0.15 0.27 0.25 0.16
0.02 0.01 0.00 0.00 0.00 0.00 0.00 0.00 0.00 0.00 0.01 0.01 0.01 0.00 0.00 0.00 0.00 0.00 0.01 0.02 0.01 0.00 0.00 0.00 0.00 0.00 0.00 0.00 0.01 0.03 0.15 0.28 0.27
0.12 0.06 0.03 0.01 0.00 0.01 0.01 0.01 0.01 0.01 0.05 0.05 0.00 0.00 0.00 0.00 0.00 0.00 0.02 0.01 0.01 0.00 0.00 0.00 0.00 0.00 0.00 0.00 0.00 0.01 0.06 0.19 0.31
0.34 0.26 0.17 0.09 0.04 0.02 0.02 0.06 0.08 0.08 0.14 0.20 0.08 0.02 0.00 0.00 0.00 0.00 0.00 0.00 0.00 0.00 0.00 0.00 0.00 0.00 0.00 0.00 0.00 0.00 0.04 0.10 0.23
0.47 0.55 0.62 0.54 0.39 0.22 0.19 0.18 0.20 0.21 0.18 0.17 0.20 0.07 0.02 0.00 0.00 0.00 0.00 0.00 0.00 0.00 0.01 0.01 0.01 0.01 0.00 0.00 0.00 0.00 0.01 0.04 0.08
0.80 0.71 0.71 0.74 0.58 0.49 0.44 0.46 0.38 0.30 0.16 0.12 0.11 0.11 0.08 0.08 0.04 0.01 0.01 0.01 0.00 0.00 0.01 0.01 0.01 0.01 0.00 0.00 0.00 0.00 0.01 0.03 0.06
0.90 0.95 1.05 1.10 1.06 0.78 0.54 0.34 0.28 0.20 0.21 0.19 0.19 0.14 0.13 0.09 0.09 0.05 0.05 0.05 0.04 0.02 0.01 0.00 0.00 0.00 0.00 0.00 0.01 0.05 0.07 0.09 0.13

GFSFLT1_prec_precacc_084.txt.gz
Total_Precipitation_Accumulation
0.08 0.02 0.00 0.00 0.01 0.00 0.00 0.00 0.00 0.00 0.00 0.00 0.00 0.01 0.01 0.00 0.00 0.00 0.01 0.03 0.11 0.07 0.08 0.11 0.17 0.20 0.25 0.27 0.33 0.39 0.37 0.26 0.20
0.11 0.03 0.00 0.00 0.00 0.00 0.00 0.00 0.00 0.00 0.00 0.00 0.00 0.00 0.00 0.00 0.00 0.00 0.00 0.01 0.05 0.03 0.03 0.06 0.08 0.09 0.16 0.22 0.24 0.26 0.31 0.42 0.38
0.10 0.04 0.00 0.00 0.00 0.00 0.00 0.01 0.01 0.01 0.01 0.00 0.00 0.00 0.00 0.00 0.00 0.00 0.00 0.00 0.00 0.01 0.02 0.04 0.05 0.05 0.07 0.09 0.08 0.09 0.16 0.26 0.31
0.08 0.04 0.00 0.00 0.01 0.00 0.03 0.04 0.01 0.01 0.00 0.00 0.00 0.00 0.00 0.00 0.00 0.00 0.00 0.00 0.01 0.03 0.06 0.08 0.08 0.08 0.11 0.11 0.10 0.10 0.12 0.12 0.14
0.01 0.01 0.00 0.01 0.01 0.03 0.04 0.01 0.01 0.01 0.00 0.00 0.00 0.00 0.00 0.00 0.00 0.00 0.00 0.00 0.07 0.14 0.14 0.12 0.10 0.11 0.11 0.11 0.13 0.13 0.15 0.16 0.14
0.00 0.00 0.00 0.00 0.03 0.03 0.00 0.01 0.02 0.01 0.00 0.00 0.00 0.00 0.00 0.00 0.00 0.00 0.01 0.07 0.15 0.10 0.06 0.05 0.07 0.07 0.09 0.12 0.11 0.11 0.13 0.17 0.15
0.00 0.00 0.00 0.00 0.03 0.00 0.00 0.01 0.01 0.00 0.00 0.00 0.00 0.00 0.00 0.00 0.00 0.00 0.02 0.06 0.08 0.05 0.03 0.05 0.04 0.04 0.05 0.05 0.05 0.05 0.08 0.12 0.16
0.00 0.00 0.00 0.00 0.00 0.00 0.00 0.00 0.00 0.00 0.00 0.00 0.00 0.00 0.00 0.00 0.00 0.00 0.04 0.04 0.05 0.01 0.01 0.01 0.01 0.01 0.02 0.01 0.01 0.06 0.07 0.11 0.15
0.00 0.00 0.00 0.00 0.00 0.00 0.00 0.00 0.00 0.00 0.00 0.00 0.00 0.00 0.00 0.00 0.00 0.00 0.00 0.00 0.01 0.00 0.00 0.00 0.00 0.00 0.01 0.00 0.03 0.08 0.11 0.11 0.10
0.00 0.00 0.00 0.00 0.00 0.00 0.00 0.00 0.00 0.00 0.00 0.00 0.00 0.00 0.00 0.00 0.00 0.00 0.00 0.00 0.00 0.00 0.01 0.01 0.03 0.06 0.04 0.02 0.04 0.04 0.03 0.02 0.03
0.00 0.00 0.00 0.00 0.00 0.00 0.00 0.00 0.00 0.00 0.00 0.00 0.00 0.00 0.00 0.00 0.00 0.00 0.00 0.00 0.00 0.00 0.00 0.00 0.03 0.14 0.11 0.06 0.05 0.04 0.01 0.00 0.01
0.00 0.00 0.00 0.00 0.00 0.00 0.00 0.00 0.00 0.00 0.00 0.00 0.00 0.00 0.00 0.00 0.00 0.00 0.00 0.00 0.00 0.00 0.00 0.00 0.00 0.01 0.04 0.16 0.21 0.14 0.11 0.06 0.03
0.00 0.00 0.00 0.00 0.00 0.00 0.00 0.00 0.00 0.00 0.00 0.00 0.00 0.00 0.00 0.00 0.00 0.00 0.00 0.00 0.00 0.00 0.00 0.00 0.00 0.00 0.02 0.09 0.20 0.28 0.29 0.12 0.08
0.00 0.00 0.00 0.00 0.00 0.00 0.00 0.00 0.00 0.00 0.00 0.00 0.00 0.00 0.00 0.00 0.00 0.00 0.00 0.00 0.00 0.00 0.00 0.00 0.00 0.01 0.00 0.02 0.09 0.17 0.27 0.26 0.16
0.02 0.01 0.00 0.00 0.00 0.00 0.00 0.00 0.00 0.00 0.01 0.01 0.01 0.00 0.00 0.00 0.00 0.00 0.01 0.02 0.01 0.00 0.00 0.00 0.00 0.00 0.00 0.00 0.02 0.03 0.15 0.29 0.27
0.12 0.06 0.03 0.01 0.00 0.01 0.01 0.01 0.01 0.01 0.05 0.06 0.01 0.00 0.00 0.00 0.00 0.00 0.02 0.01 0.01 0.00 0.00 0.00 0.00 0.00 0.00 0.00 0.00 0.01 0.06 0.19 0.31
0.44 0.36 0.24 0.10 0.05 0.03 0.03 0.06 0.08 0.08 0.14 0.21 0.09 0.02 0.00 0.00 0.00 0.00 0.00 0.00 0.00 0.00 0.00 0.00 0.00 0.00 0.00 0.00 0.00 0.00 0.04 0.10 0.23
0.64 0.77 0.86 0.74 0.52 0.36 0.29 0.21 0.24 0.28 0.21 0.19 0.21 0.07 0.02 0.00 0.00 0.00 0.00 0.00 0.00 0.00 0.01 0.01 0.01 0.01 0.00 0.00 0.00 0.00 0.01 0.04 0.08
1.00 1.04 1.17 1.15 0.85 0.70 0.63 0.65 0.60 0.51 0.29 0.20 0.14 0.12 0.08 0.08 0.04 0.01 0.01 0.01 0.00 0.00 0.01 0.01 0.01 0.01 0.00 0.00 0.00 0.00 0.01 0.03 0.06
1.04 1.20 1.34 1.41 1.33 1.08 0.81 0.58 0.45 0.36 0.32 0.27 0.26 0.17 0.13 0.09 0.09 0.05 0.05 0.05 0.04 0.02 0.01 0.00 0.00 0.00 0.00 0.00 0.01 0.05 0.07 0.09 0.13

GFSFLT1_prec_precacc_087.txt.gz
Total_Precipitation_Accumulation
0.08 0.02 0.01 0.01 0.01 0.00 0.00 0.00 0.00 0.00 0.00 0.00 0.00 0.01 0.01 0.00 0.00 0.00 0.01 0.03 0.11 0.07 0.08 0.11 0.17 0.20 0.25 0.27 0.33 0.39 0.37 0.26 0.20
0.11 0.03 0.00 0.01 0.00 0.00 0.00 0.00 0.01 0.00 0.00 0.00 0.00 0.00 0.00 0.00 0.00 0.00 0.00 0.01 0.05 0.03 0.03 0.06 0.08 0.09 0.16 0.22 0.24 0.26 0.31 0.42 0.38
0.10 0.05 0.01 0.01 0.00 0.01 0.01 0.01 0.01 0.01 0.01 0.00 0.00 0.00 0.00 0.00 0.00 0.00 0.00 0.00 0.00 0.01 0.02 0.04 0.05 0.05 0.07 0.09 0.08 0.09 0.16 0.26 0.31
0.08 0.04 0.01 0.01 0.01 0.00 0.03 0.04 0.01 0.01 0.00 0.00 0.00 0.00 0.00 0.00 0.00 0.00 0.00 0.00 0.01 0.03 0.06 0.08 0.08 0.08 0.11 0.11 0.10 0.10 0.12 0.12 0.14
0.02 0.01 0.01 0.02 0.02 0.03 0.04 0.01 0.01 0.01 0.00 0.00 0.00 0.00 0.00 0.00 0.00 0.00 0.00 0.00 0.07 0.14 0.14 0.12 0.10 0.11 0.11 0.11 0.13 0.13 0.15 0.16 0.14
0.00 0.00 0.01 0.01 0.03 0.03 0.00 0.01 0.02 0.01 0.00 0.00 0.00 0.00 0.00 0.00 0.00 0.00 0.01 0.07 0.15 0.10 0.06 0.05 0.07 0.07 0.09 0.12 0.11 0.11 0.13 0.17 0.15
0.00 0.00 0.00 0.00 0.03 0.00 0.00 0.01 0.01 0.00 0.00 0.00 0.00 0.00 0.00 0.00 0.00 0.00 0.02 0.06 0.08 0.05 0.03 0.05 0.04 0.04 0.05 0.05 0.05 0.05 0.08 0.12 0.16
0.00 0.00 0.00 0.00 0.00 0.00 0.00 0.00 0.00 0.00 0.00 0.00 0.00 0.00 0.00 0.00 0.00 0.00 0.04 0.04 0.05 0.01 0.01 0.01 0.01 0.01 0.02 0.01 0.01 0.06 0.07 0.11 0.15
0.00 0.00 0.00 0.00 0.00 0.00 0.00 0.00 0.00 0.00 0.00 0.00 0.00 0.00 0.00 0.00 0.00 0.00 0.00 0.00 0.01 0.00 0.00 0.00 0.00 0.01 0.01 0.00 0.03 0.08 0.11 0.11 0.10
0.00 0.00 0.00 0.00 0.00 0.00 0.00 0.00 0.00 0.00 0.00 0.00 0.00 0.00 0.00 0.00 0.00 0.00 0.00 0.00 0.00 0.00 0.01 0.01 0.03 0.08 0.07 0.02 0.04 0.04 0.03 0.02 0.03
0.00 0.00 0.00 0.00 0.00 0.00 0.00 0.00 0.00 0.00 0.00 0.00 0.00 0.00 0.00 0.00 0.00 0.00 0.00 0.00 0.00 0.00 0.00 0.00 0.03 0.14 0.13 0.07 0.10 0.09 0.01 0.00 0.01
0.00 0.00 0.00 0.00 0.00 0.00 0.00 0.00 0.00 0.00 0.00 0.00 0.00 0.00 0.00 0.00 0.00 0.00 0.00 0.00 0.00 0.00 0.00 0.00 0.00 0.01 0.04 0.18 0.26 0.17 0.13 0.08 0.04
0.00 0.00 0.00 0.00 0.00 0.00 0.00 0.00 0.00 0.00 0.00 0.00 0.00 0.00 0.00 0.00 0.00 0.00 0.00 0.00 0.00 0.00 0.00 0.00 0.00 0.00 0.02 0.10 0.26 0.28 0.30 0.13 0.09
0.00 0.00 0.00 0.00 0.00 0.00 0.00 0.00 0.00 0.00 0.00 0.00 0.00 0.00 0.00 0.00 0.00 0.00 0.00 0.00 0.00 0.00 0.00 0.00 0.00 0.01 0.00 0.02 0.11 0.20 0.28 0.27 0.17
0.02 0.01 0.00 0.00 0.00 0.00 0.00 0.00 0.00 0.00 0.01 0.01 0.01 0.00 0.00 0.00 0.00 0.00 0.01 0.02 0.01 0.00 0.00 0.00 0.00 0.00 0.00 0.00 0.03 0.05 0.16 0.30 0.28
0.13 0.06 0.03 0.01 0.00 0.01 0.01 0.01 0.01 0.01 0.05 0.06 0.01 0.00 0.00 0.00 0.00 0.00 0.02 0.01 0.01 0.00 0.00 0.00 0.00 0.00 0.00 0.00 0.00 0.01 0.09 0.20 0.31
0.44 0.37 0.24 0.10 0.06 0.04 0.04 0.06 0.08 0.08 0.14 0.22 0.10 0.02 0.00 0.00 0.00 0.00 0.00 0.00 0.00 0.00 0.00 0.00 0.00 0.00 0.00 0.00 0.00 0.01 0.05 0.11 0.23
0.73 0.79 0.90 0.84 0.61 0.40 0.36 0.27 0.25 0.31 0.27 0.23 0.23 0.08 0.02 0.00 0.00 0.00 0.00 0.00 0.00 0.00 0.01 0.01 0.01 0.01 0.00 0.00 0.00 0.00 0.01 0.04 0.08
1.08 1.12 1.22 1.22 1.03 1.05 1.04 0.95 0.77 0.62 0.38 0.31 0.23 0.17 0.12 0.09 0.04 0.01 0.01 0.01 0.00 0.00 0.01 0.01 0.01 0.01 0.00 0.00 0.00 0.00 0.01 0.03 0.06
1.08 1.24 1.43 1.54 1.51 1.32 1.21 1.24 1.19 0.85 0.53 0.38 0.34 0.25 0.19 0.13 0.10 0.05 0.05 0.05 0.04 0.02 0.01 0.00 0.00 0.00 0.00 0.00 0.01 0.05 0.07 0.09 0.13

GFSFLT1_prec_precacc_090.txt.gz
Total_Precipitation_Accumulation
0.08 0.02 0.01 0.01 0.01 0.01 0.00 0.00 0.01 0.00 0.00 0.00 0.00 0.01 0.01 0.00 0.00 0.00 0.01 0.03 0.11 0.07 0.08 0.11 0.17 0.20 0.25 0.27 0.33 0.39 0.37 0.26 0.20
0.11 0.04 0.01 0.01 0.01 0.00 0.01 0.01 0.01 0.00 0.00 0.00 0.00 0.00 0.00 0.00 0.00 0.00 0.00 0.01 0.05 0.03 0.03 0.06 0.08 0.09 0.16 0.22 0.24 0.26 0.31 0.42 0.38
0.10 0.05 0.01 0.01 0.01 0.01 0.01 0.01 0.01 0.01 0.01 0.00 0.00 0.00 0.00 0.00 0.00 0.00 0.00 0.00 0.00 0.01 0.02 0.04 0.05 0.05 0.07 0.09 0.08 0.09 0.16 0.26 0.31
0.08 0.05 0.02 0.01 0.01 0.01 0.03 0.04 0.01 0.01 0.00 0.00 0.00 0.00 0.00 0.00 0.00 0.00 0.00 0.00 0.01 0.03 0.06 0.08 0.08 0.08 0.11 0.11 0.10 0.10 0.12 0.12 0.14
0.02 0.01 0.02 0.02 0.02 0.03 0.04 0.01 0.01 0.01 0.00 0.00 0.00 0.00 0.00 0.00 0.00 0.00 0.00 0.00 0.07 0.14 0.14 0.12 0.10 0.11 0.11 0.11 0.13 0.13 0.15 0.16 0.14
0.00 0.00 0.02 0.02 0.04 0.03 0.00 0.01 0.02 0.01 0.00 0.00 0.00 0.00 0.00 0.00 0.00 0.00 0.01 0.07 0.15 0.10 0.06 0.05 0.07 0.07 0.09 0.12 0.11 0.11 0.13 0.17 0.15
0.00 0.00 0.01 0.01 0.03 0.00 0.00 0.01 0.01 0.00 0.00 0.00 0.00 0.00 0.00 0.00 0.00 0.00 0.02 0.06 0.08 0.05 0.03 0.05 0.04 0.04 0.05 0.05 0.05 0.05 0.08 0.12 0.16
0.00 0.00 0.00 0.00 0.00 0.00 0.00 0.00 0.00 0.00 0.00 0.00 0.00 0.00 0.00 0.00 0.00 0.00 0.04 0.04 0.05 0.01 0.01 0.01 0.01 0.01 0.02 0.01 0.01 0.06 0.07 0.11 0.15
0.00 0.00 0.00 0.00 0.00 0.00 0.00 0.00 0.00 0.00 0.00 0.00 0.00 0.00 0.00 0.00 0.00 0.00 0.00 0.00 0.01 0.00 0.00 0.00 0.00 0.01 0.01 0.00 0.03 0.08 0.11 0.11 0.10
0.00 0.00 0.00 0.00 0.00 0.00 0.00 0.00 0.00 0.00 0.00 0.00 0.00 0.00 0.00 0.00 0.00 0.00 0.00 0.00 0.00 0.00 0.01 0.01 0.03 0.08 0.08 0.03 0.04 0.04 0.03 0.02 0.03
0.00 0.00 0.00 0.00 0.00 0.00 0.00 0.00 0.00 0.00 0.00 0.00 0.00 0.00 0.00 0.00 0.00 0.00 0.00 0.00 0.00 0.00 0.00 0.00 0.03 0.14 0.14 0.08 0.14 0.14 0.03 0.01 0.01
0.00 0.00 0.00 0.00 0.00 0.00 0.00 0.00 0.00 0.00 0.00 0.00 0.00 0.00 0.00 0.00 0.00 0.00 0.00 0.00 0.00 0.00 0.00 0.00 0.00 0.01 0.04 0.18 0.30 0.22 0.17 0.11 0.06
0.00 0.00 0.00 0.00 0.00 0.00 0.00 0.00 0.00 0.00 0.00 0.00 0.00 0.00 0.00 0.00 0.00 0.00 0.00 0.00 0.00 0.00 0.00 0.00 0.00 0.00 0.02 0.10 0.29 0.30 0.31 0.14 0.10
0.00 0.00 0.00 0.00 0.00 0.00 0.00 0.00 0.00 0.00 0.00 0.00 0.00 0.00 0.00 0.00 0.00 0.00 0.00 0.00 0.00 0.00 0.00 0.00 0.00 0.01 0.00 0.02 0.13 0.22 0.29 0.28 0.17
0.02 0.01 0.00 0.00 0.00 0.00 0.00 0.00 0.00 0.00 0.01 0.01 0.01 0.00 0.00 0.00 0.00 0.00 0.01 0.02 0.01 0.00 0.00 0.00 0.00 0.00 0.00 0.00 0.04 0.05 0.16 0.31 0.28
0.18 0.07 0.03 0.01 0.00 0.01 0.01 0.01 0.01 0.01 0.05 0.06 0.01 0.00 0.00 0.00 0.00 0.00 0.02 0.01 0.01 0.00 0.00 0.00 0.00 0.00 0.00 0.00 0.00 0.01 0.10 0.20 0.31
0.46 0.37 0.24 0.11 0.06 0.04 0.04 0.06 0.08 0.08 0.14 0.22 0.10 0.03 0.00 0.00 0.00 0.00 0.00 0.00 0.00 0.00 0.00 0.00 0.00 0.00 0.00 0.00 0.00 0.01 0.05 0.11 0.23
0.74 0.79 0.92 0.87 0.61 0.42 0.40 0.32 0.28 0.32 0.28 0.25 0.27 0.09 0.02 0.01 0.00 0.00 0.00 0.00 0.00 0.00 0.01 0.01 0.01 0.01 0.00 0.00 0.00 0.00 0.01 0.04 0.08
1.12 1.17 1.32 1.35 1.09 1.13 1.22 1.16 0.96 0.88 0.66 0.56 0.38 0.26 0.15 0.10 0.04 0.01 0.01 0.01 0.00 0.00 0.01 0.01 0.01 0.01 0.00 0.00 0.00 0.00 0.01 0.03 0.07
1.09 1.25 1.44 1.57 1.55 1.34 1.25 1.33 1.36 1.25 1.17 0.96 0.69 0.39 0.25 0.15 0.11 0.05 0.05 0.05 0.04 0.02 0.01 0.00 0.00 0.00 0.00 0.00 0.01 0.05 0.07 0.09 0.13

GFSFLT1_prec_precacc_093.txt.gz
Total_Precipitation_Accumulation
0.08 0.02 0.01 0.01 0.01 0.01 0.00 0.01 0.01 0.00 0.00 0.00 0.00 0.01 0.01 0.00 0.00 0.00 0.01 0.03 0.11 0.07 0.08 0.11 0.17 0.20 0.25 0.27 0.33 0.39 0.37 0.26 0.20
0.12 0.04 0.01 0.01 0.01 0.01 0.01 0.01 0.01 0.00 0.00 0.00 0.00 0.00 0.00 0.00 0.00 0.00 0.00 0.01 0.05 0.03 0.03 0.06 0.08 0.09 0.16 0.22 0.24 0.26 0.31 0.42 0.38
0.11 0.05 0.01 0.01 0.01 0.01 0.02 0.02 0.01 0.01 0.01 0.00 0.00 0.00 0.00 0.00 0.00 0.00 0.00 0.00 0.00 0.01 0.02 0.04 0.05 0.05 0.07 0.09 0.08 0.09 0.16 0.26 0.31
0.08 0.05 0.02 0.02 0.02 0.02 0.04 0.04 0.01 0.01 0.00 0.00 0.00 0.00 0.00 0.00 0.00 0.00 0.00 0.00 0.01 0.03 0.06 0.08 0.08 0.08 0.11 0.11 0.10 0.10 0.12 0.12 0.14
0.02 0.02 0.02 0.03 0.03 0.04 0.04 0.01 0.01 0.01 0.00 0.00 0.00 0.00 0.00 0.00 0.00 0.00 0.00 0.00 0.07 0.14 0.14 0.12 0.10 0.11 0.11 0.11 0.13 0.13 0.15 0.16 0.14
0.00 0.00 0.02 0.03 0.04 0.03 0.00 0.01 0.02 0.01 0.00 0.00 0.00 0.00 0.00 0.00 0.00 0.00 0.01 0.07 0.15 0.10 0.06 0.05 0.07 0.07 0.09 0.12 0.11 0.11 0.13 0.17 0.15
0.00 0.00 0.01 0.02 0.03 0.00 0.00 0.01 0.01 0.00 0.00 0.00 0.00 0.00 0.00 0.00 0.00 0.00 0.02 0.06 0.08 0.05 0.03 0.05 0.04 0.04 0.05 0.05 0.05 0.05 0.08 0.12 0.16
0.00 0.00 0.01 0.00 0.00 0.00 0.00 0.00 0.00 0.00 0.00 0.00 0.00 0.00 0.00 0.00 0.00 0.00 0.04 0.04 0.05 0.01 0.01 0.01 0.01 0.01 0.02 0.01 0.01 0.06 0.07 0.11 0.15
0.00 0.00 0.00 0.00 0.00 0.00 0.00 0.00 0.00 0.00 0.00 0.00 0.00 0.00 0.00 0.00 0.00 0.00 0.00 0.00 0.01 0.00 0.00 0.00 0.00 0.01 0.01 0.00 0.03 0.08 0.11 0.11 0.10
0.00 0.00 0.00 0.00 0.00 0.00 0.00 0.00 0.00 0.00 0.00 0.00 0.00 0.00 0.00 0.00 0.00 0.00 0.00 0.00 0.00 0.00 0.01 0.01 0.03 0.08 0.08 0.03 0.05 0.04 0.03 0.02 0.03
0.00 0.00 0.00 0.00 0.00 0.00 0.00 0.00 0.00 0.00 0.00 0.00 0.00 0.00 0.00 0.00 0.00 0.00 0.00 0.00 0.00 0.00 0.00 0.00 0.03 0.14 0.14 0.09 0.16 0.16 0.04 0.01 0.01
0.00 0.00 0.00 0.00 0.00 0.00 0.00 0.00 0.00 0.00 0.00 0.00 0.00 0.00 0.00 0.00 0.00 0.00 0.00 0.00 0.00 0.00 0.00 0.00 0.00 0.01 0.04 0.18 0.31 0.24 0.18 0.12 0.06
0.00 0.00 0.00 0.00 0.00 0.00 0.00 0.00 0.00 0.00 0.00 0.00 0.00 0.00 0.00 0.00 0.00 0.00 0.00 0.00 0.00 0.00 0.00 0.00 0.00 0.00 0.02 0.10 0.29 0.31 0.31 0.14 0.10
0.00 0.00 0.00 0.00 0.00 0.00 0.00 0.00 0.00 0.00 0.00 0.00 0.00 0.00 0.00 0.00 0.00 0.00 0.00 0.00 0.00 0.00 0.00 0.00 0.00 0.01 0.00 0.02 0.13 0.22 0.29 0.28 0.17
0.02 0.01 0.00 0.00 0.00 0.00 0.00 0.00 0.00 0.00 0.01 0.01 0.01 0.00 0.00 0.00 0.00 0.00 0.01 0.02 0.01 0.00 0.00 0.00 0.00 0.00 0.00 0.00 0.04 0.05 0.17 0.31 0.28
0.18 0.07 0.03 0.01 0.00 0.01 0.01 0.01 0.01 0.01 0.05 0.06 0.01 0.00 0.00 0.00 0.00 0.00 0.02 0.01 0.01 0.00 0.00 0.00 0.00 0.00 0.00 0.00 0.00 0.01 0.10 0.20 0.31
0.52 0.38 0.25 0.11 0.06 0.04 0.04 0.06 0.08 0.08 0.14 0.22 0.10 0.03 0.00 0.00 0.00 0.00 0.00 0.00 0.00 0.00 0.00 0.00 0.00 0.00 0.00 0.00 0.00 0.01 0.06 0.11 0.23
0.91 0.91 0.94 0.87 0.61 0.42 0.40 0.32 0.30 0.33 0.28 0.26 0.28 0.10 0.02 0.01 0.00 0.00 0.00 0.00 0.00 0.00 0.01 0.01 0.01 0.01 0.00 0.00 0.00 0.00 0.01 0.05 0.09
1.25 1.37 1.50 1.43 1.10 1.13 1.25 1.25 1.07 0.98 0.75 0.60 0.45 0.33 0.18 0.11 0.05 0.01 0.01 0.01 0.00 0.00 0.01 0.01 0.01 0.01 0.00 0.00 0.00 0.00 0.01 0.03 0.07
1.18 1.32 1.55 1.68 1.64 1.39 1.32 1.44 1.48 1.37 1.33 1.13 0.88 0.64 0.49 0.34 0.22 0.07 0.05 0.05 0.04 0.02 0.01 0.00 0.00 0.00 0.00 0.00 0.01 0.05 0.07 0.09 0.13

GFSFLT1_prec_precacc_099.txt.gz
Total_Precipitation_Accumulation
0.10 0.04 0.07 0.02 0.01 0.01 0.00 0.01 0.01 0.00 0.00 0.00 0.00 0.01 0.01 0.00 0.00 0.00 0.01 0.03 0.11 0.07 0.08 0.11 0.17 0.20 0.25 0.27 0.33 0.39 0.37 0.26 0.20
0.19 0.10 0.06 0.01 0.01 0.01 0.01 0.01 0.01 0.00 0.00 0.00 0.00 0.00 0.00 0.00 0.00 0.00 0.00 0.01 0.05 0.03 0.03 0.06 0.08 0.09 0.16 0.22 0.24 0.26 0.31 0.42 0.38
0.20 0.14 0.04 0.01 0.01 0.01 0.02 0.02 0.01 0.01 0.01 0.00 0.00 0.00 0.00 0.00 0.00 0.00 0.00 0.00 0.00 0.01 0.02 0.04 0.05 0.05 0.07 0.09 0.08 0.09 0.16 0.26 0.31
0.16 0.12 0.03 0.02 0.02 0.02 0.04 0.04 0.01 0.01 0.00 0.00 0.00 0.00 0.00 0.00 0.00 0.00 0.00 0.00 0.01 0.03 0.06 0.08 0.08 0.08 0.11 0.11 0.10 0.10 0.12 0.12 0.14
0.06 0.03 0.02 0.03 0.05 0.06 0.04 0.01 0.01 0.01 0.00 0.00 0.00 0.00 0.00 0.00 0.00 0.00 0.00 0.00 0.07 0.14 0.14 0.12 0.10 0.11 0.11 0.11 0.13 0.13 0.15 0.16 0.14
0.00 0.00 0.02 0.03 0.06 0.05 0.00 0.01 0.02 0.01 0.00 0.00 0.00 0.00 0.00 0.00 0.00 0.00 0.01 0.07 0.15 0.10 0.06 0.05 0.07 0.07 0.09 0.12 0.11 0.11 0.13 0.17 0.15
0.00 0.00 0.01 0.02 0.05 0.01 0.00 0.01 0.01 0.00 0.00 0.00 0.00 0.00 0.00 0.00 0.00 0.00 0.02 0.06 0.08 0.05 0.03 0.05 0.04 0.04 0.05 0.05 0.05 0.05 0.08 0.12 0.16
0.00 0.00 0.01 0.01 0.01 0.01 0.00 0.00 0.00 0.00 0.00 0.00 0.00 0.00 0.00 0.00 0.00 0.00 0.04 0.04 0.05 0.01 0.01 0.01 0.01 0.01 0.02 0.01 0.01 0.06 0.07 0.11 0.15
0.03 0.01 0.00 0.00 0.00 0.00 0.00 0.00 0.00 0.00 0.00 0.00 0.00 0.00 0.00 0.00 0.00 0.00 0.00 0.00 0.01 0.00 0.00 0.00 0.00 0.01 0.01 0.00 0.03 0.08 0.11 0.11 0.10
0.08 0.03 0.01 0.00 0.00 0.00 0.00 0.00 0.00 0.00 0.00 0.00 0.00 0.00 0.00 0.00 0.00 0.00 0.00 0.00 0.00 0.00 0.01 0.01 0.03 0.08 0.08 0.04 0.06 0.04 0.03 0.02 0.03
0.29 0.17 0.07 0.01 0.00 0.00 0.00 0.00 0.00 0.00 0.00 0.00 0.00 0.00 0.00 0.00 0.00 0.00 0.00 0.00 0.00 0.00 0.00 0.00 0.03 0.14 0.14 0.09 0.16 0.17 0.06 0.03 0.01
0.13 0.35 0.27 0.12 0.02 0.00 0.00 0.00 0.00 0.00 0.00 0.00 0.00 0.00 0.00 0.00 0.00 0.00 0.00 0.00 0.00 0.00 0.00 0.00 0.00 0.01 0.04 0.18 0.31 0.26 0.23 0.14 0.08
0.04 0.04 0.10 0.10 0.06 0.00 0.00 0.00 0.00 0.00 0.00 0.00 0.00 0.00 0.00 0.00 0.00 0.00 0.00 0.00 0.00 0.00 0.00 0.00 0.00 0.00 0.02 0.10 0.29 0.31 0.32 0.15 0.11
0.02 0.02 0.02 0.00 0.01 0.01 0.00 0.00 0.00 0.00 0.00 0.00 0.00 0.00 0.00 0.00 0.00 0.00 0.00 0.00 0.00 0.00 0.00 0.00 0.00 0.01 0.00 0.02 0.13 0.22 0.30 0.29 0.18
0.04 0.01 0.01 0.03 0.00 0.00 0.00 0.00 0.00 0.00 0.01 0.01 0.01 0.00 0.00 0.00 0.00 0.00 0.01 0.02 0.01 0.00 0.00 0.00 0.00 0.00 0.00 0.00 0.04 0.05 0.17 0.32 0.29
0.19 0.08 0.05 0.03 0.01 0.01 0.01 0.01 0.01 0.01 0.05 0.06 0.01 0.00 0.00 0.00 0.00 0.00 0.02 0.01 0.01 0.00 0.00 0.00 0.00 0.00 0.00 0.00 0.00 0.01 0.10 0.21 0.32
0.56 0.40 0.26 0.13 0.08 0.05 0.05 0.06 0.08 0.08 0.14 0.22 0.10 0.03 0.00 0.00 0.00 0.00 0.00 0.00 0.00 0.00 0.00 0.00 0.00 0.00 0.00 0.00 0.00 0.01 0.06 0.12 0.24
0.98 0.96 0.97 0.89 0.62 0.42 0.42 0.33 0.30 0.34 0.29 0.26 0.28 0.10 0.02 0.01 0.00 0.00 0.00 0.00 0.00 0.00 0.01 0.01 0.01 0.01 0.00 0.00 0.00 0.00 0.01 0.06 0.10
1.60 1.62 1.71 1.60 1.16 1.15 1.26 1.30 1.14 1.05 0.87 0.67 0.49 0.34 0.18 0.11 0.05 0.02 0.02 0.01 0.01 0.01 0.01 0.01 0.01 0.01 0.00 0.00 0.00 0.00 0.01 0.03 0.09
1.58 1.77 1.91 2.02 1.96 1.58 1.49 1.65 1.65 1.51 1.52 1.29 1.04 0.77 0.58 0.41 0.31 0.17 0.14 0.10 0.07 0.04 0.01 0.01 0.00 0.00 0.00 0.00 0.01 0.05 0.07 0.09 0.14

GFSFLT1_prec_precacc_102.txt.gz
Total_Precipitation_Accumulation
0.10 0.04 0.08 0.06 0.03 0.01 0.00 0.01 0.01 0.00 0.00 0.00 0.00 0.01 0.01 0.00 0.00 0.00 0.01 0.03 0.11 0.07 0.08 0.11 0.17 0.20 0.25 0.27 0.33 0.39 0.37 0.26 0.20
0.21 0.15 0.08 0.01 0.01 0.01 0.01 0.01 0.01 0.00 0.00 0.00 0.00 0.00 0.00 0.00 0.00 0.00 0.00 0.01 0.05 0.03 0.03 0.06 0.08 0.09 0.16 0.22 0.24 0.26 0.31 0.42 0.38
0.24 0.20 0.04 0.02 0.01 0.01 0.02 0.02 0.01 0.01 0.01 0.00 0.00 0.00 0.00 0.00 0.00 0.00 0.00 0.00 0.00 0.01 0.02 0.04 0.05 0.05 0.07 0.09 0.08 0.09 0.16 0.26 0.31
0.18 0.21 0.06 0.02 0.02 0.02 0.04 0.04 0.01 0.01 0.00 0.00 0.00 0.00 0.00 0.00 0.00 0.00 0.00 0.00 0.01 0.03 0.06 0.08 0.08 0.08 0.11 0.11 0.10 0.10 0.12 0.12 0.14
0.07 0.07 0.06 0.04 0.05 0.06 0.04 0.01 0.01 0.01 0.00 0.00 0.00 0.00 0.00 0.00 0.00 0.00 0.00 0.00 0.07 0.14 0.14 0.12 0.10 0.11 0.11 0.11 0.13 0.13 0.15 0.16 0.14
0.01 0.01 0.02 0.03 0.06 0.05 0.00 0.01 0.02 0.01 0.00 0.00 0.00 0.00 0.00 0.00 0.00 0.00 0.01 0.07 0.15 0.10 0.06 0.05 0.07 0.07 0.09 0.12 0.11 0.11 0.13 0.17 0.15
0.00 0.00 0.01 0.02 0.05 0.02 0.00 0.01 0.01 0.00 0.00 0.00 0.00 0.00 0.00 0.00 0.00 0.00 0.02 0.06 0.08 0.05 0.03 0.05 0.04 0.04 0.05 0.05 0.05 0.05 0.08 0.12 0.16
0.01 0.00 0.01 0.01 0.01 0.01 0.01 0.00 0.00 0.00 0.00 0.00 0.00 0.00 0.00 0.00 0.00 0.00 0.04 0.04 0.05 0.01 0.01 0.01 0.01 0.01 0.02 0.01 0.01 0.06 0.07 0.11 0.15
0.08 0.03 0.01 0.00 0.00 0.01 0.00 0.00 0.00 0.00 0.00 0.00 0.00 0.00 0.00 0.00 0.00 0.00 0.00 0.00 0.01 0.00 0.00 0.00 0.00 0.01 0.01 0.00 0.03 0.08 0.11 0.11 0.10
0.14 0.09 0.04 0.01 0.00 0.00 0.00 0.00 0.00 0.00 0.00 0.00 0.00 0.00 0.00 0.00 0.00 0.00 0.00 0.00 0.00 0.00 0.01 0.01 0.03 0.08 0.08 0.04 0.06 0.04 0.03 0.02 0.03
0.33 0.24 0.17 0.05 0.01 0.00 0.00 0.00 0.00 0.00 0.00 0.00 0.00 0.00 0.00 0.00 0.00 0.00 0.00 0.00 0.00 0.00 0.00 0.00 0.03 0.14 0.14 0.09 0.17 0.18 0.07 0.04 0.02
0.15 0.37 0.33 0.23 0.12 0.03 0.00 0.00 0.00 0.00 0.00 0.00 0.00 0.00 0.00 0.00 0.00 0.00 0.00 0.00 0.00 0.00 0.00 0.00 0.00 0.01 0.04 0.18 0.32 0.27 0.23 0.16 0.09
0.05 0.05 0.11 0.16 0.20 0.17 0.07 0.01 0.00 0.00 0.00 0.00 0.00 0.00 0.00 0.00 0.00 0.00 0.00 0.00 0.00 0.00 0.00 0.00 0.00 0.01 0.02 0.11 0.30 0.31 0.32 0.15 0.12
0.03 0.05 0.06 0.07 0.10 0.12 0.15 0.07 0.01 0.00 0.00 0.00 0.00 0.00 0.00 0.00 0.00 0.00 0.00 0.00 0.00 0.00 0.00 0.00 0.00 0.01 0.00 0.02 0.13 0.22 0.30 0.29 0.19
0.08 0.06 0.05 0.05 0.04 0.03 0.03 0.04 0.02 0.01 0.01 0.01 0.01 0.00 0.00 0.00 0.00 0.00 0.01 0.02 0.01 0.00 0.00 0.00 0.00 0.00 0.00 0.00 0.04 0.05 0.17 0.32 0.29
0.23 0.16 0.11 0.06 0.02 0.02 0.02 0.03 0.03 0.02 0.06 0.06 0.01 0.00 0.00 0.00 0.00 0.00 0.02 0.01 0.01 0.00 0.00 0.00 0.00 0.00 0.00 0.00 0.00 0.01 0.10 0.21 0.32
0.56 0.45 0.36 0.22 0.14 0.08 0.08 0.07 0.09 0.08 0.15 0.22 0.10 0.03 0.00 0.00 0.00 0.00 0.00 0.00 0.00 0.00 0.00 0.00 0.00 0.00 0.00 0.00 0.00 0.01 0.06 0.12 0.24
1.00 0.96 1.00 0.95 0.69 0.47 0.44 0.34 0.30 0.34 0.29 0.26 0.28 0.10 0.02 0.01 0.00 0.00 0.00 0.00 0.00 0.00 0.01 0.01 0.01 0.01 0.00 0.00 0.00 0.00 0.01 0.06 0.10
1.62 1.65 1.72 1.62 1.21 1.21 1.31 1.34 1.16 1.05 0.87 0.67 0.49 0.34 0.18 0.11 0.05 0.02 0.02 0.01 0.01 0.01 0.02 0.02 0.01 0.01 0.00 0.00 0.00 0.00 0.01 0.03 0.09
1.59 1.82 2.03 2.11 2.03 1.63 1.54 1.70 1.71 1.55 1.54 1.29 1.04 0.77 0.58 0.41 0.31 0.17 0.14 0.10 0.07 0.05 0.03 0.03 0.02 0.01 0.01 0.00 0.01 0.05 0.07 0.09 0.14

GFSFLT1_prec_precacc_105.txt.gz
Total_Precipitation_Accumulation
0.10 0.05 0.12 0.10 0.08 0.04 0.00 0.01 0.01 0.00 0.00 0.00 0.00 0.01 0.01 0.00 0.00 0.00 0.01 0.03 0.11 0.07 0.08 0.11 0.17 0.20 0.25 0.27 0.33 0.39 0.37 0.26 0.20
0.23 0.17 0.10 0.04 0.05 0.01 0.01 0.01 0.01 0.00 0.00 0.00 0.00 0.00 0.00 0.00 0.00 0.00 0.00 0.01 0.05 0.03 0.03 0.06 0.08 0.09 0.16 0.22 0.24 0.26 0.31 0.42 0.38
0.28 0.25 0.08 0.04 0.03 0.02 0.02 0.02 0.01 0.01 0.01 0.00 0.00 0.00 0.00 0.00 0.00 0.00 0.00 0.00 0.00 0.01 0.02 0.04 0.05 0.05 0.07 0.09 0.08 0.09 0.16 0.26 0.31
0.23 0.26 0.15 0.07 0.04 0.02 0.04 0.04 0.01 0.01 0.00 0.00 0.00 0.00 0.00 0.00 0.00 0.00 0.00 0.00 0.01 0.03 0.06 0.08 0.08 0.08 0.11 0.11 0.10 0.10 0.12 0.12 0.14
0.10 0.09 0.16 0.16 0.10 0.06 0.04 0.01 0.01 0.01 0.00 0.00 0.00 0.00 0.00 0.00 0.00 0.00 0.00 0.00 0.07 0.14 0.14 0.12 0.10 0.11 0.11 0.11 0.13 0.13 0.15 0.16 0.14
0.01 0.01 0.04 0.06 0.10 0.06 0.00 0.01 0.02 0.01 0.00 0.00 0.00 0.00 0.00 0.00 0.00 0.00 0.01 0.07 0.15 0.10 0.06 0.05 0.07 0.07 0.09 0.12 0.11 0.11 0.13 0.17 0.15
0.00 0.00 0.02 0.03 0.07 0.02 0.00 0.01 0.01 0.00 0.00 0.00 0.00 0.00 0.00 0.00 0.00 0.00 0.02 0.06 0.08 0.05 0.03 0.05 0.04 0.04 0.05 0.05 0.05 0.05 0.08 0.12 0.16
0.01 0.00 0.01 0.01 0.01 0.01 0.01 0.00 0.00 0.00 0.00 0.00 0.00 0.00 0.00 0.00 0.00 0.00 0.04 0.04 0.05 0.01 0.01 0.01 0.01 0.01 0.02 0.01 0.01 0.06 0.07 0.11 0.15
0.13 0.06 0.02 0.00 0.01 0.01 0.00 0.00 0.00 0.00 0.00 0.00 0.00 0.00 0.00 0.00 0.00 0.00 0.00 0.00 0.01 0.00 0.00 0.00 0.00 0.01 0.01 0.00 0.03 0.08 0.11 0.11 0.10
0.21 0.18 0.14 0.05 0.02 0.01 0.00 0.00 0.00 0.00 0.00 0.00 0.00 0.00 0.00 0.00 0.00 0.00 0.00 0.00 0.00 0.00 0.01 0.01 0.03 0.08 0.08 0.04 0.06 0.04 0.03 0.02 0.03
0.36 0.28 0.26 0.17 0.10 0.04 0.01 0.00 0.00 0.00 0.00 0.00 0.00 0.00 0.00 0.00 0.00 0.00 0.00 0.00 0.00 0.00 0.00 0.00 0.03 0.14 0.14 0.09 0.17 0.18 0.09 0.05 0.03
0.15 0.38 0.34 0.25 0.16 0.08 0.05 0.05 0.01 0.00 0.00 0.00 0.00 0.00 0.00 0.00 0.00 0.00 0.00 0.00 0.00 0.00 0.00 0.00 0.00 0.01 0.04 0.19 0.33 0.28 0.26 0.17 0.12
0.05 0.05 0.11 0.16 0.20 0.18 0.13 0.14 0.12 0.02 0.00 0.00 0.00 0.00 0.00 0.00 0.00 0.00 0.00 0.00 0.00 0.00 0.00 0.00 0.00 0.01 0.03 0.12 0.31 0.33 0.32 0.15 0.13
0.03 0.05 0.06 0.09 0.12 0.14 0.18 0.19 0.17 0.12 0.04 0.01 0.00 0.00 0.00 0.00 0.00 0.00 0.00 0.00 0.00 0.00 0.00 0.00 0.00 0.01 0.00 0.02 0.13 0.22 0.30 0.29 0.19
0.08 0.06 0.06 0.08 0.08 0.09 0.09 0.13 0.13 0.09 0.06 0.03 0.01 0.00 0.00 0.00 0.00 0.00 0.01 0.02 0.01 0.00 0.00 0.00 0.00 0.00 0.00 0.00 0.04 0.05 0.17 0.32 0.29
0.23 0.17 0.12 0.09 0.03 0.02 0.03 0.07 0.07 0.05 0.08 0.09 0.02 0.00 0.00 0.00 0.00 0.00 0.02 0.01 0.01 0.00 0.00 0.00 0.00 0.00 0.00 0.00 0.00 0.01 0.10 0.21 0.32
0.56 0.45 0.36 0.23 0.17 0.10 0.08 0.07 0.09 0.09 0.17 0.25 0.12 0.03 0.00 0.00 0.00 0.00 0.00 0.00 0.00 0.00 0.00 0.00 0.00 0.00 0.00 0.00 0.00 0.01 0.06 0.12 0.24
1.00 0.96 1.00 0.97 0.72 0.48 0.45 0.35 0.31 0.34 0.29 0.27 0.28 0.10 0.02 0.01 0.00 0.00 0.00 0.00 0.00 0.00 0.01 0.01 0.01 0.01 0.00 0.00 0.00 0.00 0.01 0.06 0.10
1.62 1.65 1.72 1.63 1.23 1.25 1.35 1.37 1.18 1.08 0.88 0.68 0.50 0.34 0.18 0.11 0.05 0.02 0.02 0.01 0.01 0.01 0.02 0.02 0.01 0.01 0.00 0.00 0.00 0.00 0.01 0.03 0.09
1.59 1.82 2.03 2.11 2.03 1.64 1.57 1.75 1.77 1.60 1.58 1.31 1.05 0.77 0.58 0.41 0.31 0.17 0.14 0.10 0.07 0.05 0.04 0.05 0.05 0.06 0.05 0.04 0.03 0.05 0.07 0.09 0.14

GFSFLT1_prec_precacc_108.txt.gz
Total_Precipitation_Accumulation
0.12 0.07 0.13 0.13 0.16 0.14 0.01 0.01 0.01 0.00 0.00 0.00 0.00 0.01 0.01 0.00 0.00 0.00 0.01 0.03 0.11 0.07 0.08 0.11 0.17 0.20 0.25 0.27 0.33 0.39 0.37 0.26 0.20
0.29 0.22 0.13 0.08 0.11 0.12 0.01 0.01 0.01 0.00 0.00 0.00 0.00 0.00 0.00 0.00 0.00 0.00 0.00 0.01 0.05 0.03 0.03 0.06 0.08 0.09 0.16 0.22 0.24 0.26 0.31 0.42 0.38
0.35 0.28 0.10 0.08 0.06 0.10 0.02 0.02 0.01 0.01 0.01 0.00 0.00 0.00 0.00 0.00 0.00 0.00 0.00 0.00 0.00 0.01 0.02 0.04 0.05 0.05 0.07 0.09 0.08 0.09 0.16 0.26 0.31
0.26 0.28 0.18 0.14 0.09 0.11 0.05 0.04 0.01 0.01 0.00 0.00 0.00 0.00 0.00 0.00 0.00 0.00 0.00 0.00 0.01 0.03 0.06 0.08 0.08 0.08 0.11 0.11 0.10 0.10 0.12 0.12 0.14
0.11 0.10 0.19 0.28 0.20 0.15 0.08 0.01 0.01 0.01 0.00 0.00 0.00 0.00 0.00 0.00 0.00 0.00 0.00 0.00 0.07 0.14 0.14 0.12 0.10 0.11 0.11 0.11 0.13 0.13 0.15 0.16 0.14
0.01 0.01 0.04 0.10 0.16 0.13 0.04 0.01 0.02 0.01 0.00 0.00 0.00 0.00 0.00 0.00 0.00 0.00 0.01 0.07 0.15 0.10 0.06 0.05 0.07 0.07 0.09 0.12 0.11 0.11 0.13 0.17 0.15
0.00 0.02 0.02 0.05 0.11 0.07 0.04 0.01 0.01 0.00 0.00 0.00 0.00 0.00 0.00 0.00 0.00 0.00 0.02 0.06 0.08 0.05 0.03 0.05 0.04 0.04 0.05 0.05 0.05 0.05 0.08 0.12 0.16
0.01 0.01 0.02 0.07 0.04 0.03 0.02 0.00 0.00 0.00 0.00 0.00 0.00 0.00 0.00 0.00 0.00 0.00 0.04 0.04 0.05 0.01 0.01 0.01 0.01 0.01 0.02 0.01 0.01 0.06 0.07 0.11 0.15
0.14 0.07 0.07 0.06 0.04 0.05 0.02 0.00 0.00 0.00 0.00 0.00 0.00 0.00 0.00 0.00 0.00 0.00 0.00 0.00 0.01 0.00 0.00 0.00 0.00 0.01 0.01 0.00 0.03 0.08 0.11 0.11 0.10
0.22 0.24 0.20 0.14 0.09 0.06 0.04 0.02 0.01 0.00 0.00 0.00 0.00 0.00 0.00 0.00 0.00 0.00 0.00 0.00 0.00 0.00 0.01 0.01 0.03 0.08 0.08 0.04 0.06 0.04 0.03 0.02 0.03
0.36 0.30 0.29 0.21 0.15 0.08 0.03 0.05 0.02 0.00 0.00 0.00 0.00 0.00 0.00 0.00 0.00 0.00 0.00 0.00 0.00 0.00 0.00 0.01 0.03 0.15 0.15 0.10 0.18 0.19 0.09 0.06 0.04
0.16 0.38 0.34 0.26 0.20 0.17 0.09 0.12 0.10 0.03 0.00 0.00 0.00 0.00 0.00 0.00 0.00 0.00 0.00 0.00 0.00 0.00 0.00 0.00 0.00 0.01 0.05 0.20 0.33 0.30 0.28 0.20 0.15
0.08 0.06 0.11 0.16 0.20 0.19 0.14 0.16 0.23 0.19 0.09 0.01 0.00 0.00 0.00 0.00 0.00 0.00 0.00 0.00 0.00 0.00 0.00 0.00 0.00 0.01 0.03 0.12 0.32 0.36 0.35 0.15 0.13
0.03 0.05 0.06 0.09 0.13 0.17 0.21 0.23 0.22 0.24 0.18 0.08 0.02 0.00 0.00 0.00 0.00 0.00 0.00 0.00 0.00 0.00 0.00 0.00 0.00 0.01 0.00 0.02 0.13 0.23 0.30 0.29 0.19
0.08 0.06 0.06 0.08 0.08 0.11 0.14 0.18 0.16 0.13 0.11 0.09 0.03 0.00 0.00 0.00 0.00 0.00 0.01 0.02 0.01 0.00 0.00 0.00 0.00 0.00 0.00 0.00 0.04 0.05 0.17 0.32 0.29
0.23 0.17 0.12 0.09 0.04 0.03 0.06 0.12 0.12 0.08 0.12 0.15 0.05 0.01 0.00 0.00 0.00 0.00 0.02 0.01 0.01 0.00 0.00 0.00 0.00 0.00 0.00 0.00 0.00 0.01 0.10 0.21 0.32
0.56 0.45 0.37 0.24 0.18 0.11 0.09 0.10 0.11 0.10 0.18 0.25 0.12 0.03 0.00 0.00 0.00 0.00 0.00 0.00 0.00 0.00 0.00 0.00 0.00 0.00 0.00 0.00 0.00 0.01 0.06 0.12 0.24
1.00 0.96 1.01 0.98 0.74 0.51 0.47 0.37 0.32 0.35 0.29 0.27 0.29 0.11 0.03 0.01 0.00 0.00 0.00 0.00 0.00 0.00 0.01 0.01 0.01 0.01 0.00 0.00 0.00 0.00 0.01 0.06 0.10
1.62 1.65 1.73 1.64 1.26 1.29 1.40 1.41 1.21 1.08 0.88 0.68 0.50 0.34 0.18 0.12 0.05 0.02 0.02 0.01 0.01 0.01 0.02 0.02 0.01 0.01 0.01 0.02 0.03 0.03 0.03 0.03 0.09
1.59 1.82 2.03 2.12 2.05 1.66 1.60 1.78 1.79 1.62 1.59 1.32 1.05 0.77 0.58 0.41 0.32 0.18 0.14 0.10 0.07 0.05 0.04 0.05 0.05 0.07 0.10 0.10 0.11 0.15 0.14 0.11 0.14

GFSFLT1_prec_precacc_111.txt.gz
Total_Precipitation_Accumulation
0.12 0.08 0.13 0.13 0.20 0.23 0.01 0.01 0.01 0.00 0.00 0.00 0.00 0.01 0.01 0.00 0.00 0.00 0.01 0.03 0.11 0.07 0.08 0.11 0.17 0.20 0.25 0.27 0.33 0.39 0.37 0.26 0.20
0.32 0.24 0.15 0.11 0.18 0.25 0.06 0.01 0.01 0.00 0.00 0.00 0.00 0.00 0.00 0.00 0.00 0.00 0.00 0.01 0.05 0.03 0.03 0.06 0.08 0.09 0.16 0.22 0.24 0.26 0.31 0.42 0.38
0.40 0.31 0.12 0.10 0.14 0.27 0.16 0.02 0.01 0.01 0.01 0.00 0.00 0.00 0.00 0.00 0.00 0.00 0.00 0.00 0.00 0.01 0.02 0.04 0.05 0.05 0.07 0.09 0.08 0.09 0.16 0.26 0.31
0.31 0.32 0.21 0.16 0.12 0.18 0.19 0.08 0.01 0.01 0.00 0.00 0.00 0.00 0.00 0.00 0.00 0.00 0.00 0.00 0.01 0.03 0.06 0.08 0.08 0.08 0.11 0.11 0.10 0.10 0.12 0.12 0.14
0.13 0.14 0.21 0.32 0.26 0.21 0.20 0.07 0.01 0.01 0.00 0.00 0.00 0.00 0.00 0.00 0.00 0.00 0.00 0.00 0.07 0.14 0.14 0.12 0.10 0.11 0.11 0.11 0.13 0.13 0.15 0.16 0.14
0.01 0.01 0.04 0.13 0.21 0.23 0.17 0.10 0.02 0.01 0.00 0.00 0.00 0.00 0.00 0.00 0.00 0.00 0.01 0.07 0.15 0.10 0.06 0.05 0.07 0.07 0.09 0.12 0.11 0.11 0.13 0.17 0.15
0.00 0.02 0.02 0.07 0.15 0.12 0.14 0.13 0.03 0.00 0.00 0.00 0.00 0.00 0.00 0.00 0.00 0.00 0.02 0.06 0.08 0.05 0.03 0.05 0.04 0.04 0.05 0.05 0.05 0.05 0.08 0.12 0.16
0.01 0.02 0.03 0.11 0.08 0.09 0.05 0.03 0.00 0.00 0.00 0.00 0.00 0.00 0.00 0.00 0.00 0.00 0.04 0.04 0.05 0.01 0.01 0.01 0.01 0.01 0.02 0.01 0.01 0.06 0.07 0.11 0.15
0.15 0.07 0.08 0.11 0.07 0.11 0.09 0.06 0.01 0.00 0.00 0.00 0.00 0.00 0.00 0.00 0.00 0.00 0.00 0.00 0.01 0.00 0.00 0.00 0.00 0.01 0.01 0.00 0.03 0.08 0.11 0.11 0.10
0.24 0.25 0.24 0.18 0.13 0.10 0.10 0.08 0.05 0.01 0.00 0.00 0.00 0.00 0.00 0.00 0.00 0.00 0.00 0.00 0.00 0.00 0.01 0.01 0.03 0.08 0.08 0.04 0.06 0.04 0.03 0.02 0.03
0.43 0.37 0.36 0.28 0.20 0.15 0.08 0.10 0.08 0.03 0.01 0.00 0.00 0.00 0.00 0.00 0.00 0.00 0.00 0.00 0.00 0.00 0.00 0.01 0.04 0.16 0.16 0.10 0.18 0.19 0.09 0.06 0.05
0.20 0.41 0.39 0.30 0.27 0.28 0.23 0.29 0.23 0.20 0.10 0.03 0.00 0.00 0.00 0.00 0.00 0.00 0.00 0.00 0.00 0.00 0.00 0.00 0.00 0.02 0.08 0.24 0.35 0.31 0.30 0.23 0.19
0.15 0.12 0.16 0.20 0.25 0.24 0.17 0.18 0.27 0.30 0.26 0.09 0.01 0.00 0.00 0.00 0.00 0.00 0.00 0.00 0.00 0.00 0.00 0.00 0.00 0.01 0.03 0.12 0.33 0.39 0.38 0.18 0.15
0.13 0.15 0.17 0.16 0.17 0.20 0.24 0.29 0.27 0.26 0.21 0.10 0.03 0.00 0.00 0.00 0.00 0.00 0.00 0.00 0.00 0.00 0.00 0.00 0.00 0.01 0.00 0.02 0.13 0.25 0.34 0.31 0.19
0.12 0.17 0.20 0.19 0.13 0.12 0.15 0.21 0.21 0.17 0.14 0.12 0.07 0.03 0.00 0.00 0.00 0.00 0.01 0.02 0.01 0.00 0.00 0.00 0.00 0.00 0.00 0.00 0.04 0.06 0.21 0.34 0.30
0.25 0.17 0.13 0.11 0.05 0.04 0.07 0.14 0.16 0.12 0.16 0.21 0.08 0.03 0.01 0.00 0.00 0.00 0.02 0.01 0.01 0.00 0.00 0.00 0.00 0.00 0.00 0.00 0.00 0.01 0.10 0.24 0.34
0.59 0.46 0.39 0.25 0.18 0.11 0.09 0.11 0.13 0.12 0.20 0.28 0.15 0.05 0.01 0.00 0.00 0.00 0.00 0.00 0.00 0.00 0.00 0.00 0.00 0.00 0.00 0.00 0.00 0.01 0.06 0.13 0.29
1.01 0.97 1.02 1.02 0.77 0.51 0.47 0.38 0.35 0.39 0.32 0.29 0.30 0.12 0.03 0.01 0.00 0.00 0.00 0.00 0.00 0.00 0.01 0.01 0.01 0.01 0.00 0.00 0.00 0.01 0.02 0.06 0.16
1.65 1.67 1.74 1.65 1.30 1.30 1.41 1.43 1.25 1.15 0.93 0.71 0.51 0.35 0.19 0.12 0.05 0.02 0.02 0.01 0.01 0.01 0.02 0.02 0.01 0.01 0.01 0.02 0.03 0.04 0.09 0.04 0.10
1.64 1.87 2.09 2.18 2.11 1.70 1.65 1.83 1.84 1.68 1.65 1.34 1.06 0.77 0.59 0.42 0.32 0.18 0.14 0.10 0.07 0.05 0.04 0.05 0.05 0.07 0.10 0.10 0.11 0.16 0.19 0.12 0.14

GFSFLT1_prec_precacc_114.txt.gz
Total_Precipitation_Accumulation
0.12 0.08 0.13 0.13 0.20 0.28 0.07 0.01 0.01 0.00 0.00 0.00 0.00 0.01 0.01 0.00 0.00 0.00 0.01 0.03 0.11 0.07 0.08 0.11 0.17 0.20 0.25 0.27 0.33 0.39 0.37 0.26 0.20
0.36 0.25 0.15 0.11 0.20 0.38 0.20 0.01 0.01 0.00 0.00 0.00 0.00 0.00 0.00 0.00 0.00 0.00 0.00 0.01 0.05 0.03 0.03 0.06 0.08 0.09 0.16 0.22 0.24 0.26 0.31 0.42 0.38
0.46 0.36 0.14 0.10 0.17 0.38 0.30 0.06 0.01 0.01 0.01 0.00 0.00 0.00 0.00 0.00 0.00 0.00 0.00 0.00 0.00 0.01 0.02 0.04 0.05 0.05 0.07 0.09 0.08 0.09 0.16 0.26 0.31
0.34 0.35 0.24 0.19 0.15 0.24 0.24 0.19 0.03 0.01 0.00 0.00 0.00 0.00 0.00 0.00 0.00 0.00 0.00 0.00 0.01 0.03 0.06 0.08 0.08 0.08 0.11 0.11 0.10 0.10 0.12 0.12 0.14
0.13 0.15 0.23 0.33 0.28 0.24 0.25 0.17 0.08 0.01 0.00 0.00 0.00 0.00 0.00 0.00 0.00 0.00 0.00 0.00 0.07 0.14 0.14 0.12 0.10 0.11 0.11 0.11 0.13 0.13 0.15 0.16 0.14
0.01 0.01 0.04 0.13 0.22 0.27 0.24 0.19 0.06 0.01 0.00 0.00 0.00 0.00 0.00 0.00 0.00 0.00 0.01 0.07 0.15 0.10 0.06 0.05 0.07 0.07 0.09 0.12 0.11 0.11 0.13 0.17 0.15
0.00 0.02 0.02 0.07 0.16 0.17 0.21 0.21 0.07 0.00 0.00 0.00 0.00 0.00 0.00 0.00 0.00 0.00 0.02 0.06 0.08 0.05 0.03 0.05 0.04 0.04 0.05 0.05 0.05 0.05 0.08 0.12 0.16
0.01 0.02 0.03 0.11 0.08 0.11 0.08 0.06 0.01 0.00 0.00 0.00 0.00 0.00 0.00 0.00 0.00 0.00 0.04 0.04 0.05 0.02 0.01 0.01 0.01 0.01 0.02 0.01 0.01 0.06 0.07 0.11 0.15
0.15 0.07 0.08 0.12 0.08 0.11 0.11 0.08 0.01 0.00 0.00 0.00 0.00 0.00 0.00 0.00 0.00 0.00 0.00 0.00 0.01 0.00 0.00 0.00 0.00 0.01 0.01 0.00 0.03 0.08 0.11 0.11 0.10
0.24 0.25 0.25 0.21 0.16 0.12 0.12 0.11 0.12 0.06 0.00 0.00 0.00 0.00 0.00 0.00 0.00 0.00 0.00 0.00 0.00 0.00 0.01 0.01 0.03 0.08 0.08 0.04 0.06 0.04 0.03 0.02 0.03
0.44 0.38 0.38 0.30 0.23 0.19 0.13 0.14 0.16 0.13 0.04 0.01 0.00 0.00 0.00 0.00 0.00 0.00 0.00 0.00 0.00 0.00 0.00 0.01 0.05 0.16 0.16 0.10 0.18 0.19 0.09 0.06 0.05
0.21 0.42 0.43 0.36 0.35 0.40 0.37 0.41 0.33 0.30 0.14 0.05 0.01 0.00 0.00 0.00 0.00 0.00 0.00 0.00 0.00 0.00 0.00 0.00 0.00 0.02 0.09 0.25 0.37 0.32 0.31 0.24 0.20
0.15 0.13 0.19 0.30 0.39 0.40 0.32 0.33 0.42 0.44 0.35 0.15 0.03 0.00 0.00 0.00 0.00 0.00 0.00 0.00 0.00 0.00 0.00 0.00 0.00 0.01 0.03 0.13 0.34 0.41 0.41 0.20 0.17
0.14 0.18 0.23 0.25 0.27 0.27 0.32 0.41 0.38 0.39 0.31 0.17 0.06 0.01 0.00 0.00 0.00 0.00 0.00 0.00 0.00 0.00 0.00 0.00 0.00 0.01 0.00 0.02 0.13 0.26 0.35 0.32 0.20
0.14 0.18 0.20 0.22 0.20 0.20 0.25 0.32 0.34 0.28 0.21 0.20 0.13 0.06 0.01 0.00 0.00 0.00 0.01 0.02 0.01 0.00 0.00 0.00 0.00 0.00 0.00 0.00 0.04 0.06 0.22 0.34 0.30
0.25 0.17 0.14 0.12 0.07 0.06 0.08 0.17 0.19 0.14 0.19 0.28 0.11 0.05 0.03 0.02 0.00 0.00 0.02 0.01 0.01 0.00 0.00 0.00 0.00 0.00 0.00 0.00 0.00 0.01 0.10 0.25 0.35
0.60 0.47 0.39 0.25 0.19 0.12 0.10 0.11 0.13 0.13 0.23 0.32 0.19 0.08 0.02 0.01 0.00 0.00 0.00 0.00 0.00 0.00 0.00 0.00 0.00 0.00 0.00 0.00 0.00 0.01 0.06 0.13 0.32
1.06 0.99 1.02 1.02 0.78 0.53 0.49 0.39 0.38 0.40 0.35 0.32 0.33 0.13 0.03 0.01 0.00 0.00 0.00 0.00 0.00 0.00 0.01 0.01 0.01 0.01 0.00 0.00 0.00 0.01 0.02 0.06 0.16
1.80 1.81 1.76 1.69 1.34 1.36 1.48 1.47 1.28 1.20 0.94 0.78 0.56 0.38 0.22 0.13 0.05 0.02 0.02 0.01 0.01 0.01 0.02 0.02 0.01 0.01 0.01 0.02 0.03 0.04 0.09 0.04 0.10
1.76 1.95 2.16 2.23 2.17 1.81 1.74 1.92 1.95 1.84 1.77 1.47 1.17 0.84 0.64 0.46 0.34 0.18 0.14 0.10 0.07 0.05 0.04 0.05 0.05 0.07 0.10 0.10 0.11 0.16 0.19 0.12 0.14

GFSFLT1_prec_precacc_117.txt.gz
Total_Precipitation_Accumulation
0.14 0.08 0.13 0.13 0.20 0.28 0.08 0.01 0.01 0.00 0.00 0.00 0.00 0.01 0.01 0.00 0.00 0.00 0.01 0.03 0.11 0.07 0.08 0.11 0.17 0.20 0.25 0.27 0.33 0.39 0.37 0.26 0.20
0.39 0.26 0.15 0.11 0.20 0.43 0.33 0.03 0.01 0.00 0.00 0.00 0.00 0.00 0.00 0.00 0.00 0.00 0.00 0.01 0.05 0.03 0.03 0.06 0.08 0.09 0.16 0.22 0.24 0.26 0.31 0.42 0.38
0.46 0.38 0.15 0.11 0.17 0.43 0.39 0.13 0.01 0.01 0.01 0.00 0.00 0.00 0.00 0.00 0.00 0.00 0.00 0.00 0.00 0.01 0.02 0.04 0.05 0.05 0.07 0.09 0.08 0.09 0.16 0.26 0.31
0.34 0.35 0.24 0.19 0.16 0.27 0.28 0.26 0.06 0.01 0.00 0.00 0.00 0.00 0.00 0.00 0.00 0.00 0.00 0.00 0.01 0.03 0.06 0.08 0.08 0.08 0.11 0.11 0.10 0.10 0.12 0.12 0.14
0.13 0.15 0.23 0.33 0.28 0.24 0.25 0.21 0.14 0.02 0.00 0.00 0.00 0.00 0.00 0.00 0.00 0.00 0.00 0.00 0.07 0.14 0.14 0.12 0.10 0.11 0.11 0.11 0.13 0.13 0.15 0.16 0.14
0.01 0.01 0.04 0.13 0.22 0.27 0.25 0.22 0.08 0.01 0.00 0.00 0.00 0.00 0.00 0.00 0.00 0.00 0.01 0.07 0.15 0.10 0.06 0.05 0.07 0.07 0.09 0.12 0.11 0.11 0.13 0.17 0.15
0.00 0.02 0.02 0.07 0.16 0.17 0.22 0.24 0.07 0.00 0.00 0.00 0.00 0.00 0.00 0.00 0.00 0.00 0.02 0.06 0.08 0.05 0.03 0.05 0.04 0.04 0.05 0.05 0.05 0.05 0.08 0.12 0.16
0.01 0.02 0.03 0.11 0.08 0.11 0.08 0.07 0.01 0.00 0.00 0.00 0.00 0.00 0.00 0.00 0.00 0.00 0.04 0.04 0.05 0.02 0.01 0.01 0.01 0.01 0.02 0.01 0.01 0.06 0.07 0.11 0.15
0.15 0.07 0.08 0.12 0.08 0.11 0.11 0.08 0.01 0.00 0.00 0.00 0.00 0.00 0.00 0.00 0.00 0.00 0.00 0.00 0.01 0.00 0.00 0.00 0.00 0.01 0.01 0.00 0.03 0.08 0.11 0.11 0.10
0.24 0.25 0.25 0.21 0.16 0.12 0.12 0.11 0.12 0.06 0.01 0.00 0.00 0.00 0.00 0.00 0.00 0.00 0.00 0.00 0.00 0.00 0.01 0.01 0.03 0.08 0.08 0.04 0.06 0.04 0.03 0.02 0.03
0.46 0.39 0.38 0.30 0.24 0.20 0.16 0.18 0.17 0.17 0.08 0.01 0.00 0.00 0.00 0.00 0.00 0.00 0.00 0.00 0.00 0.00 0.00 0.01 0.05 0.16 0.16 0.10 0.18 0.19 0.09 0.06 0.05
0.26 0.46 0.47 0.38 0.39 0.50 0.49 0.55 0.40 0.35 0.19 0.07 0.01 0.01 0.00 0.00 0.00 0.00 0.00 0.00 0.00 0.00 0.00 0.00 0.00 0.02 0.09 0.25 0.37 0.32 0.31 0.24 0.20
0.19 0.15 0.20 0.31 0.41 0.46 0.40 0.45 0.58 0.60 0.48 0.23 0.06 0.01 0.00 0.00 0.00 0.00 0.00 0.00 0.00 0.00 0.00 0.00 0.00 0.01 0.03 0.13 0.34 0.42 0.42 0.21 0.18
0.17 0.19 0.24 0.27 0.29 0.32 0.35 0.44 0.47 0.51 0.43 0.36 0.36 0.37 0.24 0.05 0.01 0.00 0.00 0.00 0.00 0.00 0.00 0.00 0.00 0.01 0.00 0.02 0.13 0.26 0.36 0.32 0.21
0.23 0.22 0.24 0.28 0.26 0.23 0.28 0.34 0.38 0.35 0.31 0.31 0.26 0.19 0.15 0.05 0.01 0.00 0.01 0.02 0.01 0.00 0.00 0.00 0.00 0.00 0.00 0.00 0.04 0.06 0.22 0.34 0.30
0.29 0.24 0.19 0.15 0.12 0.10 0.11 0.17 0.20 0.17 0.26 0.36 0.16 0.10 0.08 0.05 0.01 0.00 0.02 0.01 0.01 0.00 0.00 0.00 0.00 0.00 0.00 0.00 0.00 0.01 0.10 0.25 0.35
0.65 0.48 0.41 0.27 0.23 0.16 0.12 0.11 0.14 0.15 0.30 0.42 0.32 0.16 0.05 0.01 0.00 0.00 0.00 0.00 0.00 0.00 0.00 0.00 0.00 0.00 0.00 0.00 0.00 0.01 0.06 0.13 0.32
1.32 1.19 1.13 1.06 0.81 0.56 0.52 0.42 0.40 0.42 0.37 0.37 0.41 0.17 0.05 0.01 0.00 0.00 0.00 0.00 0.00 0.00 0.01 0.01 0.01 0.01 0.00 0.00 0.00 0.01 0.02 0.06 0.16
2.19 2.31 2.10 1.91 1.53 1.46 1.56 1.55 1.35 1.30 0.98 0.85 0.67 0.48 0.26 0.14 0.06 0.02 0.02 0.01 0.01 0.01 0.02 0.02 0.01 0.01 0.01 0.02 0.03 0.04 0.09 0.04 0.10
2.00 2.27 2.69 2.59 2.44 2.09 1.91 2.00 1.99 1.87 1.80 1.54 1.31 1.01 0.84 0.61 0.42 0.21 0.15 0.11 0.07 0.05 0.04 0.05 0.05 0.07 0.10 0.10 0.11 0.16 0.19 0.12 0.14

GFSFLT1_prec_precacc_120.txt.gz
Total_Precipitation_Accumulation
0.14 0.08 0.13 0.13 0.20 0.28 0.11 0.02 0.01 0.00 0.00 0.00 0.00 0.01 0.01 0.00 0.00 0.00 0.01 0.03 0.11 0.07 0.08 0.11 0.17 0.20 0.25 0.27 0.33 0.39 0.37 0.26 0.20
0.40 0.28 0.15 0.11 0.20 0.44 0.37 0.05 0.01 0.00 0.00 0.00 0.00 0.00 0.00 0.00 0.00 0.00 0.00 0.01 0.05 0.03 0.03 0.06 0.08 0.09 0.16 0.22 0.24 0.26 0.31 0.42 0.38
0.46 0.38 0.15 0.11 0.17 0.43 0.41 0.15 0.01 0.01 0.01 0.00 0.00 0.00 0.00 0.00 0.00 0.00 0.00 0.00 0.00 0.01 0.02 0.04 0.05 0.05 0.07 0.09 0.08 0.09 0.16 0.26 0.31
0.34 0.35 0.24 0.19 0.16 0.28 0.28 0.28 0.08 0.01 0.00 0.00 0.00 0.00 0.00 0.00 0.00 0.00 0.00 0.00 0.01 0.03 0.06 0.08 0.08 0.08 0.11 0.11 0.10 0.10 0.12 0.12 0.14
0.13 0.15 0.23 0.33 0.30 0.27 0.26 0.25 0.20 0.04 0.00 0.00 0.00 0.00 0.00 0.00 0.00 0.00 0.00 0.00 0.07 0.14 0.14 0.12 0.10 0.11 0.11 0.11 0.13 0.13 0.15 0.16 0.14
0.01 0.01 0.04 0.13 0.22 0.28 0.27 0.24 0.10 0.02 0.00 0.00 0.00 0.00 0.00 0.00 0.00 0.00 0.01 0.07 0.15 0.10 0.06 0.05 0.07 0.07 0.09 0.12 0.11 0.11 0.13 0.17 0.15
0.00 0.02 0.02 0.07 0.16 0.17 0.22 0.25 0.08 0.00 0.00 0.00 0.00 0.00 0.00 0.00 0.00 0.00 0.02 0.06 0.08 0.05 0.03 0.05 0.04 0.04 0.05 0.05 0.05 0.05 0.08 0.12 0.16
0.01 0.02 0.03 0.11 0.08 0.11 0.08 0.08 0.01 0.00 0.00 0.00 0.00 0.00 0.00 0.00 0.00 0.00 0.04 0.04 0.05 0.02 0.01 0.01 0.01 0.01 0.02 0.01 0.01 0.06 0.07 0.11 0.15
0.15 0.07 0.08 0.12 0.08 0.12 0.11 0.08 0.01 0.00 0.00 0.00 0.00 0.00 0.00 0.00 0.00 0.00 0.00 0.00 0.01 0.00 0.00 0.00 0.00 0.01 0.01 0.00 0.03 0.08 0.11 0.11 0.10
0.24 0.25 0.25 0.21 0.16 0.12 0.12 0.11 0.12 0.06 0.01 0.00 0.00 0.00 0.00 0.00 0.00 0.00 0.00 0.00 0.00 0.00 0.01 0.01 0.03 0.08 0.08 0.04 0.06 0.04 0.03 0.02 0.03
0.49 0.40 0.38 0.30 0.24 0.21 0.20 0.25 0.21 0.17 0.09 0.03 0.01 0.00 0.01 0.00 0.00 0.00 0.00 0.00 0.00 0.00 0.00 0.01 0.05 0.16 0.16 0.10 0.18 0.19 0.09 0.06 0.05
0.33 0.53 0.53 0.41 0.41 0.56 0.59 0.69 0.56 0.40 0.21 0.09 0.02 0.01 0.01 0.01 0.00 0.00 0.00 0.00 0.00 0.00 0.00 0.00 0.00 0.02 0.09 0.25 0.37 0.32 0.31 0.24 0.20
0.25 0.21 0.24 0.37 0.47 0.52 0.48 0.53 0.64 0.65 0.57 0.30 0.12 0.06 0.03 0.01 0.00 0.00 0.00 0.00 0.00 0.00 0.00 0.00 0.01 0.01 0.03 0.13 0.35 0.43 0.42 0.21 0.18
0.20 0.24 0.29 0.34 0.37 0.39 0.43 0.52 0.55 0.59 0.53 0.45 0.50 0.70 0.68 0.42 0.19 0.06 0.01 0.00 0.00 0.00 0.00 0.00 0.00 0.01 0.00 0.02 0.13 0.28 0.38 0.33 0.21
0.25 0.25 0.28 0.36 0.34 0.33 0.35 0.41 0.44 0.39 0.35 0.34 0.29 0.26 0.39 0.61 0.61 0.37 0.18 0.07 0.02 0.00 0.00 0.00 0.00 0.00 0.00 0.00 0.04 0.06 0.23 0.36 0.31
0.29 0.26 0.22 0.20 0.17 0.17 0.22 0.28 0.27 0.20 0.28 0.36 0.17 0.12 0.11 0.09 0.07 0.11 0.13 0.07 0.03 0.00 0.00 0.00 0.00 0.00 0.00 0.00 0.00 0.01 0.10 0.25 0.36
0.67 0.49 0.43 0.32 0.31 0.28 0.22 0.20 0.21 0.19 0.32 0.43 0.32 0.16 0.06 0.04 0.05 0.06 0.05 0.04 0.05 0.03 0.01 0.00 0.00 0.00 0.00 0.00 0.00 0.01 0.06 0.13 0.32
1.33 1.23 1.19 1.10 0.86 0.63 0.61 0.49 0.45 0.45 0.40 0.39 0.42 0.17 0.06 0.02 0.03 0.03 0.02 0.02 0.02 0.01 0.03 0.02 0.02 0.01 0.00 0.00 0.00 0.01 0.02 0.06 0.16
2.19 2.32 2.16 2.00 1.63 1.52 1.63 1.62 1.40 1.34 1.00 0.89 0.72 0.54 0.29 0.15 0.07 0.03 0.03 0.04 0.03 0.03 0.05 0.03 0.02 0.01 0.01 0.02 0.03 0.04 0.09 0.04 0.10
2.00 2.27 2.70 2.73 2.86 2.56 2.20 2.16 2.13 1.99 1.91 1.61 1.33 1.04 0.87 0.66 0.49 0.28 0.18 0.15 0.09 0.07 0.06 0.07 0.05 0.07 0.10 0.10 0.11 0.16 0.19 0.12 0.14

GFSFLT1_prec_precacc_123.txt.gz
Total_Precipitation_Accumulation
0.14 0.09 0.13 0.13 0.20 0.28 0.11 0.03 0.01 0.00 0.00 0.00 0.00 0.01 0.01 0.00 0.00 0.00 0.01 0.03 0.11 0.07 0.08 0.11 0.17 0.20 0.25 0.27 0.33 0.39 0.37 0.26 0.20
0.40 0.30 0.16 0.11 0.20 0.44 0.38 0.07 0.01 0.00 0.00 0.00 0.00 0.00 0.00 0.00 0.00 0.00 0.00 0.01 0.05 0.03 0.03 0.06 0.08 0.09 0.16 0.22 0.24 0.26 0.31 0.42 0.38
0.48 0.39 0.16 0.12 0.17 0.43 0.41 0.20 0.04 0.01 0.01 0.00 0.00 0.00 0.00 0.00 0.00 0.00 0.00 0.00 0.00 0.01 0.02 0.04 0.05 0.05 0.07 0.09 0.08 0.09 0.16 0.26 0.31
0.34 0.36 0.25 0.20 0.18 0.30 0.29 0.30 0.13 0.05 0.01 0.00 0.00 0.00 0.00 0.00 0.00 0.00 0.00 0.00 0.01 0.03 0.06 0.08 0.08 0.08 0.11 0.11 0.10 0.10 0.12 0.12 0.14
0.13 0.15 0.23 0.33 0.30 0.29 0.28 0.25 0.23 0.16 0.07 0.00 0.00 0.00 0.00 0.00 0.00 0.00 0.00 0.00 0.07 0.14 0.14 0.12 0.10 0.11 0.11 0.11 0.13 0.13 0.15 0.16 0.14
0.01 0.01 0.04 0.13 0.22 0.28 0.28 0.26 0.14 0.08 0.02 0.00 0.00 0.00 0.00 0.00 0.00 0.00 0.01 0.07 0.15 0.10 0.06 0.05 0.07 0.07 0.09 0.12 0.11 0.11 0.13 0.17 0.15
0.01 0.02 0.02 0.07 0.16 0.17 0.22 0.25 0.08 0.01 0.00 0.00 0.01 0.00 0.00 0.00 0.00 0.00 0.02 0.06 0.08 0.05 0.03 0.05 0.04 0.04 0.05 0.05 0.05 0.05 0.08 0.12 0.16
0.02 0.02 0.03 0.11 0.08 0.11 0.08 0.08 0.01 0.00 0.00 0.00 0.02 0.01 0.00 0.00 0.00 0.00 0.04 0.04 0.05 0.02 0.01 0.01 0.01 0.01 0.02 0.01 0.01 0.06 0.07 0.11 0.15
0.16 0.07 0.08 0.12 0.08 0.12 0.11 0.08 0.01 0.00 0.00 0.00 0.01 0.01 0.01 0.00 0.00 0.00 0.00 0.00 0.01 0.00 0.00 0.00 0.00 0.01 0.01 0.00 0.03 0.08 0.11 0.11 0.10
0.26 0.27 0.27 0.22 0.16 0.12 0.13 0.15 0.14 0.07 0.01 0.00 0.00 0.00 0.01 0.01 0.00 0.00 0.00 0.00 0.00 0.00 0.02 0.01 0.03 0.08 0.08 0.04 0.06 0.04 0.03 0.02 0.03
0.49 0.42 0.41 0.31 0.25 0.23 0.22 0.31 0.31 0.24 0.13 0.04 0.01 0.01 0.03 0.08 0.03 0.00 0.00 0.00 0.00 0.00 0.01 0.02 0.05 0.16 0.16 0.10 0.18 0.19 0.09 0.06 0.05
0.33 0.53 0.54 0.43 0.44 0.61 0.67 0.78 0.65 0.52 0.32 0.15 0.05 0.02 0.03 0.05 0.11 0.07 0.01 0.00 0.00 0.00 0.01 0.04 0.03 0.03 0.09 0.25 0.37 0.32 0.31 0.24 0.20
0.25 0.21 0.24 0.38 0.50 0.57 0.55 0.61 0.72 0.75 0.65 0.40 0.22 0.17 0.12 0.11 0.09 0.06 0.02 0.00 0.00 0.00 0.00 0.03 0.05 0.04 0.04 0.13 0.35 0.44 0.42 0.21 0.18
0.20 0.24 0.29 0.35 0.39 0.43 0.48 0.59 0.62 0.70 0.61 0.51 0.56 0.74 0.76 0.49 0.31 0.16 0.07 0.03 0.01 0.00 0.00 0.01 0.04 0.05 0.05 0.04 0.14 0.29 0.41 0.35 0.23
0.25 0.25 0.28 0.36 0.34 0.34 0.38 0.46 0.52 0.48 0.46 0.46 0.36 0.30 0.44 0.68 0.76 0.67 0.54 0.37 0.22 0.10 0.04 0.03 0.02 0.02 0.04 0.04 0.06 0.07 0.24 0.37 0.32
0.29 0.26 0.22 0.20 0.17 0.17 0.23 0.32 0.34 0.27 0.38 0.46 0.21 0.15 0.11 0.10 0.09 0.17 0.30 0.32 0.26 0.22 0.15 0.09 0.05 0.02 0.02 0.02 0.03 0.03 0.12 0.27 0.37
0.67 0.49 0.43 0.32 0.31 0.28 0.24 0.24 0.26 0.26 0.42 0.52 0.37 0.18 0.07 0.04 0.05 0.08 0.08 0.09 0.15 0.16 0.14 0.14 0.09 0.05 0.01 0.00 0.00 0.03 0.08 0.15 0.34
1.33 1.23 1.19 1.10 0.87 0.64 0.61 0.51 0.49 0.50 0.48 0.47 0.48 0.20 0.07 0.02 0.03 0.04 0.04 0.03 0.04 0.04 0.08 0.10 0.12 0.10 0.07 0.03 0.01 0.01 0.03 0.07 0.18
2.19 2.32 2.17 2.00 1.63 1.53 1.63 1.63 1.44 1.40 1.07 0.97 0.79 0.59 0.31 0.16 0.07 0.03 0.03 0.06 0.05 0.06 0.10 0.08 0.05 0.03 0.03 0.05 0.05 0.06 0.10 0.04 0.10
2.00 2.29 2.74 2.76 2.87 2.56 2.21 2.20 2.17 2.05 1.99 1.71 1.43 1.14 0.95 0.71 0.51 0.29 0.18 0.15 0.10 0.09 0.09 0.09 0.07 0.09 0.12 0.12 0.12 0.18 0.20 0.12 0.14

GFSFLT1_prec_precacc_126.txt.gz
Total_Precipitation_Accumulation
0.14 0.11 0.14 0.13 0.20 0.28 0.14 0.06 0.03 0.01 0.00 0.00 0.00 0.01 0.01 0.00 0.00 0.00 0.01 0.03 0.11 0.07 0.08 0.11 0.17 0.20 0.25 0.27 0.33 0.39 0.37 0.26 0.20
0.40 0.32 0.18 0.12 0.20 0.44 0.40 0.10 0.04 0.00 0.00 0.00 0.00 0.00 0.00 0.00 0.00 0.00 0.00 0.01 0.05 0.03 0.03 0.06 0.08 0.09 0.16 0.22 0.24 0.26 0.31 0.42 0.38
0.51 0.42 0.18 0.12 0.17 0.43 0.41 0.21 0.07 0.03 0.01 0.00 0.00 0.00 0.00 0.00 0.00 0.00 0.00 0.00 0.00 0.01 0.02 0.04 0.05 0.05 0.07 0.09 0.08 0.09 0.16 0.26 0.31
0.37 0.40 0.27 0.21 0.19 0.31 0.30 0.31 0.14 0.10 0.09 0.03 0.00 0.00 0.00 0.00 0.00 0.00 0.00 0.00 0.01 0.03 0.06 0.08 0.08 0.08 0.11 0.11 0.10 0.10 0.12 0.12 0.14
0.15 0.16 0.25 0.37 0.33 0.31 0.30 0.27 0.24 0.19 0.18 0.13 0.02 0.00 0.00 0.00 0.00 0.00 0.00 0.00 0.07 0.14 0.14 0.12 0.10 0.11 0.11 0.11 0.13 0.13 0.15 0.16 0.14
0.02 0.01 0.04 0.14 0.25 0.30 0.30 0.28 0.15 0.11 0.09 0.03 0.02 0.01 0.00 0.00 0.00 0.00 0.01 0.07 0.15 0.10 0.06 0.05 0.07 0.07 0.09 0.12 0.11 0.11 0.13 0.17 0.15
0.03 0.02 0.02 0.07 0.16 0.17 0.23 0.27 0.10 0.01 0.00 0.00 0.01 0.01 0.01 0.00 0.00 0.00 0.02 0.06 0.08 0.05 0.04 0.05 0.04 0.04 0.05 0.05 0.05 0.05 0.08 0.12 0.16
0.02 0.02 0.03 0.11 0.08 0.11 0.08 0.08 0.01 0.00 0.00 0.00 0.02 0.06 0.05 0.01 0.00 0.00 0.04 0.04 0.05 0.02 0.01 0.01 0.01 0.01 0.02 0.01 0.01 0.06 0.07 0.11 0.15
0.16 0.07 0.08 0.12 0.08 0.12 0.11 0.08 0.02 0.01 0.01 0.01 0.01 0.01 0.02 0.02 0.01 0.00 0.00 0.00 0.01 0.00 0.00 0.00 0.00 0.01 0.01 0.00 0.03 0.08 0.11 0.11 0.10
0.26 0.27 0.27 0.22 0.16 0.12 0.13 0.16 0.18 0.14 0.09 0.06 0.03 0.01 0.01 0.02 0.01 0.00 0.00 0.00 0.00 0.00 0.02 0.02 0.03 0.08 0.08 0.04 0.06 0.04 0.03 0.02 0.03
0.49 0.42 0.41 0.31 0.25 0.23 0.23 0.33 0.35 0.29 0.21 0.12 0.07 0.04 0.04 0.08 0.05 0.04 0.04 0.00 0.00 0.00 0.01 0.03 0.09 0.18 0.16 0.10 0.18 0.19 0.09 0.06 0.05
0.33 0.53 0.54 0.43 0.44 0.61 0.67 0.80 0.70 0.58 0.38 0.21 0.12 0.10 0.08 0.08 0.13 0.14 0.11 0.04 0.01 0.00 0.02 0.05 0.05 0.06 0.11 0.26 0.37 0.33 0.32 0.25 0.21
0.25 0.21 0.24 0.38 0.50 0.57 0.55 0.62 0.77 0.79 0.72 0.47 0.29 0.24 0.21 0.18 0.17 0.16 0.11 0.07 0.03 0.01 0.01 0.05 0.08 0.06 0.06 0.16 0.37 0.45 0.42 0.21 0.18
0.20 0.24 0.29 0.35 0.39 0.43 0.48 0.61 0.65 0.74 0.66 0.55 0.62 0.80 0.79 0.55 0.40 0.25 0.15 0.11 0.08 0.04 0.02 0.02 0.09 0.12 0.11 0.08 0.19 0.34 0.44 0.37 0.26
0.25 0.25 0.28 0.36 0.35 0.34 0.38 0.47 0.53 0.51 0.51 0.55 0.49 0.44 0.53 0.74 0.80 0.70 0.60 0.42 0.27 0.17 0.12 0.12 0.12 0.12 0.12 0.11 0.12 0.14 0.31 0.44 0.36
0.29 0.26 0.22 0.20 0.17 0.18 0.23 0.32 0.34 0.28 0.40 0.53 0.26 0.19 0.13 0.11 0.11 0.20 0.31 0.33 0.28 0.24 0.22 0.23 0.23 0.24 0.24 0.20 0.14 0.10 0.16 0.31 0.41
0.67 0.49 0.43 0.32 0.32 0.29 0.24 0.25 0.27 0.27 0.45 0.58 0.44 0.21 0.09 0.05 0.06 0.09 0.10 0.12 0.15 0.16 0.16 0.19 0.19 0.20 0.23 0.21 0.17 0.14 0.16 0.21 0.40
1.33 1.23 1.19 1.11 0.87 0.65 0.62 0.52 0.50 0.52 0.50 0.53 0.59 0.30 0.11 0.03 0.04 0.04 0.04 0.04 0.05 0.04 0.08 0.10 0.14 0.16 0.17 0.16 0.18 0.17 0.14 0.14 0.22
2.19 2.32 2.17 2.01 1.64 1.55 1.66 1.66 1.47 1.43 1.10 1.01 0.84 0.69 0.38 0.19 0.08 0.03 0.04 0.06 0.05 0.06 0.10 0.09 0.07 0.07 0.11 0.19 0.28 0.30 0.32 0.24 0.22
2.00 2.29 2.74 2.77 2.89 2.57 2.23 2.23 2.21 2.10 2.04 1.77 1.50 1.23 1.09 0.86 0.63 0.36 0.22 0.17 0.13 0.12 0.13 0.15 0.11 0.11 0.14 0.17 0.18 0.24 0.25 0.17 0.18

GFSFLT1_prec_precacc_129.txt.gz
Total_Precipitation_Accumulation
0.21 0.16 0.16 0.14 0.20 0.28 0.14 0.08 0.05 0.04 0.01 0.00 0.00 0.01 0.01 0.00 0.00 0.00 0.01 0.03 0.11 0.07 0.08 0.11 0.17 0.20 0.25 0.27 0.33 0.39 0.37 0.26 0.20
0.47 0.38 0.21 0.14 0.21 0.44 0.40 0.10 0.05 0.04 0.02 0.00 0.00 0.00 0.00 0.00 0.00 0.00 0.00 0.01 0.05 0.03 0.03 0.06 0.08 0.09 0.16 0.22 0.24 0.26 0.31 0.42 0.38
0.54 0.47 0.23 0.16 0.19 0.44 0.42 0.22 0.07 0.06 0.09 0.05 0.00 0.00 0.00 0.00 0.00 0.00 0.00 0.00 0.00 0.01 0.02 0.04 0.05 0.05 0.07 0.09 0.08 0.09 0.16 0.26 0.31
0.38 0.43 0.30 0.25 0.23 0.35 0.34 0.35 0.17 0.11 0.15 0.16 0.04 0.01 0.00 0.00 0.00 0.00 0.00 0.00 0.01 0.03 0.06 0.08 0.08 0.08 0.11 0.11 0.10 0.10 0.12 0.12 0.14
0.15 0.16 0.25 0.38 0.34 0.33 0.32 0.29 0.28 0.21 0.20 0.21 0.18 0.03 0.00 0.00 0.00 0.00 0.00 0.00 0.07 0.14 0.14 0.12 0.10 0.11 0.11 0.11 0.13 0.13 0.15 0.16 0.14
0.02 0.01 0.04 0.14 0.25 0.31 0.31 0.30 0.16 0.13 0.10 0.05 0.04 0.03 0.00 0.00 0.00 0.00 0.01 0.07 0.15 0.10 0.06 0.05 0.07 0.07 0.09 0.12 0.11 0.11 0.13 0.17 0.15
0.03 0.02 0.02 0.07 0.16 0.18 0.24 0.28 0.11 0.01 0.00 0.00 0.01 0.02 0.04 0.02 0.00 0.00 0.02 0.06 0.08 0.05 0.04 0.05 0.04 0.04 0.05 0.05 0.05 0.05 0.08 0.12 0.16
0.02 0.02 0.03 0.11 0.08 0.11 0.08 0.08 0.02 0.00 0.00 0.00 0.02 0.06 0.06 0.03 0.01 0.00 0.04 0.04 0.05 0.02 0.01 0.02 0.02 0.01 0.02 0.01 0.01 0.06 0.07 0.11 0.15
0.16 0.07 0.08 0.12 0.08 0.12 0.11 0.08 0.02 0.01 0.02 0.02 0.02 0.03 0.03 0.02 0.01 0.00 0.00 0.00 0.01 0.00 0.00 0.01 0.01 0.01 0.01 0.00 0.03 0.08 0.11 0.11 0.10
0.26 0.27 0.27 0.22 0.16 0.12 0.13 0.16 0.18 0.14 0.09 0.08 0.07 0.04 0.03 0.02 0.01 0.00 0.01 0.01 0.00 0.00 0.02 0.03 0.05 0.10 0.09 0.04 0.06 0.04 0.03 0.02 0.03
0.49 0.42 0.41 0.31 0.25 0.23 0.23 0.33 0.35 0.30 0.21 0.13 0.08 0.06 0.06 0.11 0.07 0.05 0.07 0.05 0.02 0.01 0.02 0.03 0.11 0.23 0.18 0.11 0.18 0.19 0.09 0.06 0.05
0.33 0.53 0.54 0.43 0.44 0.61 0.67 0.80 0.70 0.58 0.39 0.21 0.13 0.13 0.11 0.10 0.16 0.17 0.13 0.09 0.07 0.04 0.03 0.06 0.05 0.09 0.16 0.32 0.40 0.34 0.32 0.25 0.21
0.25 0.21 0.24 0.38 0.50 0.57 0.55 0.62 0.77 0.79 0.72 0.47 0.31 0.28 0.26 0.23 0.20 0.20 0.13 0.10 0.07 0.08 0.04 0.07 0.09 0.07 0.08 0.21 0.42 0.49 0.44 0.22 0.19
0.20 0.24 0.29 0.35 0.39 0.43 0.48 0.61 0.65 0.74 0.66 0.56 0.63 0.81 0.81 0.57 0.42 0.30 0.19 0.15 0.13 0.10 0.10 0.06 0.11 0.12 0.12 0.11 0.25 0.41 0.51 0.43 0.30
0.25 0.25 0.28 0.36 0.35 0.34 0.39 0.47 0.53 0.51 0.51 0.55 0.50 0.48 0.60 0.80 0.83 0.73 0.65 0.47 0.32 0.24 0.22 0.22 0.19 0.16 0.14 0.14 0.16 0.21 0.40 0.53 0.45
0.29 0.26 0.22 0.20 0.17 0.18 0.23 0.33 0.35 0.28 0.41 0.54 0.27 0.21 0.19 0.16 0.12 0.22 0.34 0.37 0.31 0.27 0.30 0.31 0.31 0.30 0.26 0.23 0.22 0.22 0.30 0.43 0.52
0.67 0.49 0.43 0.32 0.32 0.29 0.24 0.25 0.28 0.28 0.47 0.62 0.47 0.23 0.12 0.08 0.08 0.11 0.12 0.17 0.30 0.27 0.23 0.23 0.22 0.21 0.23 0.23 0.22 0.23 0.29 0.35 0.54
1.33 1.23 1.19 1.11 0.87 0.65 0.62 0.53 0.52 0.53 0.51 0.60 0.71 0.39 0.18 0.10 0.08 0.05 0.06 0.08 0.13 0.17 0.14 0.12 0.14 0.16 0.17 0.17 0.19 0.20 0.20 0.23 0.32
2.19 2.32 2.17 2.01 1.64 1.55 1.66 1.67 1.47 1.45 1.12 1.06 0.97 0.87 0.54 0.30 0.12 0.04 0.04 0.07 0.07 0.09 0.13 0.10 0.08 0.08 0.11 0.20 0.29 0.33 0.38 0.32 0.35
2.00 2.29 2.74 2.77 2.89 2.57 2.23 2.23 2.22 2.12 2.08 1.85 1.63 1.43 1.29 1.02 0.75 0.42 0.26 0.20 0.15 0.16 0.19 0.20 0.16 0.14 0.17 0.18 0.21 0.28 0.31 0.26 0.31

GFSFLT1_prec_precacc_132.txt.gz
Total_Precipitation_Accumulation
0.23 0.20 0.17 0.15 0.21 0.28 0.14 0.08 0.06 0.04 0.02 0.00 0.00 0.01 0.01 0.00 0.00 0.00 0.01 0.03 0.11 0.07 0.08 0.11 0.17 0.20 0.25 0.27 0.33 0.39 0.37 0.26 0.20
0.48 0.39 0.22 0.15 0.22 0.44 0.40 0.10 0.06 0.04 0.02 0.00 0.00 0.00 0.01 0.00 0.00 0.00 0.00 0.01 0.05 0.03 0.03 0.06 0.08 0.09 0.16 0.22 0.24 0.26 0.31 0.42 0.38
0.54 0.47 0.23 0.16 0.19 0.45 0.43 0.23 0.07 0.09 0.11 0.09 0.02 0.00 0.00 0.00 0.00 0.00 0.00 0.00 0.00 0.01 0.02 0.04 0.05 0.05 0.07 0.09 0.08 0.09 0.16 0.26 0.31
0.38 0.43 0.30 0.25 0.23 0.35 0.34 0.35 0.18 0.12 0.18 0.22 0.08 0.02 0.00 0.00 0.00 0.00 0.00 0.00 0.01 0.03 0.06 0.08 0.08 0.08 0.11 0.11 0.10 0.10 0.12 0.12 0.14
0.15 0.16 0.25 0.38 0.34 0.33 0.33 0.30 0.29 0.23 0.21 0.23 0.23 0.04 0.00 0.00 0.00 0.00 0.00 0.00 0.07 0.14 0.14 0.12 0.10 0.11 0.11 0.11 0.13 0.13 0.15 0.16 0.14
0.02 0.01 0.04 0.14 0.25 0.31 0.31 0.30 0.18 0.14 0.10 0.05 0.05 0.08 0.02 0.02 0.01 0.00 0.01 0.07 0.15 0.10 0.06 0.05 0.07 0.07 0.09 0.12 0.11 0.11 0.13 0.17 0.15
0.03 0.02 0.02 0.07 0.16 0.18 0.24 0.28 0.11 0.01 0.00 0.00 0.02 0.03 0.05 0.05 0.02 0.01 0.03 0.06 0.08 0.05 0.04 0.06 0.05 0.04 0.05 0.05 0.05 0.05 0.08 0.12 0.16
0.02 0.02 0.03 0.11 0.08 0.11 0.08 0.08 0.02 0.00 0.01 0.01 0.02 0.06 0.07 0.05 0.03 0.01 0.04 0.04 0.05 0.02 0.01 0.02 0.03 0.02 0.02 0.01 0.02 0.06 0.07 0.11 0.15
0.16 0.07 0.08 0.12 0.08 0.12 0.11 0.08 0.02 0.01 0.02 0.03 0.04 0.05 0.04 0.04 0.03 0.01 0.00 0.00 0.01 0.00 0.00 0.01 0.03 0.03 0.01 0.00 0.03 0.08 0.11 0.11 0.10
0.26 0.27 0.27 0.22 0.16 0.12 0.13 0.16 0.18 0.14 0.09 0.08 0.07 0.05 0.05 0.04 0.02 0.01 0.01 0.01 0.00 0.00 0.02 0.03 0.06 0.12 0.11 0.05 0.06 0.04 0.03 0.02 0.03
0.49 0.42 0.41 0.31 0.25 0.23 0.23 0.33 0.35 0.30 0.21 0.13 0.08 0.06 0.08 0.13 0.09 0.07 0.09 0.06 0.03 0.01 0.02 0.03 0.12 0.24 0.21 0.14 0.20 0.20 0.10 0.07 0.05
0.33 0.53 0.54 0.43 0.44 0.61 0.67 0.80 0.70 0.58 0.39 0.21 0.13 0.13 0.11 0.10 0.17 0.18 0.14 0.11 0.09 0.06 0.03 0.06 0.06 0.09 0.17 0.35 0.45 0.36 0.33 0.26 0.21
0.25 0.21 0.24 0.38 0.50 0.57 0.55 0.62 0.77 0.79 0.72 0.47 0.31 0.28 0.26 0.23 0.21 0.20 0.14 0.10 0.08 0.09 0.06 0.08 0.10 0.07 0.08 0.21 0.46 0.54 0.49 0.25 0.20
0.20 0.24 0.29 0.35 0.39 0.43 0.48 0.61 0.65 0.74 0.66 0.56 0.63 0.81 0.81 0.58 0.43 0.31 0.20 0.16 0.14 0.10 0.12 0.12 0.15 0.13 0.12 0.11 0.29 0.47 0.58 0.49 0.35
0.25 0.25 0.28 0.36 0.35 0.34 0.39 0.47 0.53 0.51 0.51 0.55 0.50 0.48 0.60 0.81 0.85 0.76 0.67 0.48 0.33 0.26 0.24 0.25 0.24 0.22 0.18 0.15 0.17 0.26 0.48 0.66 0.57
0.29 0.26 0.22 0.20 0.17 0.18 0.23 0.33 0.35 0.28 0.41 0.55 0.27 0.21 0.19 0.16 0.13 0.24 0.37 0.39 0.34 0.31 0.34 0.39 0.41 0.42 0.41 0.35 0.32 0.31 0.39 0.51 0.58
0.67 0.49 0.43 0.32 0.32 0.29 0.24 0.25 0.28 0.28 0.47 0.63 0.49 0.24 0.12 0.09 0.09 0.14 0.16 0.20 0.36 0.34 0.30 0.32 0.34 0.35 0.38 0.37 0.33 0.32 0.39 0.46 0.64
1.33 1.23 1.19 1.11 0.87 0.65 0.62 0.53 0.52 0.54 0.51 0.61 0.74 0.42 0.21 0.17 0.18 0.16 0.18 0.19 0.24 0.28 0.41 0.38 0.31 0.29 0.31 0.27 0.26 0.24 0.23 0.29 0.40
2.19 2.32 2.17 2.01 1.64 1.55 1.66 1.67 1.48 1.46 1.12 1.06 0.99 0.92 0.65 0.51 0.40 0.29 0.31 0.21 0.21 0.34 0.38 0.35 0.38 0.40 0.39 0.39 0.36 0.35 0.40 0.34 0.40
2.00 2.29 2.74 2.77 2.89 2.57 2.23 2.23 2.22 2.12 2.09 1.85 1.63 1.44 1.34 1.38 1.26 0.82 0.46 0.36 0.35 0.35 0.47 0.52 0.50 0.58 0.60 0.68 0.48 0.34 0.34 0.29 0.35

GFSFLT1_prec_precacc_135.txt.gz
Total_Precipitation_Accumulation
0.23 0.20 0.17 0.15 0.21 0.29 0.14 0.08 0.06 0.05 0.03 0.00 0.00 0.01 0.01 0.00 0.00 0.00 0.01 0.03 0.11 0.07 0.08 0.11 0.17 0.20 0.25 0.27 0.33 0.39 0.37 0.26 0.20
0.51 0.42 0.24 0.15 0.22 0.44 0.41 0.13 0.09 0.05 0.05 0.01 0.00 0.01 0.01 0.00 0.00 0.00 0.00 0.01 0.05 0.03 0.03 0.06 0.08 0.09 0.16 0.22 0.24 0.26 0.31 0.42 0.38
0.54 0.49 0.26 0.18 0.20 0.45 0.43 0.25 0.10 0.10 0.15 0.12 0.07 0.03 0.01 0.00 0.00 0.00 0.00 0.00 0.00 0.01 0.02 0.04 0.05 0.05 0.07 0.09 0.08 0.09 0.16 0.26 0.31
0.38 0.43 0.30 0.25 0.24 0.36 0.34 0.35 0.18 0.12 0.19 0.25 0.10 0.02 0.00 0.00 0.00 0.00 0.00 0.00 0.01 0.03 0.06 0.08 0.08 0.08 0.11 0.11 0.10 0.10 0.12 0.12 0.14
0.15 0.16 0.25 0.38 0.34 0.33 0.33 0.30 0.29 0.23 0.22 0.23 0.24 0.04 0.00 0.01 0.00 0.00 0.00 0.00 0.07 0.14 0.14 0.12 0.10 0.11 0.11 0.11 0.13 0.13 0.15 0.16 0.14
0.02 0.01 0.04 0.14 0.25 0.31 0.31 0.30 0.18 0.15 0.10 0.05 0.05 0.08 0.02 0.03 0.02 0.00 0.01 0.07 0.15 0.10 0.06 0.05 0.07 0.07 0.09 0.12 0.11 0.11 0.13 0.17 0.15
0.03 0.02 0.02 0.07 0.16 0.18 0.24 0.28 0.11 0.01 0.00 0.00 0.03 0.03 0.05 0.05 0.03 0.01 0.03 0.06 0.08 0.05 0.04 0.06 0.05 0.04 0.05 0.05 0.05 0.05 0.08 0.12 0.16
0.02 0.02 0.03 0.11 0.08 0.11 0.08 0.08 0.02 0.00 0.01 0.01 0.03 0.08 0.10 0.05 0.04 0.03 0.04 0.04 0.05 0.02 0.01 0.02 0.03 0.02 0.03 0.01 0.02 0.06 0.08 0.11 0.15
0.16 0.07 0.08 0.12 0.08 0.12 0.11 0.08 0.02 0.01 0.02 0.03 0.04 0.06 0.06 0.05 0.04 0.03 0.02 0.01 0.01 0.00 0.00 0.01 0.03 0.03 0.02 0.01 0.03 0.08 0.11 0.11 0.10
0.26 0.27 0.27 0.22 0.16 0.12 0.13 0.16 0.18 0.14 0.09 0.08 0.07 0.05 0.05 0.05 0.04 0.02 0.03 0.02 0.01 0.01 0.02 0.03 0.06 0.12 0.11 0.06 0.07 0.05 0.03 0.03 0.03
0.49 0.42 0.41 0.31 0.25 0.23 0.23 0.33 0.35 0.30 0.21 0.13 0.08 0.06 0.08 0.13 0.09 0.08 0.11 0.07 0.04 0.02 0.03 0.04 0.12 0.24 0.21 0.15 0.22 0.21 0.10 0.07 0.05
0.33 0.53 0.54 0.43 0.44 0.61 0.67 0.80 0.70 0.58 0.39 0.21 0.13 0.13 0.11 0.10 0.17 0.19 0.16 0.13 0.10 0.07 0.06 0.10 0.07 0.09 0.17 0.36 0.47 0.38 0.35 0.26 0.22
0.25 0.21 0.24 0.38 0.50 0.57 0.55 0.62 0.77 0.79 0.72 0.47 0.31 0.28 0.26 0.23 0.21 0.20 0.15 0.12 0.10 0.11 0.09 0.13 0.13 0.08 0.08 0.22 0.48 0.57 0.52 0.27 0.22
0.20 0.24 0.29 0.35 0.39 0.43 0.48 0.61 0.65 0.74 0.66 0.56 0.63 0.81 0.81 0.58 0.43 0.31 0.20 0.17 0.16 0.12 0.16 0.18 0.22 0.23 0.19 0.13 0.30 0.51 0.62 0.55 0.40
0.25 0.25 0.28 0.36 0.35 0.34 0.39 0.47 0.53 0.51 0.51 0.55 0.50 0.48 0.60 0.81 0.85 0.76 0.68 0.49 0.35 0.28 0.27 0.29 0.31 0.31 0.23 0.18 0.19 0.30 0.55 0.73 0.66
0.29 0.26 0.22 0.20 0.17 0.18 0.23 0.33 0.35 0.28 0.41 0.55 0.27 0.21 0.19 0.16 0.13 0.24 0.37 0.40 0.35 0.33 0.36 0.41 0.45 0.49 0.54 0.43 0.33 0.33 0.43 0.59 0.69
0.67 0.49 0.43 0.32 0.32 0.29 0.24 0.25 0.28 0.28 0.47 0.64 0.50 0.24 0.12 0.09 0.09 0.14 0.17 0.21 0.40 0.40 0.39 0.41 0.42 0.41 0.43 0.51 0.46 0.36 0.44 0.54 0.77
1.33 1.23 1.19 1.11 0.87 0.65 0.62 0.53 0.52 0.54 0.51 0.61 0.76 0.44 0.22 0.17 0.18 0.16 0.20 0.27 0.36 0.45 0.63 0.68 0.52 0.44 0.40 0.42 0.45 0.43 0.40 0.49 0.54
2.19 2.32 2.17 2.01 1.64 1.55 1.66 1.67 1.48 1.46 1.13 1.06 0.99 0.92 0.66 0.55 0.40 0.30 0.34 0.48 1.09 1.35 1.03 0.73 0.83 1.00 0.76 0.58 0.73 0.83 0.87 0.68 0.57
2.00 2.29 2.74 2.77 2.89 2.57 2.23 2.23 2.22 2.12 2.09 1.85 1.64 1.44 1.34 1.38 1.26 0.85 0.63 0.56 0.97 0.82 0.72 0.66 0.58 0.92 1.25 1.12 0.83 0.60 0.58 0.72 0.88

GFSFLT1_prec_precacc_138.txt.gz
Total_Precipitation_Accumulation
0.25 0.22 0.19 0.15 0.21 0.29 0.14 0.08 0.06 0.05 0.03 0.00 0.00 0.01 0.01 0.00 0.00 0.00 0.01 0.03 0.11 0.07 0.08 0.11 0.17 0.20 0.25 0.27 0.33 0.39 0.37 0.26 0.20
0.52 0.43 0.25 0.15 0.22 0.44 0.41 0.14 0.09 0.06 0.05 0.01 0.01 0.02 0.01 0.00 0.00 0.00 0.00 0.01 0.05 0.03 0.03 0.06 0.08 0.09 0.16 0.22 0.24 0.26 0.31 0.42 0.38
0.54 0.49 0.26 0.18 0.20 0.45 0.43 0.25 0.10 0.10 0.16 0.13 0.09 0.05 0.01 0.00 0.00 0.00 0.00 0.00 0.00 0.01 0.02 0.04 0.05 0.05 0.07 0.09 0.08 0.09 0.16 0.26 0.31
0.38 0.43 0.30 0.25 0.24 0.36 0.34 0.35 0.18 0.12 0.20 0.26 0.12 0.03 0.00 0.00 0.00 0.00 0.00 0.00 0.01 0.03 0.06 0.08 0.08 0.08 0.11 0.11 0.10 0.10 0.12 0.12 0.14
0.15 0.16 0.25 0.38 0.34 0.33 0.33 0.30 0.29 0.25 0.23 0.24 0.25 0.04 0.00 0.01 0.00 0.00 0.00 0.00 0.07 0.14 0.14 0.12 0.10 0.11 0.11 0.11 0.13 0.13 0.15 0.16 0.14
0.02 0.01 0.04 0.14 0.25 0.31 0.31 0.30 0.18 0.15 0.10 0.05 0.06 0.08 0.02 0.03 0.02 0.00 0.01 0.07 0.15 0.10 0.06 0.05 0.07 0.07 0.09 0.12 0.11 0.11 0.13 0.17 0.15
0.03 0.02 0.02 0.07 0.16 0.18 0.24 0.28 0.11 0.01 0.00 0.00 0.03 0.04 0.07 0.07 0.03 0.01 0.03 0.07 0.09 0.06 0.04 0.06 0.05 0.05 0.05 0.05 0.05 0.05 0.08 0.12 0.16
0.02 0.02 0.03 0.11 0.08 0.11 0.08 0.08 0.02 0.00 0.01 0.02 0.03 0.09 0.11 0.07 0.04 0.04 0.08 0.08 0.09 0.04 0.02 0.02 0.03 0.02 0.03 0.01 0.02 0.06 0.08 0.11 0.16
0.16 0.07 0.08 0.12 0.08 0.12 0.11 0.08 0.02 0.01 0.02 0.03 0.04 0.06 0.07 0.05 0.04 0.04 0.04 0.03 0.05 0.04 0.03 0.03 0.04 0.04 0.02 0.01 0.04 0.08 0.11 0.11 0.10
0.26 0.27 0.27 0.22 0.16 0.12 0.13 0.16 0.18 0.14 0.09 0.08 0.07 0.05 0.05 0.05 0.04 0.03 0.03 0.03 0.05 0.04 0.06 0.06 0.08 0.13 0.12 0.06 0.07 0.05 0.03 0.03 0.03
0.49 0.42 0.41 0.31 0.25 0.23 0.23 0.33 0.35 0.30 0.21 0.13 0.08 0.06 0.08 0.13 0.09 0.08 0.11 0.08 0.06 0.06 0.07 0.09 0.15 0.28 0.23 0.16 0.23 0.22 0.10 0.07 0.05
0.33 0.53 0.54 0.43 0.44 0.61 0.67 0.80 0.70 0.58 0.39 0.21 0.13 0.13 0.11 0.10 0.17 0.19 0.16 0.13 0.11 0.08 0.09 0.14 0.12 0.13 0.20 0.41 0.52 0.43 0.37 0.26 0.22
0.25 0.21 0.24 0.38 0.50 0.57 0.55 0.62 0.77 0.79 0.72 0.47 0.31 0.28 0.26 0.23 0.21 0.20 0.15 0.12 0.11 0.12 0.10 0.17 0.19 0.13 0.13 0.28 0.54 0.63 0.56 0.29 0.22
0.20 0.24 0.29 0.35 0.39 0.43 0.48 0.61 0.65 0.74 0.66 0.56 0.63 0.81 0.81 0.58 0.43 0.31 0.20 0.17 0.16 0.13 0.16 0.19 0.27 0.32 0.28 0.20 0.39 0.60 0.70 0.61 0.42
0.25 0.25 0.28 0.36 0.35 0.34 0.39 0.47 0.53 0.51 0.51 0.55 0.50 0.48 0.60 0.81 0.85 0.76 0.68 0.49 0.35 0.28 0.27 0.30 0.31 0.33 0.29 0.28 0.29 0.41 0.66 0.83 0.73
0.29 0.26 0.22 0.20 0.17 0.18 0.23 0.33 0.35 0.28 0.41 0.55 0.27 0.21 0.19 0.16 0.13 0.24 0.37 0.40 0.35 0.33 0.37 0.43 0.47 0.52 0.61 0.49 0.40 0.43 0.58 0.73 0.82
0.67 0.49 0.43 0.32 0.32 0.29 0.24 0.25 0.28 0.28 0.47 0.64 0.50 0.24 0.12 0.09 0.09 0.14 0.17 0.21 0.40 0.40 0.40 0.46 0.47 0.48 0.52 0.67 0.63 0.45 0.59 0.76 0.95
1.33 1.23 1.19 1.11 0.87 0.65 0.62 0.53 0.52 0.54 0.51 0.61 0.76 0.44 0.22 0.18 0.18 0.16 0.21 0.27 0.36 0.45 0.63 0.75 0.59 0.52 0.56 0.67 0.70 0.63 0.52 0.65 0.82
2.19 2.32 2.17 2.01 1.64 1.55 1.66 1.67 1.48 1.46 1.13 1.06 0.99 0.92 0.67 0.56 0.41 0.30 0.34 0.48 1.09 1.37 1.21 1.08 1.26 1.28 1.01 0.99 1.09 1.23 1.19 0.92 0.93
2.00 2.29 2.74 2.77 2.89 2.57 2.23 2.23 2.22 2.12 2.09 1.85 1.64 1.44 1.34 1.38 1.27 0.85 0.63 0.56 0.97 0.83 0.77 0.75 0.72 1.04 1.43 1.67 1.42 1.01 0.93 1.07 1.17

GFSFLT1_prec_precacc_144.txt.gz
Total_Precipitation_Accumulation
0.26 0.25 0.20 0.16 0.22 0.29 0.14 0.08 0.08 0.09 0.04 0.00 0.00 0.02 0.04 0.00 0.00 0.00 0.01 0.04 0.13 0.13 0.10 0.12 0.17 0.20 0.25 0.27 0.33 0.39 0.37 0.26 0.20
0.52 0.43 0.25 0.15 0.22 0.45 0.42 0.15 0.13 0.11 0.07 0.01 0.01 0.04 0.03 0.00 0.00 0.00 0.00 0.01 0.05 0.03 0.04 0.06 0.08 0.09 0.16 0.22 0.24 0.26 0.31 0.42 0.38
0.54 0.49 0.26 0.18 0.20 0.45 0.43 0.25 0.11 0.11 0.17 0.15 0.12 0.07 0.02 0.00 0.00 0.00 0.00 0.00 0.00 0.01 0.02 0.04 0.05 0.05 0.07 0.09 0.08 0.09 0.16 0.26 0.31
0.38 0.43 0.30 0.25 0.24 0.36 0.34 0.35 0.18 0.12 0.21 0.30 0.14 0.04 0.01 0.00 0.00 0.00 0.00 0.00 0.01 0.05 0.09 0.09 0.09 0.08 0.11 0.11 0.10 0.10 0.12 0.12 0.14
0.15 0.16 0.25 0.38 0.34 0.33 0.33 0.30 0.29 0.25 0.24 0.25 0.25 0.05 0.01 0.01 0.00 0.00 0.00 0.01 0.15 0.28 0.19 0.15 0.13 0.12 0.12 0.11 0.13 0.13 0.15 0.16 0.14
0.02 0.01 0.04 0.14 0.25 0.31 0.31 0.30 0.18 0.15 0.10 0.05 0.06 0.09 0.02 0.04 0.03 0.01 0.01 0.10 0.24 0.18 0.10 0.09 0.11 0.11 0.11 0.13 0.12 0.11 0.13 0.17 0.15
0.03 0.02 0.02 0.07 0.16 0.18 0.24 0.28 0.11 0.01 0.00 0.00 0.03 0.05 0.08 0.08 0.04 0.02 0.05 0.13 0.18 0.16 0.14 0.14 0.11 0.10 0.09 0.09 0.08 0.06 0.08 0.12 0.16
0.02 0.02 0.03 0.11 0.08 0.11 0.08 0.08 0.02 0.00 0.01 0.02 0.03 0.09 0.11 0.07 0.06 0.06 0.10 0.12 0.15 0.11 0.12 0.13 0.14 0.11 0.10 0.07 0.06 0.09 0.09 0.11 0.16
0.16 0.07 0.08 0.12 0.08 0.12 0.11 0.08 0.02 0.01 0.02 0.03 0.04 0.06 0.07 0.05 0.04 0.04 0.04 0.04 0.07 0.07 0.08 0.10 0.13 0.14 0.13 0.10 0.12 0.14 0.16 0.13 0.11
0.26 0.27 0.27 0.22 0.16 0.12 0.13 0.16 0.18 0.14 0.09 0.08 0.07 0.05 0.05 0.05 0.04 0.03 0.03 0.03 0.05 0.06 0.08 0.08 0.13 0.20 0.21 0.17 0.18 0.15 0.12 0.10 0.08
0.49 0.42 0.41 0.31 0.25 0.23 0.23 0.33 0.35 0.30 0.21 0.13 0.08 0.06 0.08 0.13 0.09 0.08 0.11 0.08 0.06 0.07 0.08 0.10 0.18 0.33 0.31 0.28 0.36 0.35 0.23 0.18 0.14
0.33 0.53 0.54 0.43 0.44 0.61 0.67 0.80 0.70 0.58 0.39 0.21 0.13 0.13 0.11 0.10 0.17 0.19 0.16 0.13 0.11 0.08 0.09 0.15 0.13 0.15 0.25 0.48 0.63 0.55 0.50 0.40 0.34
0.25 0.21 0.24 0.38 0.50 0.57 0.55 0.62 0.77 0.79 0.72 0.47 0.31 0.28 0.26 0.23 0.21 0.20 0.15 0.12 0.11 0.12 0.10 0.17 0.19 0.14 0.15 0.32 0.62 0.74 0.69 0.43 0.37
0.20 0.24 0.29 0.35 0.39 0.43 0.48 0.61 0.65 0.74 0.66 0.56 0.63 0.81 0.81 0.58 0.43 0.31 0.20 0.17 0.16 0.13 0.16 0.19 0.27 0.32 0.29 0.21 0.43 0.67 0.81 0.74 0.58
0.25 0.25 0.28 0.36 0.35 0.34 0.39 0.47 0.53 0.51 0.51 0.55 0.50 0.48 0.60 0.81 0.85 0.76 0.68 0.49 0.35 0.28 0.27 0.30 0.31 0.33 0.30 0.29 0.30 0.44 0.72 0.92 0.87
0.29 0.26 0.22 0.20 0.17 0.18 0.23 0.33 0.35 0.28 0.41 0.55 0.27 0.21 0.19 0.16 0.13 0.24 0.37 0.40 0.35 0.33 0.37 0.43 0.47 0.52 0.61 0.50 0.41 0.45 0.61 0.79 0.93
0.67 0.49 0.43 0.32 0.32 0.29 0.24 0.25 0.28 0.28 0.47 0.64 0.50 0.24 0.12 0.09 0.09 0.14 0.17 0.21 0.40 0.40 0.40 0.46 0.47 0.48 0.52 0.68 0.65 0.46 0.62 0.85 1.11
1.33 1.23 1.19 1.11 0.87 0.65 0.62 0.53 0.52 0.54 0.51 0.61 0.77 0.45 0.22 0.18 0.18 0.16 0.21 0.27 0.36 0.45 0.63 0.75 0.59 0.52 0.56 0.68 0.71 0.64 0.54 0.69 0.93
2.19 2.32 2.17 2.01 1.64 1.55 1.66 1.67 1.48 1.46 1.13 1.06 0.99 0.93 0.67 0.56 0.41 0.30 0.34 0.48 1.09 1.37 1.21 1.08 1.26 1.29 1.04 1.02 1.12 1.25 1.21 0.97 1.11
2.00 2.29 2.74 2.77 2.89 2.57 2.23 2.23 2.22 2.12 2.09 1.85 1.64 1.44 1.34 1.38 1.27 0.85 0.63 0.56 0.97 0.83 0.77 0.75 0.72 1.05 1.45 1.68 1.43 1.03 0.95 1.18 1.35